     2              OBSERVATION DATA    GPS                 RINEX VERSION / TYPE
TRRINEXO-V2.7.0-LH UCSD 06-APR-1996                         PGM / RUN BY / DATE
                                                            COMMENT
Original Marker Name: ALAMO                                 COMMENT
Campaign Name: DHL Surveys 94-96                            COMMENT
4-Character Station Name: ALAM                              COMMENT
6-Character Antenna Code: TRMSST                            COMMENT
Vertical Measurement Point: BGP                             COMMENT
Vertical Offset to Rinex Ref. Point: 0.0597                 COMMENT
Radial Measurement Point: NGP                               COMMENT
Radial Offset to Rinex Ref. Point: 0.2334                   COMMENT
Antenna Height from Field Measurement: 0.8825 m             COMMENT
Original XYZ: -2309353.9511 -4817627.6898 3472204.8410      COMMENT
New XYZ position is based on association with SCEC monument COMMENT
E1D0I4P2+0011. Position of that monument is believed to be  COMMENT
valid to within 1 m horizontally; vertical accuracy         COMMENT
should be no worse than 3-times this value.                 COMMENT
                                                            COMMENT
Revised Rinex header created by UCSD GPS archive for        COMMENT
GSAC on 12-Apr-1999 (1999:102) 05:33:33 GMT                 COMMENT
For assistance contact dagnew@ucsd.edu or hjohnson@ucsd.edu COMMENT
                                                            COMMENT
ALAMO 1934                                                  MARKER NAME
Bralla SCRIPPS INSTITUTION OF OCEANOGRAPHY                  OBSERVER / AGENCY
436 TRIMBLE 4000 SST 4.81 / 4.20                            REC # / TYPE / VERS
26 TR 4000SST L1/L2 GEO                                     ANT # / TYPE
 -2309367.0000 -4817609.0000  3472162.0000                  APPROX POSITION XYZ
        0.7914        0.0000        0.0000                  ANTENNA: DELTA H/E/N
     1     2     0                                          WAVELENGTH FACT L1/2
     5    C1    L1    L2    S1    S2                        # / TYPES OF OBSERV
    30                                                      INTERVAL
  1996     4     3    19     0   30.000000                  TIME OF FIRST OBS
  1996     4     3    23    58   30.000000                  TIME OF LAST OBS
     0                                                      # OF SATELLITES
                                                            END OF HEADER
 96  4  3 19  0 30.0000000  0  7 02 07 15 19 26 27 31
  21290330.297          -0.55117                        25.250
  21919537.094          -0.71916                        18.500
  23948912.602          -0.16615                         8.500
  21479076.086          -0.29817                        22.250
  24164950.789          -0.08315                         8.000
  20210777.969          -0.36317                        23.500
  24805127.805          -0.70714                         6.750
 96  4  3 19  1  0.0000000  0  7 02 07 15 19 26 27 31
  21275877.836      -75952.250 7        -0.26713        25.250           2.688
  21891583.055     -146903.031 6        -0.43512        18.750           1.688
  23927958.031     -110099.308 5        -0.23411         8.250           0.406
  21477375.258       -8935.684 7        -0.08512        22.250           1.906
  24138847.109     -137175.821 5        -0.26411         7.750           0.313
  20198004.133      -67116.977 7        -0.04513        23.750           2.563
  24813514.406       44029.320 4        -0.17511         7.000           0.313
 96  4  3 19  1 30.0000000  0  7 02 07 15 19 26 27 31
  21261406.000     -152010.337 7    -59266.290 3        25.500           2.750
  21863636.008     -293764.543 6   -114437.932 2        18.000           1.813
  23907034.883     -220063.894 5    -85686.853 1         8.500           0.406
  21475689.406      -17796.311 7     -6904.491 2        22.250           1.750
  24112755.938     -274283.233 5   -106837.161 1         7.750           0.344
  20185270.562     -134035.398 7    -52144.261 3        24.000           2.688
  24821866.703       87929.369 4     34207.666 1         6.250           0.281
 96  4  3 19  2  0.0000000  0  7 02 07 15 19 26 27 31
  21246923.742     -228110.303 7   -118564.955 3        25.500           2.656
  21835711.555     -440507.712 6   -228783.216 2        19.000           1.688
  23886147.109     -329833.795 5   -171221.792 1         8.750           0.438
  21474030.352      -26516.871 7    -13699.755 2        22.000           1.844
  24086691.406     -411268.630 5   -213578.995 1         8.750           0.406
  20172584.742     -200701.111 7   -104091.566 3        23.750           2.594
  24830206.320      131764.218 4     68364.654 1         6.250           0.281
 96  4  3 19  2 30.0000000  0  7 02 07 15 19 26 27 31
  21232430.094     -304263.988 7   -177905.472 3        25.250           2.688
  21807811.094     -587125.829 6   -343031.057 2        19.000           1.688
  23865293.133     -439426.875 5   -256618.943 1         8.250           0.438
  21472397.047      -35101.609 7    -20389.188 2        22.000           1.906
  24060649.125     -548122.508 5   -320218.343 1         9.000           0.375
  20159945.539     -267137.439 7   -155860.127 3        23.750           2.625
  24838536.922      175527.800 4    102466.129 1         6.500           0.250
 96  4  3 19  3  0.0000000  0  7 02 07 15 19 26 27 31
  21217942.828     -380414.453 7   -237243.481 3        25.250           2.656
  21779946.141     -733560.388 6   -457135.862 2        19.000           1.781
  23844477.680     -548793.289 5   -341839.460 1         8.500           0.375
  21470797.469      -43505.569 7    -26937.754 2        22.000           1.906
  24034644.523     -684762.601 5   -426691.099 1         9.000           0.375
  20147349.648     -333306.632 7   -207420.529 3        23.750           2.625
  24846855.766      219252.159 3    136537.059 1         6.000           0.250
 96  4  3 19  3 30.0000000  0  7 02 07 15 19 26 27 31
  21203456.703     -456528.043 7   -296552.757 3        25.250           2.656
  21752123.672     -879760.444 6   -571057.943 2        19.000           1.813
  23823721.383     -657890.981 5   -426850.585 1         8.500           0.281
  21469239.484      -51695.355 7    -33319.428 2        21.500           1.875
  24008692.766     -821145.421 5   -532963.395 1         9.250           0.313
  20134817.211     -399179.105 7   -258749.717 3        24.000           2.656
  24855176.055      262974.131 4    170606.113 1         6.500           0.188
 96  4  3 19  4  0.0000000  0  7 02 07 15 19 26 27 31
  21188978.602     -532606.595 7   -355834.728 3        25.500           2.656
  21724353.016    -1025707.230 6   -684782.664 2        19.000           1.781
  23803010.531     -766708.757 5   -511643.592 1         8.000           0.406
  21467720.945      -59673.016 7    -39535.811 2        21.500           1.781
  23982788.773     -957258.369 5   -639025.367 1         9.000           0.500
  20122337.867     -464763.471 7   -309854.409 3        23.750           2.531
  24863496.781      306699.249 4    204677.622 1         7.000           0.125
 96  4  3 19  4 30.0000000  0  7 02 07 15 19 26 27 31
  21174508.828     -608639.617 7   -415081.227 3        25.250           2.719
  21696629.633    -1171386.741 6   -798299.126 2        19.250           1.906
  23782361.453     -875224.501 5   -596201.259 1         8.750           0.438
  21466245.000      -67425.660 7    -45576.860 2        21.250           1.781
  23956947.023    -1093073.959 5   -744855.661 1         9.250           0.406
  20109916.258     -530035.290 7   -360715.562 3        23.750           2.625
  24871818.031      350431.885 5    238755.001 1         7.500           0.219
 96  4  3 19  5  0.0000000  0  7 02 07 15 19 26 27 31
  21160050.984     -684618.791 7   -474285.758 3        25.500           2.719
  21668956.914    -1316805.893 6   -911612.705 2        19.250           1.844
  23761768.672     -983429.502 5   -680516.781 1         8.750           0.406
  21464815.086      -74946.687 7    -51437.428 2        20.750           1.781
  23931152.953    -1228600.739 5   -850460.915 1         9.500           0.375
  20097555.547     -594991.948 7   -411331.136 3        24.000           2.625
  24880140.055      394156.444 5    272826.085 1         7.500           0.156
 96  4  3 19  5 30.0000000  0  7 02 07 15 19 26 27 31
  21145607.875     -760536.227 7   -533442.191 3        25.250           2.719
  21641337.867    -1461948.833 6  -1024711.061 2        19.000           1.875
  23741241.086    -1091312.605 5   -764581.492 1         8.500           0.375
  21463427.984      -82233.515 7    -57115.500 2        20.500           1.719
  23905421.602    -1363836.793 5   -955839.610 1        10.000           0.469
  20085254.008     -659620.138 7   -461690.761 3        24.000           2.594
  24888461.172      437873.532 4    306891.343 1         6.750           0.250
 96  4  3 19  5 59.9990000  0  7 02 07 15 19 26 27 31
  21131173.745     -836376.290 7   -592538.329 3        25.500           2.750
  21613773.331    -1606801.287 6  -1137583.068 2        19.250           1.750
  23720773.714    -1198862.433 5   -848386.502 1         9.000           0.406
  21462086.331      -89279.742 7    -62606.092 2        20.750           1.625
  23879744.886    -1498767.908 5  -1060980.711 1        10.250           0.438
  20073025.112     -723902.044 7   -511780.553 3        24.000           2.563
  24896776.456      481583.799 3    340951.305 1         6.000           0.156
 96  4  3 19  6 29.9990000  0  7 02 07 15 19 26 27 31
  21116758.456     -912135.702 7   -651571.627 3        25.500           2.688
  21586260.081    -1751378.414 6  -1250240.529 2        19.250           1.875
  23700375.315    -1306080.326 5   -931932.853 1         9.250           0.469
  21460794.394      -96073.103 7    -67899.645 2        20.750           1.656
  23854123.175    -1633401.643 5  -1165890.081 1         9.750           0.375
  20060857.503     -787827.138 7   -561592.314 3        24.250           2.594
  24905091.417      525285.203 3    375004.296 1         6.000           0.156
 96  4  3 19  6 59.9990000  0  7 02 07 15 19 26 27 31
  21102360.394     -987802.031 7   -710532.393 3        25.500           2.719
  21558804.550    -1895661.507 6  -1362668.876 2        19.250           1.875
  23680038.659    -1412947.342 5  -1015205.812 1         9.000           0.375
  21459553.331     -102595.973 7    -72982.430 2        20.500           1.656
  23828564.972    -1767731.857 5  -1270562.946 1         9.500           0.406
  20048763.292     -851375.427 7   -611110.462 3        24.000           2.563
  24913412.690      568992.253 4    409061.723 1         6.500           0.188
 96  4  3 19  7 29.9990000  0  7 02 07 15 19 26 27 31
  21087977.847    -1063383.487 7   -769427.018 3        25.500           2.688
  21531404.698    -2039648.276 6  -1474866.314 2        19.500           1.875
  23659771.495    -1519459.929 5  -1098202.581 1         9.500           0.344
  21458363.472     -108850.704 7    -77856.268 2        20.250           1.594
  23803057.003    -1901759.955 5  -1375000.373 1         9.750           0.375
  20036744.698     -914534.232 7   -660325.115 3        24.000           2.531
  24921727.745      612709.029 4    443126.723 1         6.500           0.094
 96  4  3 19  7 59.9990000  0  7 02 07 15 19 26 27 31
  21073610.581    -1138867.091 7   -828245.395 3        25.500           2.688
  21504062.394    -2183338.689 7  -1586832.837 2        20.000           1.969
  23639569.269    -1625605.578 5  -1180913.439 1         9.000           0.438
  21457228.026     -114817.771 7    -82505.957 2        20.250           1.500
  23777613.269    -2035478.504 5  -1479196.618 1         9.750           0.344
  20024805.847     -977286.189 7   -709222.742 3        24.000           2.594
  24930054.683      656449.026 4    477209.813 1         6.500           0.094
 96  4  3 19  8 29.9990000  0  7 02 07 15 19 26 27 31
  21059266.589    -1214257.118 7   -886990.859 3        25.500           2.688
  21476772.729    -2326750.913 6  -1698582.583 2        19.750           1.906
  23619439.831    -1731389.864 5  -1263342.706 1         9.250           0.344
  21456146.300     -120496.411 7    -86930.901 2        20.250           1.594
  23752226.815    -2168883.897 5  -1583148.833 1        10.000           0.500
  20012939.448    -1039643.556 7   -757812.900 3        24.000           2.594
  24938378.151      700195.379 3    511297.848 1         5.750           0.156
 96  4  3 19  8 59.9990000  0  7 02 07 15 19 26 27 31
  21044936.940    -1289550.575 7   -945661.074 3        25.750           2.781
  21449532.370    -2469889.060 6  -1810118.765 2        19.500           2.031
  23599378.323    -1836815.411 5  -1345492.440 1        10.000           0.406
  21455118.120     -125903.208 7    -91144.012 2        20.250           1.594
  23726901.636    -2301972.442 5  -1686854.150 1         9.750           0.406
  20001148.354    -1101617.863 7   -806104.567 3        23.500           2.625
  24946706.034      743948.444 3                         6.000
 96  4  3 19  9 29.9990000  0  7 02 07 15 19 26 27 31
  21030634.542    -1364715.361 7  -1004231.029 3        25.500           2.688
  21422348.925    -2612746.246 6  -1921436.014 2        19.500           1.969
  23579389.190    -1941868.833 5  -1427352.213 1         9.250           0.406
  21454141.987     -131034.945 7    -95142.792 2        20.250           1.656
  23701638.815    -2434720.593 5  -1790294.238 1        10.000           0.438
  19989424.370    -1163214.863 7   -854102.224 3        23.750           2.656
  24955029.159      787717.284 3        -0.26211         5.250           0.219
 96  4  3 19  9 59.9990000  0  7 02 07 15 19 26 27 31
  21016356.979    -1439739.346 7  -1062691.263 3        25.250           2.688
  21395218.894    -2755311.272 6  -2032525.604 2        19.750           2.063
  23559467.487    -2046547.003 5  -1508919.565 1         9.250           0.406
  21453217.667     -135893.934 7    -98929.038 2        20.000           1.594
  23676446.440    -2567113.612 5  -1893457.597 1        10.500           0.438
  19977774.378    -1224435.158 7   -901806.354 2        23.750           2.469
  24963368.081      831504.736 3     34119.840 1         5.750           0.125
 96  4  3 19 10 29.9990000  0  7 02 07 15 19 26 27 31
  21002108.409    -1514613.660 7  -1121034.873 3        25.000           2.719
  21368149.729    -2897555.780 6  -2143365.447 2        19.500           2.063
  23539618.300    -2150832.893 5  -1590181.264 1         9.500           0.406
  21452346.534     -140470.800 7   -102495.454 2        20.250           1.594
  23651323.222    -2699134.800 5  -1996331.226 1        10.250           0.438
  19966198.917    -1285271.789 7   -949211.514 2        23.750           2.375
  24971701.472      875328.367 3                         5.250
 96  4  3 19 10 59.9990000  0  7 02 07 15 19 26 27 31
  20987885.823    -1589353.296 7  -1179273.538 3        25.500           2.594
  21341144.229    -3039472.922 7  -2253950.201 2        20.000           1.969
  23519850.003    -2254733.159 5  -1671142.459 1         9.500           0.500
  21451524.839     -144788.433 6   -105859.861 2        19.750           1.594
  23626265.784    -2830806.347 5  -2098932.396 1        10.500           0.469
  19954695.659    -1345725.242 7   -996318.102 2        24.000           2.406
  24980048.651      919179.475 2                         4.750
 96  4  3 19 11 29.9990000  0  6 02 07 15 19 26 27
  20973688.831    -1663974.003 7  -1237419.534 3        25.500           2.688
  21314204.354    -3181044.524 6  -2364265.700 2        19.750           2.156
  23500154.933    -2358244.054 5  -1751800.252 1         9.500           0.438
  21450756.104     -148831.127 6   -109010.038 2        19.750           1.563
  23601278.597    -2962129.944 5  -2201262.437 1        10.500           0.531
  19943264.659    -1405777.973 7  -1043112.437 3        24.000           2.531
 96  4  3 19 11 59.9990000  0  6 02 07 15 19 26 27
  20959505.683    -1738498.082 7  -1295490.232 3        25.750           2.688
  21287332.776    -3322249.118 6  -2474295.213 2        19.500           2.156
  23480528.479    -2461357.215 5  -1832148.136 1         9.500           0.406
  21450043.589     -152576.107 7   -111928.217 2        20.000           1.563
  23576351.456    -3093105.228 5  -2303321.065 1        10.250           0.406
  19931919.222    -1465411.451 7  -1089580.078 2        24.500           2.375
 96  4  3 19 12 29.9990000  0  6 02 07 15 19 26 27
  20945338.175    -1812945.116 7  -1353500.898 3        25.500           2.656
  21260528.956    -3463112.459 6  -2584058.820 2        19.750           2.219
  23460986.980    -2564074.176 5  -1912187.288 1         9.500           0.438
  21449387.378     -156023.472 6   -114614.512 2        19.750           1.563
  23551493.065    -3223741.010 5  -2405115.154 1        10.250           0.469
  19920650.917    -1524634.430 7  -1135727.848 3        24.000           2.500
 96  4  3 19 12 59.9990000  0  6 02 07 15 19 26 27
  20931188.870    -1887309.097 7  -1411446.845 3        25.500           2.688
  21233784.792    -3603651.977 7  -2693570.094 2        20.000           2.219
  23441516.175    -2666391.510 5  -1991915.044 1         9.250           0.406
  21448783.300     -159184.061 6   -117077.326 2        19.750           1.625
  23526699.604    -3354031.645 5  -2506640.289 1        10.500           0.500
  19909459.972    -1583438.919 7  -1181549.527 2        24.250           2.469
 96  4  3 19 13 29.9990000  0  6 02 07 15 19 26 27
  20917053.167    -1961594.522 7  -1469331.584 3        25.000           2.625
  21207103.628    -3743871.423 7  -2802831.964 2        20.500           2.313
  23422120.214    -2768303.407 5  -2071326.875 1         8.500           0.344
  21448237.823     -162056.402 6   -119315.532 2        19.750           1.563
  23501974.433    -3483961.999 5  -2607884.694 1        10.250           0.438
  19898343.339    -1641839.772 7  -1227056.678 3        24.000           2.531
 96  4  3 19 13 59.9990000  0  6 02 07 15 19 26 27
  20902932.737    -2035789.415 7  -1527145.775 3        25.250           2.750
  21180478.229    -3883782.948 7  -2911853.893 2        20.500           2.344
  23402806.417    -2869805.518 5  -2150419.412 1         9.500           0.469
  21447746.839     -164648.026 6   -121335.001 2        19.500           1.594
  23477319.862    -3613514.309 5  -2708834.504 1        10.500           0.469
  19887307.558    -1699850.341 7  -1272259.711 3        24.250           2.531
 96  4  3 19 14 29.9990000  0  6 02 07 15 19 26 27
  20888835.933    -2109870.154 7  -1584871.009 3        25.250           2.563
  21153913.425    -4023376.671 7  -3020628.186 2        20.000           2.250
  23383569.769    -2970884.176 5  -2229181.977 1         9.500           0.344
  21447307.011     -166964.147 6   -123139.788 2        19.500           1.563
  23452746.003    -3742663.996 5  -2809470.599 1        10.250           0.469
  19876344.792    -1757455.774 7  -1317147.056 2        24.000           2.469
 96  4  3 19 14 59.9990000  0  6 02 07 15 19 26 27
  20874760.511    -2183848.046 7  -1642516.111 3        25.250           2.719
  21127413.019    -4162634.955 7  -3129141.095 2        20.250           2.281
  23364414.675    -3071549.670 5  -2307622.589 1         9.500           0.469
  21446914.120     -169012.753 6   -124736.129 2        19.500           1.531
  23428243.690    -3871417.079 5  -2909797.630 1        10.250           0.500
  19865455.558    -1814674.900 7  -1361733.386 2        24.000           2.469
 96  4  3 19 15 29.9990000  0  6 02 07 15 19 26 27
  20860701.589    -2257724.799 7  -1700082.402 3        25.250           2.594
  21100981.526    -4301536.513 7  -3237376.036 2        20.250           2.313
  23345339.847    -3171800.055 5  -2385739.744 1        10.000           0.375
  21446581.894     -170761.633 6   -126098.909 2        19.500           1.531
  23403820.589    -3999770.636 5  -3009813.359 1        10.750           0.469
  19854640.237    -1871507.384 7  -1406018.429 3        24.000           2.500
 96  4  3 19 15 59.9990000  0  6 02 07 15 19 26 27
  20846665.104    -2331476.512 7  -1757551.254 3        25.500           2.750
  21074618.729    -4440076.782 7  -3345329.456 3        20.000           2.563
  23326339.331    -3271627.018 5  -2463526.951 1         9.750           0.438
  21446309.175     -172196.992 6   -127217.389 1        19.250           1.469
  23379471.495    -4127720.745 5  -3109514.697 1        10.500           0.563
  19843907.526    -1927921.393 7  -1449977.385 2        24.000           2.406
 96  4  3 19 16 29.9990000  0  6 02 07 15 19 26 27
  20832657.612    -2405105.460 7  -1814924.453 3        25.750           2.719
  21048321.479    -4578260.678 7  -3453005.185 2        20.500           2.406
  23307420.800    -3371035.728 5  -2540988.252 1         9.750           0.438
  21446096.378     -173322.275 6   -128094.254 2        19.000           1.625
  23355192.519    -4255296.780 5  -3208924.579 1        10.750           0.625
  19833248.901    -1983918.242 7  -1493611.288 3        23.750           2.563
 96  4  3 19 16 59.9990000  0  6 02 07 15 19 26 27
  20818666.472    -2478606.878 7  -1872198.276 3        25.000           2.656
  21022095.581    -4716086.438 7  -3560401.841 3        20.250           2.500
  23288590.659    -3470020.593 5  -2618119.292 1         9.750           0.406
  21445942.534     -174129.733 6   -128723.450 2        18.750           1.594
  23330987.308    -4382506.529 5  -3308049.010 1        11.250           0.469
  19822675.425    -2039496.493 7  -1536919.014 3        23.500           2.500
 96  4  3 19 17 29.9980000  0  6 02 07 15 19 26 27
  20804706.568    -2551967.598 7  -1929362.462 3        25.250           2.688
  20995934.990    -4853556.330 7  -3667521.203 3        20.750           2.500
  23269833.764    -3568582.675 5  -2694920.890 1        10.000           0.438
  21445848.529     -174632.656 6   -129115.363 2        19.000           1.531
  23306849.615    -4509351.844 5  -3406889.496 1        10.750           0.469
  19812180.873    -2094645.079 7  -1579891.937 3        23.750           2.531
 96  4  3 19 17 59.9980000  0  6 02 07 15 19 26 27
  20790774.443    -2625186.159 7  -1986415.872 3        25.250           2.688
  20969844.389    -4990670.486 7  -3774363.371 3        20.750           2.563
  23251155.553    -3666719.812 5  -2771391.350 1        10.000           0.375
  21445805.857     -174848.546 6                        18.750
  23282778.951    -4635842.058 5  -3505453.270 1        11.000           0.406
  19801766.982    -2149368.407 7  -1622533.482 3        23.500           2.656
 96  4  3 19 18 29.9980000  0  6 02 07 15 19 26 27
  20776863.381    -2698287.324 7  -2043377.807 3        25.500           2.813
  20943822.342    -5127408.018 7  -3880912.063 3        20.750           2.563
  23232561.232    -3764427.388 5  -2847527.078 1         9.750           0.375
  21445817.107     -174782.279 6                        18.250
  23258780.451    -4761966.397 5  -3603731.946 1        11.000           0.438
  19791433.170    -2203676.289 7  -1664851.316 3        23.750           2.563
 96  4  3 19 18 59.9980000  0  6 02 07 15 19 26 27
  20762979.115    -2771267.322 7  -2100245.325 3        25.250           2.781
  20917878.428    -5263751.204 7  -3987153.478 3        21.250           2.531
  23214055.318    -3861691.840 5  -2923317.530 1         9.750           0.406
  21445881.654     -174435.535 6                        18.500
  23234854.029    -4887688.315 5  -3701697.040 1        10.500           0.406
  19781178.709    -2257545.584 7  -1706827.395 3        23.750           2.500
 96  4  3 19 19 29.9980000  0  6 02 07 15 19 26 27
  20749106.811    -2844147.333 7  -2157034.934 3        25.250           2.813
  20892003.592    -5399718.118 7  -4093101.685 3        21.000           2.688
  23195628.818    -3958521.314 5  -2998769.054 1         9.500           0.500
  21445999.365     -173822.821 6   -128484.424 2        18.250           1.625
  23211008.662    -5013012.589 5  -3799352.297 1        11.000           0.500
  19771013.350    -2310983.063 7  -1748466.985 3        23.500           2.531
 96  4  3 19 19 59.9980000  0  6 02 07 15 19 26 27
  20735253.623    -2916948.219 7  -2213762.882 3        25.500           2.813
  20866199.756    -5535326.106 7  -4198770.207 3        21.250           2.688
  23177287.748    -4054911.442 5  -3073878.210 1         9.750           0.500
  21446167.545     -172952.253 6   -127806.087 2        18.250           1.594
  23187236.061    -5137938.107 5  -3896696.815 1        11.000           0.469
  19760927.404    -2363986.461 7  -1789768.339 3        23.500           2.563
 96  4  3 19 20 29.9980000  0  6 02 07 15 19 26 27
  20721414.795    -2989672.315 7  -2270430.994 3        25.750           2.813
  20840459.100    -5670595.657 7  -4304175.025 3        21.000           2.656
  23159026.865    -4150866.434 5  -3148648.298 1         9.750           0.438
  21446380.678     -171826.636 6   -126929.008 2        18.000           1.531
  23163540.201    -5262454.070 5  -3993722.216 1        10.750           0.469
  19750925.084    -2416550.381 7  -1830727.236 3        23.750           2.500
 96  4  3 19 20 59.9980000  0  6 02 07 15 19 26 27
  20707598.787    -3062289.352 7  -2327015.687 3        25.750           2.844
  20814780.068    -5805532.017 7  -4409320.201 3        21.000           2.656
  23140855.646    -4246382.423 5  -3223076.310 1         9.750           0.406
  21446646.654     -170437.898 6   -125846.902 2        18.250           1.531
  23139922.857    -5386566.432 5  -4090433.115 1        10.750           0.469
  19741002.225    -2468678.106 7  -1871346.254 2        23.500           2.438
 96  4  3 19 21 29.9980000  0  6 02 07 15 19 26 27
  20693798.803    -3134800.175 7  -2383517.615 3        25.500           2.750
  20789165.428    -5940135.927 7  -4514206.328 3        21.000           2.719
  23122760.842    -4341460.404 5  -3297163.026 1         9.500           0.438
  21446960.764     -168768.976 6   -124546.471 2        18.500           1.563
  23116377.709    -5510288.831 5  -4186840.141 1        11.000           0.500
  19731166.162    -2520382.331 7  -1911635.255 2        23.500           2.469
 96  4  3 19 21 59.9980000  0  6 02 07 15 19 26 27
  20680029.607    -3207168.191 7  -2439908.263 3        25.250           2.813
  20763619.092    -6074382.270 7  -4618813.835 3        21.000           2.875
  23104753.045    -4436084.235 5  -3370895.837 1         9.250           0.375
  21447338.631     -166797.843 6   -123010.549 2        18.500           1.500
  23092912.357    -5633599.290 5  -4282926.198 1        11.000           0.500
  19721407.115    -2571649.153 7  -1951583.437 3        23.750           2.594
 96  4  3 19 22 29.9980000  0  6 02 07 15 19 26 27
  20666284.732    -3279395.546 7  -2496189.303 3        25.500           2.781
  20738141.834    -6208267.854 7  -4723140.233 3        21.000           2.781
  23086827.584    -4530261.763 5  -3444280.892 1         9.000           0.438
  21447770.334     -164522.567 6   -121237.633 2        18.750           1.500
  23069524.389    -5756499.245 5  -4378692.360 1        11.250           0.531
  19711730.818    -2622496.421 7  -1991204.692 3        24.000           2.500
 96  4  3 19 22 59.9980000  0  6 02 07 15 19 26 27
  20652564.076    -3351497.276 7  -2552372.454 3        25.500           2.750
  20712736.490    -6341781.158 7  -4827176.541 3        20.750           2.719
  23068994.490    -4623985.383 5  -3517312.244 1         9.250           0.406
  21448262.920     -161941.617 6   -119226.531 1        18.750           1.469
  23046214.662    -5878991.615 5  -4474140.925 1        11.250           0.531
  19702135.904    -2672915.490 7  -2030492.282 3        24.000           2.594
 96  4  3 19 23 29.9980000  0  6 02 07 15 19 26 27
  20638860.451    -3423495.432 7  -2608474.900 3        25.500           2.781
  20687399.740    -6474926.574 7  -4930926.185 3        21.000           2.781
  23051248.897    -4717253.244 5  -3589988.461 1         9.000           0.375
  21448811.725     -159059.178 6   -116980.501 1        18.500           1.406
  23022982.803    -6001069.968 5  -4569266.885 1        11.250           0.313
  19692628.498    -2722898.139 7  -2069439.805 2        24.000           2.406
 96  4  3 19 23 59.9980000  0  6 02 07 15 19 26 27
  20625179.584    -3495399.269 7  -2664503.854 3        25.500           2.781
  20662132.506    -6607702.957 7  -5034388.267 3        20.750           2.875
  23033591.084    -4810063.873 5  -3662308.382 1         9.500           0.406
  21449410.975     -155895.324 6   -114515.184 1        18.250           1.469
  22999836.553    -6122727.043 5  -4664064.564 1        11.000           0.563
  19683195.803    -2772450.038 7  -2108051.685 3        23.750           2.531
 96  4  3 19 24 29.9980000  0  6 02 07 15 19 26 27
  20611507.561    -3567241.549 7  -2720484.837 3        26.000           2.844
  20636935.795    -6740108.821 7  -5137561.629 3        21.000           2.781
  23016012.576    -4902420.501 5  -3734274.550 1         9.250           0.406
  21450064.373     -152460.428 6   -111838.682 1        18.000           1.438
  22976763.123    -6243970.512 5  -4758539.952 1        11.500           0.469
  19673850.701    -2821575.579 7  -2146331.327 3        24.000           2.563
 96  4  3 19 24 59.9980000  0  6 02 07 15 19 26 27
  20597850.334    -3639008.608 7  -2776407.211 3        26.000           2.813
  20611812.412    -6872134.857 7  -5240439.033 3        21.000           2.688
  22998524.209    -4994312.317 5  -3805878.518 1         9.500           0.438
  21450771.303     -148752.827 6   -108949.665 1        17.750           1.406
  22953769.139    -6364794.735 5  -4852688.671 1        11.000           0.625
  19664586.295    -2870260.969 7  -2184268.001 3        23.750           2.531
 96  4  3 19 25 29.9980000  0  6 02 07 15 19 26 27
  20584211.834    -3710683.594 7  -2832257.834 3        26.000           2.844
  20586760.553    -7003783.066 7  -5343022.022 3        21.000           2.844
  22981129.951    -5085745.200 5  -3877124.881 1         9.500           0.406
  21451526.795     -144782.654 6   -105856.043 1        17.750           1.375
  22930856.561    -6485199.504 5  -4946510.530 1        11.250           0.531
  19655400.639    -2918526.207 7  -2221877.279 3        24.250           2.563
 96  4  3 19 25 59.9980000  0  6 02 07 15 19 26 27
  20570590.537    -3782263.138 7  -2888034.092 3        25.750           2.781
  20561780.498    -7135055.300 7  -5445312.035 3        20.750           2.781
  22963811.045    -5176723.657 5  -3948017.138 1         9.500           0.531
  21452329.967     -140560.663 6   -102566.202 1        17.500           1.375
  22908025.084    -6605192.958 5  -5040011.877 1        11.750           0.594
  19646295.545    -2966371.378 7  -2259159.236 3        24.000           2.563
 96  4  3 19 26 29.9980000  0  6 02 07 15 19 26 27
  20556992.803    -3853721.604 7  -2943715.999 3        25.500           2.813
  20536874.350    -7265937.275 7  -5547297.962 3        20.750           2.813
  22946591.607    -5267231.289 5  -4018542.534 1         9.750           0.438
  21453183.787     -136067.637 6    -99065.175 1        17.750           1.375
  22885270.467    -6724763.293 6  -5133183.532 1        12.000           0.625
  19637274.201    -3013776.936 7  -2296098.635 3        24.000           2.563
 96  4  3 19 26 59.9980000  0  6 02 07 15 19 26 27
  20543422.014    -3925030.058 7  -2999281.019 3        25.500           2.875
  20512040.475    -7396441.145 7  -5648989.263 3        20.750           2.844
  22929456.451    -5357263.912 5  -4088697.786 1         9.500           0.313
  21454092.670     -131297.597 6    -95348.284 1        17.500           1.219
  22862596.654    -6843909.886 6  -5226024.998 1        12.000           0.594
  19628336.600    -3060749.265 7  -2332700.451 3        24.250           2.531
 96  4  3 19 27 29.9980000  0  6 02 07 15 19 26 27
  20529878.225    -3996199.274 7  -3054737.536 3        25.250           2.750
  20487275.959    -7526575.766 7  -5750392.831 3        20.750           2.813
  22912413.607    -5446830.676 5  -4158490.020 1        10.000           0.469
  21455051.764     -126254.542 6    -91418.671 1        17.500           1.313
  22840006.232    -6962638.419 5  -5318540.697 1        11.750           0.625
  19619479.193    -3107303.652 7  -2368976.593 2        24.000           2.406
 96  4  3 19 27 59.9980000  0  6 02 07 15 19 26 27
  20516365.334    -4067219.008 7  -3110077.582 3        25.500           2.844
  20462586.873    -7656325.434 7  -5851496.442 3        20.750           2.844
  22895462.592    -5535917.317 5  -4227908.157 1         9.750           0.375
  21456067.748     -120920.555 6    -87262.341 1        17.000           1.375
  22817491.709    -7080941.728 6  -5410725.061 1        12.000           0.594
  19610700.396    -3153422.404 7  -2404913.287 3        24.250           2.500
 96  4  3 19 28 29.9980000  0  6 02 07 15 19 26 27
  20502879.373    -4138092.476 7  -3165303.650 3        25.250           2.844
  20437967.217    -7785696.672 7  -5952305.166 3        20.750           2.813
  22878598.818    -5624526.158 5  -4296953.959 1         9.750           0.406
  21457136.186     -115295.114 6    -82878.908 1        17.250           1.250
  22795062.936    -7198810.508 6  -5502570.832 1        12.000           0.469
  19602004.600    -3199114.919 7  -2440517.840 3        24.000           2.625
 96  4  3 19 28 59.9980000  0  6 02 07 15 19 26 27
  20489416.420    -4208837.371 7  -3220429.532 3        25.500           2.813
  20413419.084    -7914693.933 7  -6052822.484 3        20.750           2.875
  22861827.623    -5712664.261 5  -4365632.969 1        10.000           0.500
  21458263.350     -109383.085 6    -78272.157 1        17.250           1.250
  22772715.389    -7316249.556 6  -5594081.748 1        12.000           0.500
  19593393.756    -3244377.556 7  -2475787.430 3        24.500           2.531
 96  4  3 19 29 29.9970000  0  6 02 07 15 19 26 27
  20475974.892    -4279463.443 7  -3275462.827 3        25.250           2.813
  20388952.423    -8043277.009 7  -6153017.060 3        21.000           2.906
  22845147.071    -5800318.725 5  -4433935.105 1        10.250           0.563
  21459442.939     -103182.395 6    -73440.483 1        17.000           1.281
  22750450.978    -7433243.774 6  -5685246.045 1        12.250           0.594
  19584867.704    -3289185.104 7  -2510702.402 3        24.250           2.563
 96  4  3 19 29 59.9970000  0  6 02 07 15 19 26 27
  20462558.103    -4349975.773 7  -3330407.487 3        25.500           2.781
  20364566.103    -8171426.785 7  -6252874.000 3        20.750           2.906
  22828561.548    -5887481.094 5  -4501853.792 1        10.000           0.375
  21460679.860      -96691.405 6    -68382.593 1        17.250           1.281
  22728270.642    -7549794.501 6  -5776064.755 1        12.000           0.656
  19576433.290    -3333515.146 7  -2545245.285 3        24.250           2.500
 96  4  3 19 30 29.9970000  0  6 02 07 15 19 26 27
  20449156.290    -4420406.217 7  -3385288.339 3        25.750           2.750
  20340260.048    -8299152.313 7  -6352400.357 3        20.750           2.938
  22812066.720    -5974166.392 5  -4569400.741 1        10.000           0.438
  21461964.431      -89930.158 6    -63114.114 1        17.000           1.250
  22706174.446    -7665920.992 6  -5866552.902 1        12.250           0.563
  19568083.056    -3377385.641 7  -2579430.085 3        24.500           2.531
 96  4  3 19 30 59.9970000  0  6 02 07 15 19 26 27
  20435769.118    -4490757.036 7  -3440107.151 3        25.500           2.781
  20316037.868    -8426443.727 7  -6451588.449 3        20.750           2.906
  22795660.657    -6060374.096 5  -4636575.538 1        10.250           0.469
  21463302.462      -82904.146 6    -57639.326 1        17.250           1.188
  22684151.251    -7781647.571 6  -5956729.433 1        12.250           0.563
  19559820.462    -3420800.949 7  -2613260.193 3        24.000           2.563
 96  4  3 19 31 29.9970000  0  6 02 07 15 19 26 27
  20422400.532    -4561013.912 7  -3494852.758 3        25.500           2.906
  20291897.048    -8553300.202 7  -6550437.625 3        21.000           2.906
  22779347.446    -6146088.195 5  -4703365.713 1         9.750           0.375
  21464690.431      -75608.588 6    -51954.496 1        17.000           1.188
  22662210.235    -7896963.362 6  -6046585.866 1        12.250           0.656
  19551646.064    -3463752.411 7  -2646728.864 3        24.250           2.563
 96  4  3 19 31 59.9970000  0  6 02 07 15 19 26 27
  20409051.978    -4631165.184 7  -3549516.074 3        25.500           2.844
  20267834.595    -8679755.545 7  -6648974.232 3        21.000           2.875
  22763129.884    -6231310.615 5  -4769772.773 1        10.000           0.500
  21466129.720      -68045.110 6    -46060.898 1        16.500           1.156
  22640340.399    -8011868.245 6  -6136122.121 1        12.000           0.594
  19543559.446    -3506251.145 7  -2679844.756 3        24.500           2.500
 96  4  3 19 32 29.9970000  0  6 02 07 15 19 26 27
  20395722.532    -4701208.236 7  -3604095.067 3        25.250           2.844
  20243840.485    -8805843.329 7  -6747224.427 3        21.250           2.906
  22747008.939    -6316045.218 5  -4835799.713 1        10.000           0.469
  21467620.657      -60205.208 6    -39951.915 1        16.500           1.188
  22618555.532    -8126362.468 6  -6225338.372 1        12.000           0.781
  19535555.743    -3548311.403 7  -2712618.980 2        24.250           2.469
 96  4  3 19 32 59.9970000  0  6 02 07 15 19 26 27
  20382413.048    -4771140.027 7  -3658587.356 3        25.250           2.844
  20219915.985    -8931568.459 7  -6845192.031 3        21.500           3.031
  22730975.681    -6400286.295 5  -4901442.079 1        10.250           0.375
  21469166.978      -52083.889 6    -33623.635 1        16.000           1.250
  22596850.196    -8240422.638 6  -6314216.393 1        12.000           0.625
  19527637.931    -3589927.649 7  -2745047.217 3        24.500           2.500
 96  4  3 19 33 29.9970000  0  6 02 07 15 19 26 27
  20369129.821    -4840956.818 7  -3712990.041 3        25.000           2.938
  20196059.392    -9056941.421 7  -6942885.223 3        21.500           2.906
  22715042.142    -6484033.466 5  -4966699.590 1        10.250           0.531
  21470765.110      -43680.016 6    -27075.178 1        16.000           1.125
  22575231.048    -8354025.570 6  -6402738.128 1        12.250           0.594
  19519801.884    -3631097.166 7  -2777127.356 2        24.250           2.438
 96  4  3 19 33 59.9970000  0  6 02 07 15 19 26 27
  20355864.517    -4910661.938 7  -3767305.706 3        24.750           2.906
  20172269.938    -9181951.228 7  -7040295.433 3        21.750           3.000
  22699200.939    -6567288.534 5  -5031573.640 1         9.750           0.344
  21472422.103      -34979.897 6    -20295.888 1        16.250           1.188
  22553703.540    -8467165.434 6  -6490899.042 1        12.250           0.594
  19512050.876    -3671830.556 7  -2808867.656 2        24.750           2.406
 96  4  3 19 34 29.9970000  0  6 02 07 15 19 26 27
  20342621.993    -4980253.515 7  -3821532.900 3        25.000           2.938
  20148554.821    -9306565.583 7  -7137397.502 3        21.500           3.000
  22683453.173    -6650034.588 5  -5096051.064 1         9.750           0.438
  21474136.642      -25969.477 6    -13274.802 1        16.500           1.156
  22532265.056    -8579818.499 6  -6578680.621 1        12.250           0.625
  19504387.329    -3712101.028 7  -2840247.243 2        24.750           2.375
 96  4  3 19 34 59.9970000  0  6 02 07 15 19 26 27
  20329400.548    -5049731.475 7  -3875671.558 3        25.000           2.875
  20124920.079    -9430772.919 7  -7234182.412 3        22.000           3.031
  22667801.938    -6732280.114 5  -5160138.461 1         9.500           0.375
  21475907.829      -16666.770 6     -6025.965 1        16.000           1.250
  22510917.923    -8691993.514 6  -6666089.689 1        12.250           0.563
  19496810.931    -3751914.956 7  -2871271.081 2        24.250           2.469
 96  4  3 19 35 29.9970000  0  6 02 07 15 19 26 27
  20316203.618    -5119074.909 7  -3929705.391 3        25.250           3.000
  20101363.267    -9554561.152 7  -7330640.749 3        21.750           3.031
  22652245.876    -6814018.965 5  -5223831.054 1         9.250           0.438
  21477731.196       -7082.097 6      1442.590 1        16.000           1.063
  22489663.532    -8803690.901 6  -6753126.575 1        12.250           0.594
  19489325.399    -3791263.983 7  -2901932.659 2        24.500           2.438
 96  4  3 19 35 59.9970000  0  6 02 07 15 19 26 27
  20303029.782    -5188302.611 7  -3983649.047 3        25.000           2.906
  20077888.110    -9677930.870 7  -7426772.972 3        22.000           2.969
  22636781.720    -6895264.308 5  -5287139.091 1         9.750           0.438
  21479604.384        2766.366 6      9116.684 1        15.750           1.188
  22468496.829    -8914928.021 6  -6839804.826 1        12.250           0.594
  19481922.642    -3830159.951 7  -2932241.209 2        24.750           2.438
 96  4  3 19 36 29.9970000  0  6 02 07 15 19 26 27
  20289882.681    -5257394.249 7  -4037486.677 3        25.000           2.938
  20054491.931    -9800876.453 7  -7522574.705 3        22.250           2.844
  22621420.431    -6976005.320 5  -5350054.147 1         9.750           0.406
  21481528.134       12875.810 6     16994.158 1        15.500           1.094
  22447415.399    -9025710.085 6  -6926128.486 1        12.250           0.438
  19474607.024    -3868594.783 7  -2962190.429 2        24.750           2.281
 96  4  3 19 36 59.9970000  0  6 02 07 15 19 26 27
  20276763.087    -5326339.255 7  -4091210.049 3        25.000           2.906
  20031174.134    -9923410.983 7  -7618056.131 3        22.250           3.031
  22606151.915    -7056240.897 5  -5412575.363 1        10.000           0.406
  21483501.251       23245.755 6     25074.608 1        15.250           1.094
  22426419.165    -9136043.185 6  -7012102.304 1        12.750           0.688
  19467379.970    -3906583.219 7  -2991791.811 2        24.750           2.469
 96  4  3 19 37 29.9970000  0  6 02 07 15 19 26 27
  20263667.837    -5395156.017 7  -4144833.487 3        25.250           2.969
  20007933.649   -10045545.290 7  -7713225.698 3        22.000           3.063
  22590977.946    -7135970.896 5  -5474702.611 1        10.000           0.469
  21485525.634       33874.210 6     33356.502 1        15.250           1.031
  22405510.009    -9245920.669 6  -7097721.107 1        12.500           0.594
  19460235.985    -3944125.708 7  -3021045.693 2        24.750           2.438
 96  4  3 19 37 59.9970000  0  6 02 07 15 19 26 27
  20250594.571    -5463858.746 7  -4198368.072 3        24.750           2.875
  19984767.188   -10167279.793 7  -7808083.729 3        22.000           3.031
  22575901.071    -7215189.473 5  -5536431.353 1         9.500           0.469
  21487599.079       44772.559 6     41848.688 1        15.000           1.094
  22384687.196    -9355345.195 6  -7182986.945 1        12.000           0.625
  19453175.259    -3981223.841 7  -3049953.340 2        24.250           2.469
 96  4  3 19 38 29.9970000  0  6 02 07 15 19 26 27
  20237540.438    -5532460.914 7  -4251824.295 3        25.000           2.875
  19961676.087   -10288628.432 7  -7902641.087 3        22.000           3.125
  22560927.415    -7293899.928 5  -5597764.158 1         9.500           0.531
  21489721.103       55933.857 6     50545.776 1        15.000           0.969
  22363951.181    -9464322.856 6  -7267904.560 1        12.500           0.688
  19446198.384    -4017883.075 7  -3078518.979 2        24.500           2.406
 96  4  3 19 38 59.9970000  0  6 02 07 15 19 26 27
  20224502.110    -5600975.015 7  -4305211.897 3        25.250           3.000
  19938660.790   -10409572.445 7  -7996883.149 3        22.000           3.219
  22546050.938    -7372100.326 5  -5658699.519 1        10.000           0.688
  21491895.853       67347.449 6     59439.460 1        15.000           1.188
  22343301.212    -9572833.540 6  -7352458.333 1        12.750           0.688
  19439307.532    -4054094.021 7  -3106735.309 3        24.250           2.594
 96  4  3 19 39 29.9970000  0  6 02 07 15 19 26 27
  20211479.259    -5669410.117 7  -4358537.937 3        25.250           2.906
  19915727.993   -10530085.404 7  -8090789.328 3        22.000           3.156
  22531258.860    -7449787.424 5  -5719234.892 1        10.000           0.563
  21494113.813       79010.472 6     68527.499 1        15.000           1.063
  22322740.767    -9680877.466 6  -7436648.376 1        12.750           0.688
  19432502.681    -4089853.905 7  -3134600.150 2        24.500           2.438
 96  4  3 19 39 59.9970000  0  6 02 07 15 19 26 27
  20198472.235    -5737751.600 7  -4411791.028 3        25.250           2.781
  19892880.837   -10650153.687 7  -8184349.004 3        22.250           3.094
  22516579.993    -7526960.378 5  -5779369.642 1        10.250           0.563
  21496380.353       90926.447 6     77812.646 1        14.500           1.031
  22302263.970    -9788471.824 6  -7520488.111 1        12.250           0.594
  19425787.689    -4125157.091 7  -3162109.137 2        24.250           2.469
 96  4  3 19 40 29.9970000  0  6 02 07 15 19 26 27
  20185488.103    -5805993.953 7  -4464966.877 3        25.250           2.875
  19870117.368   -10769775.116 7  -8277560.482 3        22.250           3.313
  22501989.204    -7603618.927 5  -5839103.557 1        10.250           0.563
  21498697.376      103098.507 6     87297.337 1        14.500           1.125
  22281875.454    -9895611.512 6  -7603973.549 1        12.500           0.656
  19419154.884    -4159993.868 7  -3189254.685 2        24.500           2.406
 96  4  3 19 40 59.9960000  0  6 02 07 15 19 26 27
  20172523.035    -5874122.766 7  -4518054.251 3        25.000           2.875
  19847441.910   -10888932.530 7  -8370410.397 3        22.250           3.250
  22487499.262    -7679756.370 5  -5898431.411 1        10.500           0.531
  21501063.145      115529.658 6     96983.913 1        14.750           1.063
  22261577.121   -10002283.594 6  -7687094.628 1        12.750           0.750
  19412616.465    -4194361.690 7  -3216034.816 2        24.500           2.438
 96  4  3 19 41 29.9960000  0  6 02 07 15 19 26 27
  20159579.645    -5942144.987 7  -4571058.566 3        25.000           2.906
  19824848.582   -11007660.342 7  -8462925.542 3        22.250           3.219
  22473107.254    -7755386.522 5  -5957363.969 1        10.000           0.688
  21503481.191      128231.806 6    106881.661 1        14.750           0.969
  22241362.480   -10108508.147 6  -7769866.976 1        12.500           0.813
  19406164.668    -4228269.385 7  -3242456.398 2        24.250           2.469
 96  4  3 19 41 59.9960000  0  6 02 07 15 19 26 27
  20146658.020    -6010044.209 7  -4623967.043 3        25.000           2.938
  19802336.371   -11125960.548 7  -8555107.498 3        22.250           3.188
  22458814.566    -7830497.218 5  -6015891.751 1        10.000           0.500
  21505950.152      141210.376 6    116994.801 1        14.500           0.938
  22221244.793   -10214257.213 6  -7852268.820 1        12.750           0.594
  19399802.434    -4261702.700 7  -3268508.344 2        24.750           2.438
 96  4  3 19 42 29.9960000  0  6 02 07 15 19 26 27
  20133762.129    -6077817.335 7  -4676777.263 3        25.250           2.906
  19779906.262   -11243831.849 7  -8646955.240 3        22.500           3.219
  22444626.387    -7905073.208 5  -6074002.880 1        10.250           0.375
  21508474.801      154471.029 6    127327.750 1        14.250           0.844
  22201215.145   -10319499.559 6  -7934275.820 1        12.750           0.563
  19393531.340    -4294662.960 7  -3294191.679 2        24.250           2.438
 96  4  3 19 42 59.9960000  0  6 02 07 15 19 26 27
  20120887.590    -6145469.118 7  -4729492.931 3        25.500           2.969
  19757555.270   -11361289.536 7  -8738480.687 3        22.250           3.188
  22430537.691    -7979123.474 5  -6131704.377 1        10.250           0.469
  21511047.676      167997.828 6    137868.086 1        14.250           0.875
  22181282.832   -10424245.604 6  -8015896.088 1        13.000           0.688
  19387343.856    -4327170.326 7  -3319522.104 3        24.250           2.500
 96  4  3 19 43 29.9960000  0  6 02 07 15 19 26 27
  20108033.652    -6213020.394 7  -4782130.280 3        25.500           3.031
  19735276.402   -11478364.456 7  -8829707.870 3        22.250           3.313
  22416539.895    -8052658.620 5  -6189004.439 1        10.000           0.469
  21513668.676      181777.203 6    148605.226 1        14.000           0.906
  22161438.785   -10528519.200 6  -8097148.212 1        13.000           0.656
  19381241.473    -4359236.214 7  -3344508.524 2        24.250           2.438
 96  4  3 19 43 59.9960000  0  6 02 07 15 19 26 27
  20095199.949    -6280455.516 7  -4834677.118 3        25.500           2.844
  19713075.949   -11595029.546 7  -8920615.706 3        22.250           3.125
  22402645.520    -8125656.106 5  -6245885.578 1         9.750           0.531
  21516343.691      195817.860 6    159545.960 1        14.250           0.906
  22141689.059   -10632316.624 6  -8178029.296 1        13.250           0.656
  19375228.043    -4390846.954 7  -3369140.278 3        24.250           2.500
 96  4  3 19 44 29.9960000  0  6 02 07 15 19 26 27
  20082388.059    -6347789.503 7  -4887145.150 3        25.500           2.844
  19690951.793   -11711295.597 7  -9011212.613 3        22.500           3.250
  22388860.402    -8198127.633 5  -6302356.868 1        10.000           0.500
  21519063.613      210121.940 6    170691.976 1        14.000           0.875
  22122019.066   -10735667.051 6  -8258562.078 1        13.000           0.625
  19369296.449    -4422009.435 7  -3393422.742 2        24.000           2.438
 96  4  3 19 44 59.9960000  0  6 02 07 15 19 26 27
  20069594.879    -6415012.894 7  -4939526.999 3        25.250           2.906
  19668903.371   -11827150.948 7  -9101489.482 3        22.500           3.219
  22375169.973    -8270067.825 5  -6358414.118 1        10.500           0.531
  21521838.090      224697.811 6    182049.762 1        13.500           0.906
  22102439.449   -10838561.868 6  -8338739.833 1        13.000           0.656
  19363455.473    -4452711.535 7  -3417346.468 3        24.250           2.563
 96  4  3 19 45 29.9960000  0  6 02 07 15 19 26 27
  20056823.715    -6482127.352 7  -4991823.974 3        25.250           2.750
  19646937.066   -11942596.516 7  -9191447.046 3        22.750           3.344
  22361576.145    -8341486.439 5  -6414064.946 1        10.500           0.469
  21524663.066      239545.667 6    193619.484 1        13.500           0.844
  22082943.746   -10941013.558 6  -8418572.296 1        13.250           0.688
  19357699.645    -4482960.030 7  -3440916.737 3        24.500           2.531
 96  4  3 19 45 59.9960000  0  6 02 07 15 19 26 27
  20044078.004    -6549104.631 7  -5044014.055 3        25.250           2.969
  19625049.598   -12057609.361 7  -9281067.418 3        22.500           3.281
  22348089.481    -8412372.047 5  -6469300.466 1        10.500           0.594
  21527542.246      254672.798 6    205406.832 1        13.500           0.813
  22063536.895   -11043002.320 6  -8498044.039 1        13.250           0.688
  19352032.754    -4512738.388 7  -3464120.659 3        24.250           2.500
 96  4  3 19 46 29.9960000  0  6 02 07 15 19 26 27
  20031361.559    -6615941.832 7  -5096094.981 3        25.250           2.969
  19603244.363   -12172190.846 7  -9370351.672 3        22.500           3.281
  22334699.215    -8482726.285 5  -6524121.908 1        10.750           0.625
  21530470.660      270063.408 6    217399.479 1        13.500           0.875
  22044219.645   -11144508.105 6  -8577139.438 1        13.750           0.781
  19346455.152    -4542043.653 7  -3486955.941 2        24.250           2.469
 96  4  3 19 46 59.9960000  0  6 02 07 15 19 26 27
  20018669.379    -6682630.033 7  -5148059.814 3        25.250           2.938
  19581523.731   -12286345.142 7  -9459303.050 3        22.250           3.313
  22321414.082    -8552550.152 5  -6578530.108 1        11.000           0.469
  21533445.223      285695.563 6    229580.346 1        13.500           0.875
  22024999.957   -11245525.058 6  -8655853.924 1        13.500           0.750
  19340967.981    -4570883.161 7  -3509428.294 3        24.000           2.594
 96  4  3 19 47 29.9960000  0  6 02 07 15 19 26 27
  20006008.246    -6749166.979 7  -5199906.768 3        25.000           2.906
  19559882.215   -12400061.534 7  -9547913.200 3        22.500           3.219
  22308228.770    -8621838.335 5  -6632520.857 1        11.000           0.563
  21536464.051      301563.589 6    241944.999 1        13.000           0.906
  22005868.059   -11346056.773 6  -8734190.310 1        13.500           0.656
  19335571.160    -4599247.446 7  -3531530.340 3        24.000           2.531
 96  4  3 19 47 59.9960000  0  6 02 07 15 19 26 27
  19993370.332    -6815570.512 7  -5251649.773 3        25.000           2.875
  19538327.387   -12513336.779 7  -9636179.603 3        22.250           3.156
  22295147.426    -8690587.474 5  -6686091.584 1        10.750           0.469
  21539525.066      317653.867 6    254482.838 1        13.250           0.750
  21986834.707   -11446085.229 6  -8812134.542 1        13.500           0.719
  19330263.488    -4627134.448 7  -3553260.483 2        23.750           2.438
 96  4  3 19 48 29.9960000  0  6 02 07 15 19 26 27
  19980760.606    -6881845.087 7  -5303292.291 3        25.250           2.906
  19516856.723   -12626165.809 7  -9724098.307 3        22.250           3.281
  22282170.652    -8758792.214 5  -6739238.126 1        10.500           0.563
  21542633.621      333975.398 6    267200.880 1        13.250           0.844
  21967893.285   -11545597.204 6  -8889676.322 1        13.500           0.781
  19325046.762    -4654545.157 7  -3574619.482 2        23.750           2.469
 96  4  3 19 48 59.9960000  0  6 02 07 15 19 26 27
  19968169.949    -6948002.991 7  -5354843.897 3        25.000           3.031
  19495468.887   -12738556.107 7  -9811675.139 3        22.500           3.219
  22269295.168    -8826462.372 5  -6791968.083 1        10.750           0.469
  21545785.168      350540.048 6    280108.368 1        13.250           0.813
  21949056.770   -11644602.109 6  -8966822.986 1        13.500           0.719
  19319918.527    -4681492.038 7  -3595617.061 3        23.750           2.594
 96  4  3 19 49 29.9960000  0  6 02 07 15 19 26 27
  19955603.191    -7014049.322 7  -5406308.572 3        25.000           2.938
  19474169.613   -12850491.118 7  -9898897.204 3        22.500           3.219
  22256515.434    -8893592.397 5  -6844277.174 1        10.500           0.906
  21548985.098      367361.662 6    293216.090 1        13.250           0.844
  21930318.527   -11743087.481 6  -9043564.817 1        14.000           0.719
  19314880.973    -4707970.033 7  -3616249.268 3        23.500           2.531
 96  4  3 19 49 59.9960000  0  6 02 07 15 19 26 27
  19943055.590    -7079986.599 7  -5457688.254 3        25.000           2.938
  19452952.816   -12961980.682 7  -9985772.161 3        22.500           3.188
  22243845.106    -8960181.624 5  -6896164.863 1        10.750           0.594
  21552236.543      384446.562 6    306528.962 1        13.000           0.750
  21911670.980   -11841054.209 6  -9119902.511 1        13.500           0.719
  19309932.832    -4733975.508 7  -3636513.283 3        23.750           2.500
 96  4  3 19 50 29.9960000  0  6 02 07 15 19 26 27
  19930528.254    -7145811.903 7                        25.000
  19431822.012   -13073028.294 7 -10072302.748 3        22.750           3.188
  22231276.129    -9026227.465 5                        10.750
  21555539.660      401802.318 6    320052.902 1        13.000           0.781
  21893125.988   -11938513.766 6  -9195845.014 1        13.500           0.719
  19305073.770    -4759502.237 7  -3656404.245 2        23.500           2.469
 96  4  3 19 50 59.9960000  0  6 02 07 15 19 26 27
  19918020.004    -7211542.260 7  -5560199.146 3        25.250           2.906
  19410772.410   -13183644.545 7 -10158497.210 3        22.750           3.219
  22218812.543    -9091739.594 5  -6998677.528 1        11.250           0.531
  21558891.926      419414.236 6    333776.438 1        12.500           0.688
  21874671.496   -12035488.880 6  -9271410.023 1        13.750           0.719
  19300304.809    -4784566.729 7  -3675935.027 2        23.750           2.438
 96  4  3 19 51 29.9960000  0  6 02 07 15 19 26 27
  19905533.871    -7277172.641 7  -5611339.692 3        25.500           2.906
  19389805.520   -13293829.729 7 -10244355.770 3        22.750           3.188
  22206446.660    -9156708.528 5  -7049302.645 1        11.250           0.500
  21562292.066      437284.140 6    347700.989 1        12.250           0.781
  21856304.215   -12131997.343 6  -9346611.415 1        14.250           0.688
  19295623.441    -4809169.008 7  -3695105.636 2        23.750           2.469
 96  4  3 19 51 59.9960000  0  6 02 07 15 19 26 27
  19893059.535    -7342714.821 7  -5662411.515 3        25.250           2.938
  19368918.152   -13403597.417 7 -10329889.010 3        23.000           3.188
  22194187.652    -9221138.819 5  -7099508.052 1        11.250           0.625
  21565740.871      455401.272 6    361818.197 1        12.250           0.750
  21838028.520   -12228053.575 6  -9421460.413 1        14.250           0.656
  19291027.145    -4833315.460 7  -3713921.067 3        23.500           2.531
 96  4  3 19 52 29.9950000  0  6 02 07 15 19 26 27
  19880609.233    -7408140.014 7  -5713392.179 3        25.250           2.906
  19348113.108   -13512917.783 7 -10415073.693 3        23.000           3.094
  22182034.077    -9285008.756 5  -7149276.815 1        11.250           0.563
  21569238.218      473786.062 6    376143.965 1        12.000           0.813
  21819845.585   -12323624.298 6  -9495931.100 1        14.250           0.719
  19286518.944    -4857009.593 7  -3732384.035 3        23.500           2.531
 96  4  3 19 52 59.9950000  0  6 02 07 15 19 26 27
  19868178.116    -7473465.215 7  -5764294.926 3        25.250           2.906
  19327390.015   -13621812.463 7 -10499926.664 3        22.750           3.188
  22169979.054    -9348343.360 5  -7198628.433 1        11.500           0.531
  21572783.952      492414.992 6    390659.974 1        12.000           0.750
  21801746.507   -12418726.649 6  -9570036.817 1        14.000           0.781
  19282091.421    -4880281.867 7  -3750518.280 3        24.000           2.563
 96  4  3 19 53 29.9950000  0  6 02 07 15 19 26 27
  19855769.358    -7538678.538 7  -5815110.494 3        25.000           2.938
  19306753.124   -13730266.852 7 -10584436.558 3        22.750           3.188
  22158034.069    -9411131.955 5  -7247554.582 1        11.250           0.625
  21576372.421      511282.013 6    405361.516 1        12.000           0.719
  21783741.538   -12513337.414 6  -9643759.483 1        14.000           0.656
  19277748.226    -4903105.986 7  -3768303.314 3        24.250           2.500
 96  4  3 19 53 59.9950000  0  7 02 07 15 19 26 27 04
  19843380.226    -7603775.493 7  -5865835.397 3        25.250           3.000
  19286199.132   -13838267.262 7 -10668592.697 3        22.750           3.031
  22146186.632    -9473373.121 5  -7296054.170 1        11.000           0.594
  21580006.640      530377.279 6    420240.898 1        12.000           0.719
  21765839.429   -12607421.593 6  -9717071.817 1        14.000           0.688
  19273494.202    -4925468.850 7  -3785728.927 2        24.000           2.375
  23850071.741          -0.21813                         6.000
 96  4  3 19 54 29.9950000  0  7 02 07 15 19 26 27 04
  19831017.960    -7668741.048 7  -5916457.896 3        25.250           2.906
  19265739.319   -13945802.874 7 -10752386.661 3        23.000           3.063
  22134448.397    -9535067.438 5  -7344127.644 1        11.000           0.531
  21583686.530      549707.550 6    435303.397 1        12.000           0.781
  21748034.405   -12700979.010 6  -9789973.703 1        14.000           0.750
  19269324.124    -4947375.888 7  -3802799.354 2        23.750           2.438
  23818187.538     -167538.795 3                         5.500
 96  4  3 19 54 59.9950000  0  7 02 07 15 19 26 27 04
  19818680.226    -7733580.835 7  -5966982.397 3        25.000           3.000
  19245361.593   -14052878.545 7 -10835822.231 3        23.000           3.125
  22122810.593    -9596214.308 5  -7391774.538 1        11.250           0.469
  21587410.194      569272.247 5    450548.572 1        11.750           0.750
  21730328.671   -12794026.686 6  -9862478.371 1        14.000           0.781
  19265247.780    -4968800.366 7  -3819493.767 2        24.000           2.469
  23786274.069     -335250.483 3                         5.750
 96  4  3 19 55 29.9950000  0  7 02 07 15 19 26 27 04
  19806365.218    -7798289.057 7  -6017404.384 3        25.000           2.969
  19225073.968   -14159500.142 7 -10918903.973 3        23.000           3.156
  22111280.608    -9656815.066 5  -7438995.875 1        11.000           0.594
  21591178.780      589085.277 5    465987.253 1        11.500           0.781
  21712714.312   -12886584.743 6  -9934601.524 1        14.000           0.625
  19261260.358    -4989745.708 7  -3835814.820 2        24.000           2.406
  23754333.132     -503124.228 3                         5.750
 96  4  3 19 55 59.9950000  0  7 02 07 15 19 26 27 04
  19794079.530    -7862852.417 7  -6067713.489 3        25.000           2.938
  19204869.593   -14265671.993 7 -11001635.266 3        23.000           3.125
  22099854.546    -9716868.928 5  -7485791.081 1        11.000           0.500
  21594999.390      609171.990 5    481639.194 1        11.500           0.688
  21695196.327   -12978654.807 6 -10006344.428 1        14.500           0.719
  19257363.140    -5010225.780 7  -3851773.330 2        24.250           2.344
  23722360.413     -671135.177 3                         5.500
 96  4  3 19 56 29.9950000  0  7 02 07 15 19 26 27 04
  19781823.976    -7927262.130 7  -6117902.873 3        25.000           3.000
  19184747.819   -14371405.439 7 -11084024.945 3        23.000           3.094
  22088531.952    -9776369.711 5  -7532155.300 1        11.500           0.688
  21598876.749      629532.982 5    497504.848 1        11.250           0.719
  21677763.733   -13070253.279 6 -10077719.845 1        14.250           0.844
  19253556.108    -5030244.591 7  -3867372.421 2        24.250           2.344
  23690362.429     -839274.946 3        -0.02111         5.500           0.219
 96  4  3 19 56 59.9950000  0  7 02 07 15 19 26 27 04
  19769595.022    -7991522.741 7  -6167976.070 3        25.000           2.875
  19164709.780   -14476707.279 7 -11166078.303 3        23.250           3.094
  22077311.851    -9835312.640 5  -7578084.825 1        11.500           0.500
  21602799.405      650151.200 5    513570.948 1        11.500           0.750
  21660428.202   -13161374.629 6 -10148723.483 1        14.250           0.719
  19249833.343    -5049793.944 7  -3882605.695 2        23.750           2.344
  23658341.710    -1007547.492 3   -131121.399 1         5.750           0.094
 96  4  3 19 57 29.9950000  0  7 02 07 15 19 26 27 04
  19757396.976    -8055628.149 7  -6217928.334 3        25.000           2.938
  19144757.546   -14581572.908 7 -11247791.760 3        23.000           3.031
  22066202.757    -9893704.457 5  -7623584.927 1        11.500           0.563
  21606769.624      671005.056 5    529820.656 1        11.500           0.813
  21643174.898   -13252011.711 6 -10219349.771 1        14.250           0.813
  19246197.921    -5068900.688 7  -3897494.083 2        23.750           2.375
  23626296.460    -1175960.255 3   -262352.002 1         6.000           0.188
 96  4  3 19 57 59.9950000  0  7 02 07 15 19 26 27 04
  19745223.124    -8119595.198 7  -6267772.780 3        24.750           2.875
  19124884.733   -14685996.071 7 -11329160.435 3        23.000           2.969
  22055195.718    -9951543.767 5  -7668654.492 1        11.250           0.594
  21610777.983      692074.093 5    546238.040 1        11.500           0.656
  21626023.624   -13342144.695 6 -10289583.265 1        14.250           0.781
  19242648.483    -5087559.640 7  -3912033.540 3        23.750           2.500
  23594219.812    -1344521.464 3   -393698.324 1         5.750           0.094
 96  4  3 19 58 29.9950000  0  7 02 07 15 19 26 27 04
  19733073.624    -8183445.573 7  -6317526.313 3        24.750           2.938
  19105096.069   -14789981.911 7 -11410188.344 3        23.250           3.063
  22044288.515   -10008833.436 5  -7713295.775 1        11.250           0.531
  21614824.374      713338.409 5    562807.585 1        11.250           0.625
  21608970.554   -13431779.753 6 -10359428.759 1        14.250           0.750
  19239182.546    -5105767.262 7  -3926221.308 2        23.750           2.375
  23562111.296    -1513245.579 4   -525171.574 1         6.250           0.125
 96  4  3 19 58 59.9950000  0  7 02 07 15 19 26 27 04
  19720945.710    -8247175.494 7  -6367185.986 3        25.000           2.906
  19085394.116   -14893522.231 7 -11490869.089 3        23.500           3.094
  22033495.507   -10065568.148 5  -7757504.603 1        11.000           0.625
  21618914.913      734829.723 5    579554.014 1        11.500           0.531
  21592008.983   -13520893.519 6 -10428868.041 1        14.500           0.750
  19235807.569    -5123504.141 7  -3940042.272 2        23.750           2.469
  23529973.874    -1682126.321 4   -656766.831 1         6.250           0.188
 96  4  3 19 59 29.9950000  0  7 02 07 15 19 26 27 04
  19708841.280    -8310794.199 7  -6416759.001 3        25.000           2.781
  19065773.858   -14996618.261 7 -11571203.642 3        23.500           3.031
  22022807.382   -10121750.586 5  -7801283.105 1        11.250           0.594
  21623048.647      756557.519 5    596484.706 1        11.250           0.625
  21575151.569   -13609479.572 6 -10497896.122 1        14.250           0.781
  19232523.327    -5140765.033 7  -3953492.326 2        23.750           2.375
  23497805.577    -1851158.776 3   -788480.339 1         5.250           0.156
 96  4  3 19 59 59.9950000  0  7 02 07 15 19 26 27 04
  19696753.179    -8374309.934 7  -6466251.776 3        25.000           2.813
  19046238.187   -15099278.400 7 -11651198.534 3        23.750           3.094
  22012222.046   -10177376.875 5  -7844628.236 1        11.000           0.594
  21627229.194      778528.919 5    613605.236 1        11.000           0.688
  21558394.827   -13697537.648 6 -10566512.808 1        14.250           0.781
  19229331.601    -5157533.356 7  -3966558.567 2        24.000           2.344
  23465613.210    -2020337.250 3   -920307.600 1         5.000           0.188
 96  4  3 20  0 29.9950000  0  7 02 07 15 19 26 27 04
  19684690.757    -8437703.782 7  -6515649.576 3        25.250           2.938
  19026787.187   -15201501.544 7 -11730852.913 3        23.750           3.031
  22001740.585   -10232452.140 5  -7887543.991 1        11.250           0.531
  21631454.022      800737.886 5    630910.867 1        11.000           0.563
  21541734.804   -13785080.029 6 -10634727.632 1        14.250           0.813
  19226233.444    -5173816.421 7  -3979246.688 2        24.000           2.469
  23433391.616    -2189667.323 2  -1052252.984 1         4.500           0.094
 96  4  3 20  0 59.9950000  0  7 02 07 15 19 26 27 04
  19672652.546    -8500956.253 7  -6564937.210 3        25.500           2.875
  19007419.944   -15303271.232 7 -11810153.944 3        23.500           3.031
  21991366.733   -10286972.564 5  -7930027.410 1        11.250           0.438
  21635727.812      823185.707 5    648402.620 1        10.250           0.625
  21525178.163   -13872104.341 6 -10702538.774 1        14.250           0.813
  19223225.585    -5189623.867 7  -3991564.202 2        23.750           2.375
  23401142.054    -2359133.424 2  -1184304.350 1         4.000           0.188
 96  4  3 20  1 29.9950000  0  7 02 07 15 19 26 27 04
  19660639.741    -8564079.155 7  -6614123.880 3        25.250           2.875
  18988141.835   -15404582.442 7 -11889097.723 3        23.500           3.063
  21981095.140   -10340948.496 5  -7972086.549 1        11.250           0.469
  21640038.874      845837.925 5    666053.641 1        10.750           0.531
  21508712.780   -13958635.301 6 -10769965.483 1        14.250           0.781
  19220302.562    -5204979.237 7  -4003529.434 2        23.500           2.281
  23368868.413    -2528734.748 2  -1316461.037 1         4.750           0.219
 96  4  3 20  1 59.9950000  0  7 02 07 15 19 26 27 04
  19648658.796    -8627049.551 7  -6663191.720 3        25.250           2.906
  18968953.069   -15505421.297 7 -11967673.432 3        23.750           3.094
  21970927.593   -10394367.084 5  -8013711.388 1        10.750           0.594
  21644389.452      868702.738 5    683870.331 1        10.250           0.531
  21492339.233   -14044666.728 6 -10837002.959 1        14.250           0.813
  19217468.116    -5219881.957 7  -4015141.951 2        23.500           2.281
  23336571.913    -2698459.950 3  -1448714.297 1         5.250           0.219
 96  4  3 20  2 29.9950000  0  7 02 07 15 19 26 27 04
  19636701.601    -8689883.472 7  -6712153.213 3        25.250           2.906
  18949851.921   -15605795.872 7 -12045887.365 3        24.000           3.094
  21960864.608   -10447230.421 5  -8054903.580 1        10.500           0.625
  21648780.319      891786.861 5    701857.902 1        10.250           0.563
  21476063.187   -14130201.102 6 -10903653.104 1        15.000           0.719
  19214717.437    -5234335.422 7  -4026404.417 2        23.500           2.344
  23304251.257    -2868307.521 2  -1581062.930 1         4.250           0.094
 96  4  3 20  2 59.9950000  0  7 02 07 15 19 26 27 04
  19624765.101    -8752614.130 7  -6761034.242 3        25.250           2.906
  18930835.429   -15705726.989 7 -12123755.745 3        23.750           2.906
  21950913.327   -10499542.287 5  -8095666.049 1        10.750           0.656
  21653217.968      915097.468 5    720021.960 1        10.500           0.563
  21459879.765   -14215242.334 6 -10969918.994 1        14.250           0.719
  19212054.077    -5248329.498 7  -4037308.905 2        23.250           2.313
  23271906.718    -3038269.372 2  -1713500.541 1         4.250           0.156
 96  4  3 20  3 29.9950000  0  7 02 07 15 19 26 27 04
  19612848.952    -8815235.084 7  -6809829.786 3        25.500           3.094
  18911904.772   -15805216.830 7 -12201280.274 3        23.750           2.938
  21941063.429   -10551298.310 5  -8135995.417 1        10.750           0.594
  21657700.085      938639.246 5    738366.147 1        10.000           0.531
  21443790.741   -14299780.871 6 -11035793.169 1        14.750           0.750
  19209481.405    -5261844.969 7  -4047840.459 2        23.000           2.250
  23239537.358    -3208345.559 2  -1846027.274 1         4.750           0.250
 96  4  3 20  3 59.9940000  0  7 02 07 15 19 26 27 04
  19600952.424    -8877745.731 7  -6858539.378 3        25.250           2.938
  18893053.213   -15904279.004 7 -12278471.560 3        24.250           3.063
  21931322.174   -10602500.789 5  -8175893.432 1        10.750           0.656
  21662220.877      962409.341 5    756888.240 1         9.500           0.563
  21427799.877   -14383813.359 6 -11101273.025 1        14.750           0.719
  19207000.041    -5274886.045 7  -4058002.350 2        23.000           2.188
  23207157.463    -3378535.419 3  -1978642.549 1         5.500           0.125
 96  4  3 20  4 29.9940000  0  7 02 07 15 19 26 27 04
  19589077.775    -8940152.342 7  -6907167.909 3        25.250           3.063
  18874280.205   -16002919.174 7 -12355334.008 3        23.750           3.063
  21921681.807   -10653155.283 5  -8215364.457 1        10.250           0.594
  21666789.049      986411.161 5    775590.902 1        10.000           0.531
  21411908.572   -14467349.840 6 -11166366.379 1        14.750           0.781
  19204608.471    -5287458.338 7  -4067798.959 2        22.750           2.344
  23174743.400    -3548848.407 4  -2111353.868 1         6.250           0.219
 96  4  3 20  4 59.9940000  0  7 02 07 15 19 26 27 04
  19577228.877    -9002425.904 7  -6955692.760 3        25.250           2.875
  18855596.158   -16101110.173 7 -12431846.450 3        24.000           3.063
  21912146.346   -10703251.811 5  -8254400.699 1        10.500           0.625
  21671399.494     1010635.394 5    794466.863 1         9.750           0.500
  21396103.775   -14550378.731 6 -11231064.209 1        14.750           0.813
  19202302.236    -5299573.030 7  -4077238.998 2        22.750           2.250
  23142316.143    -3719263.739 3  -2244144.891 1         6.000           0.125
 96  4  3 20  5 29.9940000  0  7 02 07 15 19 26 27 04
  19565404.127    -9064554.585 7  -7004104.713 3        25.500           2.969
  18836998.322   -16198844.849 7 -12508003.321 3        24.000           3.094
  21902724.689   -10752789.050 5  -8293001.145 1        10.750           0.656
  21676048.010     1035068.019 5    813505.217 1         9.250           0.500
  21380402.908   -14632899.836 6 -11295366.364 1        14.750           0.719
  19200079.783    -5311258.782 7  -4086344.803 2        22.750           2.344
  23109868.908    -3889785.336 4  -2377018.714 1         6.250           0.125
 96  4  3 20  5 59.9940000  0  7 02 07 15 19 26 27 04
  19553604.893    -9126557.302 7  -7052418.517 3        25.500           3.000
  18818485.979   -16296126.460 7 -12583807.155 3        24.250           3.000
  21893400.213   -10801772.852 5  -8331170.327 1        10.250           0.656
  21680733.619     1059699.973 5    832698.893 1         8.750           0.500
  21364793.799   -14714925.879 6 -11359282.761 1        14.750           0.938
  19197934.393    -5322534.099 7  -4095130.782 2        22.500           2.281
  23077397.369    -4060426.452 4  -2509985.732 1         6.500           0.125
 96  4  3 20  6 29.9940000  0  7 02 07 15 19 26 27 04
  19541830.627    -9188440.682 7  -7100639.332 3        25.750           2.938
  18800060.002   -16392950.777 7 -12659254.653 3        24.250           3.094
  21884185.346   -10850200.394 5  -8368906.071 1        10.000           0.531
  21685459.174     1084529.064 5    852046.174 1         9.000           0.438
  21349277.705   -14796447.514 6 -11422806.102 1        14.500           0.781
  19195868.940    -5333393.006 7  -4103592.284 2        22.500           2.344
  23044899.205    -4231187.476 4  -2643046.109 1         6.250           0.031
 96  4  3 20  6 59.9940000  0  7 02 07 15 19 26 27 04
  19530072.596    -9250215.686 7  -7148775.697 3        26.000           3.000
  18781721.627   -16489330.347 7 -12734355.597 3        24.250           3.125
  21875077.322   -10898078.949 5  -8406214.029 1        10.750           0.594
  21690221.361     1109545.936 5    871539.785 1         9.250           0.406
  21333863.440   -14877467.328 6 -11485938.426 1        14.750           0.813
  19193879.104    -5343833.547 7  -4111727.799 2        22.000           2.313
  23012382.955    -4402073.152 4  -2776203.598 1         6.750           0.156
 96  4  3 20  7 29.9940000  0  7 02 07 15 19 26 27 04
  19518335.557    -9311893.554 7  -7196836.369 3        25.750           2.938
  18763463.072   -16585281.839 7 -12809122.970 3        24.250           3.063
  21866069.604   -10945418.935 5  -8443102.325 1        10.500           0.594
  21695016.682     1134747.533 5    891177.349 1         9.250           0.500
  21318537.025   -14957991.383 6 -11548684.434 1        14.750           0.781
  19191974.697    -5353841.522 7  -4119526.242 2        22.250           2.281
  22979838.400    -4573096.363 4  -2909468.279 1         6.500           0.094
 96  4  3 20  7 59.9940000  0  7 02 07 15 19 26 27 04
  19506624.455    -9373445.227 7  -7244798.715 3        25.750           2.844
  18745287.963   -16680784.897 7 -12883540.920 3        24.000           2.875
  21857162.072   -10992199.097 5  -8479554.389 1        10.250           0.531
  21699853.072     1160167.956 5    910985.409 1         9.750           0.375
  21303315.705   -15037984.371 6 -11611016.627 1        14.250           0.844
  19190163.674    -5363362.775 7  -4126945.427 2        22.250           2.313
  22947271.643    -4744224.697 4  -3042814.937 1         6.500           0.125
 96  4  3 20  8 29.9940000  0  7 02 07 15 19 26 27 04
  19494933.330    -9434872.690 7  -7292664.265 3        25.500           2.875
  18727199.588   -16775844.553 7 -12957613.358 3        24.250           2.906
  21848369.049   -11038423.464 5  -8515573.353 1        10.750           0.438
  21704732.697     1185805.719 5    930962.830 1         9.750           0.438
  21288197.369   -15117450.676 6 -11672938.419 1        14.250           0.875
  19188447.182    -5372391.334 7  -4133980.691 2        22.000           2.250
  22914693.627    -4915442.262 4                         6.750
 96  4  3 20  8 59.9940000  0  7 02 07 15 19 26 27 04
  19483273.877    -9496162.965 7  -7340422.913 3        25.750           2.844
  18709192.291   -16870458.326 7 -13031338.356 3        24.250           3.000
  21839677.143   -11084090.118 5  -8551157.737 1        10.500           0.625
  21709654.768     1211672.114 5    951118.413 1         9.500           0.469
  21273170.822   -15196399.186 6 -11734456.733 1        14.500           0.813
  19186824.627    -5380918.376 7  -4140625.159 2        21.750           2.375
  22882097.986    -5086731.758 4                         7.250
 96  4  3 20  9 29.9940000  0  7 02 07 15 19 26 27 04
  19471639.346    -9557289.841 7  -7388054.242 3        25.500           2.844
  18691277.721   -16964610.105 7 -13104703.369 3        24.250           2.969
  21831098.924   -11129188.469 5  -8586299.307 1        10.500           0.625
  21714624.893     1237777.880 5    971460.509 1         9.250           0.469
  21258249.252   -15274818.628 6 -11795562.788 1        14.250           0.875
  19185295.525    -5388943.230 7  -4146878.312 2        22.000           2.313
  22849492.260    -5258071.340 4                         7.000
 96  4  3 20  9 59.9940000  0  7 02 07 15 19 26 27 04
  19460039.986    -9618254.991 7  -7435559.552 3        25.500           2.906
  18673447.885   -17058305.919 7 -13177713.067 3        24.250           2.969
  21822620.565   -11173729.022 5  -8621006.202 1        10.500           0.688
  21719631.502     1264110.470 5    991979.351 1         9.250           0.438
  21243421.955   -15352723.695 6 -11856268.033 1        14.250           0.875
  19183860.713    -5396491.171 7  -4152759.848 2        22.250           2.406
  22816877.619    -5429471.767 4                         7.250
 96  4  3 20 10 29.9940000  0  7 02 07 15 19 26 27 04
  19448469.525    -9679062.838 7  -7482942.276 3        25.250           2.813
  18655704.721   -17151539.406 7 -13250362.518 3        24.250           2.938
  21814248.533   -11217716.752 5  -8655282.334 1        10.750           0.469
  21724684.611     1290656.047 5   1012664.148 1         9.250           0.438
  21228689.330   -15430135.669 6 -11916589.046 1        14.250           0.813
  19182508.541    -5403595.680 7  -4158295.854 2        22.000           2.375
  22784245.229    -5600943.933 4        -0.21211         7.250           0.031
 96  4  3 20 10 59.9940000  0  7 02 07 15 19 26 27 04
  19436927.697    -9739705.981 7  -7530196.672 3        25.250           2.813
  18638049.432   -17244318.399 7 -13322657.817 3        24.000           2.813
  21805983.190   -11261153.658 5  -8689129.256 1        10.750           0.531
  21729776.572     1317414.446 5   1033514.785 1         9.250           0.344
  21214061.361   -15507045.957 6 -11976519.134 1        14.250           0.844
  19181237.322    -5410274.380 7  -4163500.056 2        22.250           2.344
  22751597.213    -5772495.265 4                         7.000
 96  4  3 20 11 29.9940000  0  7 02 07 15 19 26 27 04
  19425416.690    -9800188.578 7  -7577325.959 3        25.250           2.875
  18620483.111   -17336645.854 7 -13394601.273 3        24.500           2.969
  21797822.557   -11304040.614 5  -8722547.635 1        10.750           0.531
  21734909.010     1344376.331 5   1054523.990 1         9.500           0.406
  21199516.494   -15583442.004 6 -12036048.523 1        14.000           0.813
  19180047.135    -5416531.979 7  -4168376.125 2        22.250           2.281
  22718939.650    -5944132.134 4                         7.000
 96  4  3 20 11 59.9940000  0  7 02 07 15 19 26 27 04
  19413936.510    -9860526.854 7  -7624342.791 3        25.250           2.844
  18602997.143   -17428519.794 7 -13466191.335 3        24.000           2.906
  21789769.283   -11346371.660 5  -8755532.861 1        10.500           0.594
  21740078.416     1371541.829 5   1075691.853 1         9.500           0.375
  21185076.416   -15659331.707 6 -12095183.347 1        14.000           0.875
  19178937.510    -5422361.973 7  -4172918.997 2        22.500           2.281
  22686262.494    -6115858.132 4        -0.21811         6.750           0.156
 96  4  3 20 12 29.9940000  0  7 02 07 15 19 26 27 04
  19402476.018    -9920752.896 7  -7671272.169 3        25.250           2.813
  18585597.690   -17519963.172 7 -13537445.898 3        24.000           2.813
  21781816.455   -11388154.760 5  -8788091.095 1        10.500           0.625
  21745286.541     1398904.386 5   1097013.273 1         9.750           0.469
  21170731.916   -15734724.415 6 -12153930.911 1        14.250           0.813
  19177907.791    -5427775.627 7  -4177137.446 2        22.500           2.344
  22653567.768    -6287663.168 4   -133874.180 1         6.250           0.094
 96  4  3 20 12 59.9940000  0  7 02 07 15 19 26 27 04
  19391035.690    -9980863.585 7  -7718111.664 3        25.500           2.750
  18568276.815   -17610987.108 7 -13608373.621 3        24.000           2.906
  21773971.283   -11429387.700 5  -8820220.639 1        10.500           0.563
  21750527.447     1426467.207 5   1118490.727 1         9.500           0.469
  21156481.611   -15809604.353 6 -12212278.910 1        14.250           0.781
  19176958.275    -5432762.509 7  -4181023.350 2        22.500           2.375
  22620863.033    -6459530.544 4   -267796.715 1         6.500           0.094
 96  4  3 20 13 29.9940000  0  7 02 07 15 19 26 27 04
  19379620.580   -10040860.462 7  -7764862.465 3        25.250           2.844
  18551034.525   -17701586.340 7 -13678970.408 3        24.000           2.875
  21766229.947   -11470068.151 5  -8851919.681 1        10.500           0.531
  21755810.385     1454221.494 5   1140117.394 1         9.250           0.344
  21142329.783   -15883982.627 6 -12270235.991 1        14.250           0.813
  19176090.385    -5437324.382 7  -4184578.084 2        22.500           2.313
  22588143.205    -6631457.603 4   -401765.765 1         6.500           0.250
 96  4  3 20 13 59.9940000  0  7 02 07 15 19 26 27 04
  19368225.783   -10100739.450 7  -7811521.414 3        25.250           2.813
  18533878.424   -17791744.026 7 -13749223.132 3        24.000           2.844
  21758592.377   -11510196.156 5  -8883188.233 1        10.500           0.531
  21761126.252     1482159.868 5   1161887.498 1         9.000           0.375
  21128267.299   -15957868.388 6 -12327809.302 1        14.250           0.844
  19175302.369    -5441469.680 7  -4187808.202 2        22.750           2.281
  22555418.190    -6803436.370 4   -535775.070 1         6.250           0.250
 96  4  3 20 14 29.9940000  0  7 02 07 15 19 26 27 04
  19356854.166   -10160491.578 7  -7858081.505 3        25.000           2.781
  18516807.916   -17881460.173 7 -13819131.801 3        24.500           2.844
  21751061.291   -11549777.749 5  -8914031.025 1        10.250           0.594
  21766477.658     1510278.433 5   1183797.984 1         8.500           0.531
  21114304.854   -16031250.813 6 -12384990.405 1        14.250           0.969
  19174591.893    -5445191.375 7  -4190708.249 2        22.750           2.344
  22522686.650    -6975460.714 4   -669819.948 1         6.500           0.188
 96  4  3 20 14 59.9940000  0  7 02 07 15 19 26 27 04
  19345514.635   -10220072.166 7  -7904507.931 3        25.000           2.844
  18499826.049   -17970699.790 7 -13888669.145 3        24.000           2.750
  21743634.572   -11588797.484 5  -8944436.001 1        10.000           0.531
  21771863.104     1538585.793 5   1205855.614 1         8.250           0.344
  21100441.143   -16104118.093 6 -12441770.107 1        14.250           0.875
  19173970.065    -5448458.593 7  -4193254.148 2        23.000           2.438
  22489935.979    -7147527.928 4   -803898.217 1         6.500           0.219
 96  4  3 20 15 29.9930000  0  7 02 07 15 19 26 27 04
  19334207.692   -10279495.982 7  -7950812.197 3        24.750           2.813
  18482935.224   -18059464.607 7 -13957836.520 3        24.500           2.875
  21736313.083   -11627267.029 5  -8974412.264 1        10.250           0.594
  21777285.161     1567065.382 5   1228047.430 1         7.750           0.406
  21086663.982   -16176492.681 6 -12498165.884 1        14.500           0.969
  19173439.341    -5451263.980 7  -4195440.186 2        23.000           2.344
  22457183.122    -7319656.206 3   -938024.079 1         6.000           0.250
 96  4  3 20 15 59.9930000  0  7 02 07 15 19 26 27 04
  19322925.966   -10338783.882 7  -7997010.559 3        25.000           2.875
  18466130.302   -18147776.775 7 -14026651.177 3        24.750           2.875
  21729095.677   -11665198.785 5  -9003969.467 1        10.250           0.594
  21782741.880     1595721.243 5   1250376.595 1         8.000           0.344
  21072985.716   -16248376.834 6 -12554179.514 1        14.250           0.750
  19172994.200    -5453594.073 7  -4197255.862 2        22.500           2.219
  22424414.294    -7491864.899 3  -1072212.578 1         6.000           0.313
 96  4  3 20 16 29.9930000  0  7 02 07 15 19 26 27 04
  19311673.731   -10397927.049 7  -8043096.138 3        25.500           2.781
  18449405.778   -18235643.364 7 -14095118.631 3        24.750           2.781
  21721983.505   -11702581.707 5  -9033099.011 1        10.000           0.469
  21788227.481     1624575.410 5   1272860.303 1         8.250           0.438
  21059404.747   -16319753.470 6 -12609797.670 1        14.000           0.938
  19172644.052    -5455434.790 7  -4198690.208 2        22.750           2.281
  22391627.075    -7664150.237 4  -1206460.793 1         6.250           0.313
 96  4  3 20 16 59.9930000  0  7 02 07 15 19 26 27 04
  19300441.075   -10456935.235 7  -8089076.536 3        25.250           2.844
  18432769.856   -18323079.248 7 -14163250.471 3        24.500           2.750
  21714976.239   -11739421.758 5  -9061805.549 1        10.000           0.469
  21793756.185     1653615.611 5   1295488.946 1         8.250           0.406
  21045918.513   -16390633.491 6 -12665028.857 1        14.250           0.906
  19172383.505    -5456807.975 7  -4199760.241 2        22.750           2.281
  22358823.099    -7836523.842 3  -1340777.799 1         6.000           0.250
 96  4  3 20 17 29.9930000  0  7 02 07 15 19 26 27 04
  19289237.372   -10515826.990 7  -8134966.217 3        25.250           2.813
  18416210.411   -18410091.092 7 -14231051.893 3        24.750           2.781
  21708067.575   -11775712.696 5  -9090084.195 1        10.000           0.469
  21799316.771     1682852.796 5   1318271.106 1         8.000           0.313
  21032522.122   -16460998.919 6 -12719859.052 1        14.000           0.875
  19172206.888    -5457727.287 7  -4200476.616 2        22.500           2.219
  22326014.731    -8008963.840 4  -1475146.538 1         6.500           0.281
 96  4  3 20 17 59.9930000  0  7 02 07 15 19 26 27 04
  19278053.513   -10574598.616 7  -8180762.287 3        25.500           2.813
  18399734.052   -18496674.291 7 -14298519.306 3        25.000           2.813
  21701265.192   -11811454.991 5  -9117935.331 1        10.250           0.531
  21804919.739     1712288.188 5   1341207.697 1         8.250           0.375
  21019234.755   -16530838.755 6 -12774279.702 1        14.000           0.906
  19172114.364    -5458216.170 7                        22.250
  22293191.849    -8181450.791 4  -1609551.848 1         6.750           0.313
 96  4  3 20 18 29.9930000  0  7 02 07 15 19 26 27 04
  19266894.169   -10633236.433 7  -8226454.090 3        25.250           2.813
  18383343.122   -18582813.357 7 -14365640.640 3        24.500           2.719
  21694569.708   -11846642.253 5  -9145353.972 1        10.250           0.438
  21810558.591     1741922.724 5   1364299.488 1         7.750           0.281
  21006042.349   -16600159.384 6 -12828295.769 1        15.000           0.813
  19172103.817    -5458277.137 7                        22.000
  22260362.146    -8353962.834 4  -1743976.717 1         7.250           0.375
 96  4  3 20 18 59.9930000  0  7 02 07 15 19 26 27 04
  19255759.263   -10691740.654 7  -8272041.790 3        25.250           2.719
  18367039.958   -18668504.241 7 -14432412.740 3        24.500           2.875
  21687977.646   -11881276.790 5  -9172341.920 1        10.250           0.469
  21816235.692     1771743.523 5   1387536.411 1         7.750           0.406
  20992950.810   -16668965.122 6 -12881910.627 1        14.250           0.906
  19172170.474    -5457912.950 7                        22.000
  22227535.896    -8526479.469 4  -1878405.125 1         7.250           0.375
 96  4  3 20 19 29.9930000  0  7 02 07 15 19 26 27 04
  19244653.810   -10750119.111 7  -8317531.500 3        25.500           2.781
  18350815.841   -18753742.520 7 -14498832.165 3        24.500           2.750
  21681492.802   -11915365.363 5  -9198904.466 1        10.000           0.563
  21821944.310     1801754.927 5   1410921.850 1         7.500           0.281
  20979955.599   -16737258.905 6 -12935126.557 1        14.500           0.875
  19172320.903    -5457122.649 7  -4200005.555 2        22.250           2.063
  22194705.966    -8698992.536 5  -2012830.805 1         7.750           0.250
 96  4  3 20 19 59.9930000  0  7 02 07 15 19 26 27 04
  19233568.896   -10808366.305 7  -8362918.924 3        25.500           2.750
  18334679.231   -18838537.778 7 -14564906.375 3        24.750           2.813
  21675106.497   -11948917.063 5  -9225048.637 1        10.000           0.563
  21827687.521     1831948.359 4   1434449.145 1         7.250           0.250
  20967053.825   -16805066.376 6 -12987963.549 1        14.250           0.844
  19172553.903    -5455908.369 7  -4199059.389 2        22.250           2.188
  22161876.513    -8871516.150 5  -2147264.692 1         8.000           0.438
 96  4  3 20 20 29.9930000  0  7 02 07 15 19 26 27 04
  19222512.060   -10866471.377 7  -8408195.602 3        25.500           2.906
  18318625.896   -18922899.191 7 -14630642.529 3        24.500           2.719
  21668823.794   -11981928.556 5  -9250771.895 1        10.000           0.531
  21833472.052     1862314.553 5   1458111.046 1         7.500           0.219
  20954240.677   -16872395.080 6 -13040427.468 1        14.500           0.906
  19172864.724    -5454266.110 7  -4197779.733 2        22.250           2.094
  22129040.849    -9044053.617 5  -2281709.369 1         8.000           0.281
 96  4  3 20 20 59.9930000  0  7 02 07 15 19 26 27 04
  19211485.403   -10924417.438 7  -8453348.373 3        25.500           2.781
  18302656.989   -19006816.960 7 -14696032.989 3        24.500           2.688
  21662645.950   -12014397.744 5  -9276072.569 1        10.000           0.469
  21839283.513     1892857.083 4   1481910.363 1         7.250           0.344
  20941520.458   -16939232.542 6 -13092508.607 1        14.250           0.781
  19173260.208    -5452200.642 7  -4196170.302 2        22.250           2.125
  22096205.427    -9216600.302 5  -2416161.196 1         8.000           0.313
 96  4  3 20 21 29.9930000  0  7 02 07 15 19 26 27 04
  19200489.802   -10982191.683 7  -8498367.265 3        25.250           2.781
  18286775.935   -19090279.315 7 -14761068.575 3        24.500           2.656
  21656575.286   -12046320.330 5  -9300947.305 1        10.000           0.438
  21845123.747     1923579.953 4   1505850.171 1         7.000           0.250
  20928893.013   -17005578.345 6 -13144206.648 1        14.250           0.844
  19173736.232    -5449708.705 7  -4194228.563 2        22.000           2.094
  22063371.200    -9389152.553 5  -2550617.400 1         8.000           0.219
 96  4  3 20 21 59.9930000  0  7 02 07 15 19 26 27 04
  19189531.083   -11039788.883 7  -8543248.199 3        25.500           2.750
  18270976.989   -19173295.483 7 -14825756.481 3        24.500           2.781
  21650600.341   -12077703.296 5  -9325401.574 1         9.500           0.563
  21851004.817     1954466.145 4   1529917.258 1         7.000           0.250
  20916361.685   -17071440.119 6 -13195527.510 1        14.250           0.875
  19174287.646    -5446799.350 7  -4191961.556 2        22.000           1.969
  22030534.294    -9561719.438 5  -2685084.996 1         8.250           0.188
 96  4  3 20 22 29.9930000  0  7 02 07 15 19 26 27 04
  19178600.442   -11097211.064 7  -8587992.752 3        25.250           2.656
  18255269.481   -19255852.406 7 -14890086.539 3        24.500           2.750
  21644731.669   -12108552.318 5  -9349439.791 1         9.750           0.438
  21856908.638     1985509.294 4   1554106.655 1         6.750           0.250
  20903925.810   -17136807.111 6 -13246462.832 1        14.500           0.781
  19174918.903    -5443474.132 7  -4189370.503 2        22.250           2.031
  21997694.325    -9734299.238 5  -2819562.657 1         8.250           0.281
 96  4  3 20 22 59.9930000  0  7 02 07 15 19 26 27 04
  19167707.185   -11154460.664 7  -8632602.834 3        25.250           2.594
  18239650.771   -19337922.888 7 -14954037.551 3        24.500           2.781
  21638959.958   -12138852.021 5  -9373049.949 1         9.750           0.469
  21862852.778     2016738.177 4   1578440.778 1         7.000           0.250
  20891584.778   -17201655.577 6 -13296994.111 1        14.500           0.875
  19175636.716    -5439712.687 7  -4186439.528 2        22.000           2.031
  21964850.856    -9906877.340 5  -2954038.985 1         8.000           0.250
 96  4  3 20 23 29.9930000  0  7 02 07 15 19 26 27 04
  19156837.833   -11211576.482 7  -8677108.663 3        25.250           2.781
  18224122.216   -19419531.764 7 -15017628.870 3        24.750           2.750
  21633298.872   -12168615.403 5  -9396242.189 1         9.500           0.469
  21868832.786     2048127.336 4   1602899.779 1         7.250           0.219
  20879339.036   -17265992.773 6 -13347126.994 1        14.500           0.750
  19176432.935    -5435523.129 7  -4183174.964 2        21.500           2.000
  21932006.521   -10079475.522 5  -3088530.959 1         8.000           0.313
 96  4  3 20 23 59.9930000  0  7 02 07 15 19 26 27 04
  19145994.474   -11268570.253 7  -8721519.397 3        25.500           2.781
  18208678.224   -19500687.640 7 -15080867.202 3        24.750           2.719
  21627738.192   -12197841.704 5  -9419015.947 1        10.250           0.344
  21874830.497     2079676.679 5   1627483.609 1         7.500           0.250
  20867197.106   -17329807.518 6 -13396852.770 1        14.000           0.844
  19177313.114    -5430902.432 7  -4179574.447 2        21.250           2.031
  21899155.646   -10252098.217 5  -3223042.055 1         7.750           0.188
 96  4  3 20 24 29.9930000  0  7 02 07 15 19 26 27 04
  19135169.247   -11325450.842 7  -8765841.934 3        25.000           2.750
  18193318.263   -19581399.957 7 -15143759.905 3        24.750           2.625
  21622277.341   -12226531.946 5  -9441371.992 1        10.000           0.406
  21880864.958     2111376.528 5   1652184.706 1         7.750           0.250
  20855155.825   -17393104.096 6 -13446174.785 1        14.250           0.813
  19178274.747    -5425848.012 7  -4175635.960 2        21.250           1.906
  21866303.333   -10424739.964 5  -3357568.013 1         8.000           0.219
 96  4  3 20 24 59.9930000  0  7 02 07 15 19 26 27 04
  19124368.825   -11382216.966 7  -8810075.271 3        25.000           2.719
  18178038.606   -19661686.603 7 -15206320.915 3        24.750           2.719
  21616921.333   -12254685.080 5  -9463309.485 1        10.250           0.469
  21886923.552     2143220.034 5   1676997.744 1         7.500           0.219
  20843209.013   -17455886.543 6 -13495096.173 1        14.250           0.906
  19179318.278    -5420361.032 7  -4171360.406 2        21.000           1.938
  21833449.325   -10597396.698 5  -3492105.614 1         8.000           0.250
 96  4  3 20 25 29.9930000  0  7 02 07 15 19 26 27 04
  19113593.450   -11438845.846 7  -8854201.676 3        25.250           2.656
  18162838.075   -19741570.160 7 -15268567.830 3        24.750           2.594
  21611670.169   -12282302.700 5  -9484829.712 1        10.500           0.344
  21893010.716     2175201.686 5   1701918.460 1         7.500           0.313
  20831354.192   -17518159.633 6 -13543620.664 1        13.750           0.750
  19180444.138    -5414446.130 7  -4166751.413 2        21.000           1.969
  21800593.825   -10770055.684 5  -3626645.004 1         7.750           0.094
 96  4  3 20 25 59.9930000  0  7 02 07 15 19 26 27 04
  19102847.247   -11495312.689 7  -8898201.812 3        25.250           2.750
  18147712.419   -19821055.646 7 -15330504.562 3        24.750           2.656
  21606514.130   -12309385.594 5  -9505933.268 1        10.500           0.500
  21899124.794     2207334.998 4   1726957.313 1         7.250           0.281
  20819602.583   -17579936.167 6 -13591758.222 1        14.000           0.875
  19181651.622    -5408105.981 7  -4161811.064 2        21.000           1.875
  21767741.583   -10942690.773 5  -3761165.749 1         8.000           0.156
 96  4  3 20 26 29.9920000  0  7 02 07 15 19 26 27 04
  19092135.234   -11551602.674 7  -8942064.136 3        25.250           2.844
  18132664.016   -19900139.128 7 -15392128.046 3        24.500           2.719
  21601457.695   -12335935.059 5  -9526621.167 1        10.750           0.344
  21905271.477     2239627.360 4   1752120.119 1         7.250           0.281
  20807934.758   -17641224.311 6 -13639515.226 1        13.750           0.781
  19182937.016    -5401349.728 7  -4156546.465 2        21.000           1.938
  21734900.742   -11115281.594 5  -3895652.044 1         8.000           0.156
 96  4  3 20 26 59.9920000  0  7 02 07 15 19 26 27 04
  19081453.789   -11607721.384 7  -8985792.999 3        25.000           2.719
  18117692.828   -19978828.708 7 -15453444.584 3        24.500           2.656
  21596510.625   -12361961.172 5  -9546901.242 1         9.750           0.406
  21911446.766     2272090.600 5   1777416.069 1         7.500           0.219
  20796362.125   -17702034.329 6 -13686899.658 1        14.000           0.813
  19184299.563    -5394192.420 7  -4150969.353 2        20.750           1.875
  21702062.195   -11287841.171 5  -4030113.965 1         8.250           0.219
 96  4  3 20 27 29.9920000  0  7 02 07 15 19 26 27 04
  19070809.117   -11663670.144 7  -9029389.436 3        25.250           2.656
  18102790.945   -20057114.321 7 -15514446.353 3        24.500           2.719
  21591649.789   -12387463.434 5  -9566773.130 1         9.500           0.438
  21917659.219     2304726.577 4   1802846.621 1         7.250           0.250
  20784887.063   -17762364.703 6 -13733910.338 1        13.750           0.750
  19185738.180    -5386632.490 7  -4145078.518 2        21.000           1.844
  21669233.156   -11460355.614 5  -4164540.749 1         8.250           0.344
 96  4  3 20 27 59.9920000  0  7 02 07 15 19 26 27 04
  19060191.172   -11719461.685 7  -9072863.368 3        25.500           2.844
  18087979.570   -20134963.716 7 -15575108.209 3        24.750           2.625
  21586902.867   -12412438.695 5  -9586234.384 1        10.000           0.594
  21923903.813     2337535.932 4   1828412.257 1         7.000           0.281
  20773497.070   -17822213.802 6 -13780546.004 1        14.000           0.781
  19187253.125    -5378662.930 7  -4138868.486 2        20.750           1.906
  21636410.086   -11632836.417 5  -4298941.299 1         8.250           0.313
 96  4  3 20 28 29.9920000  0  7 02 07 15 19 26 27 04
  19049602.242   -11775104.391 7  -9116221.317 3        25.500           2.875
  18073252.180   -20212360.150 7 -15635417.107 3        24.500           2.750
  21582253.648   -12436883.181 5  -9605282.030 1         9.750           0.500
  21930177.383     2370513.655 4   1854109.121 1         6.750           0.281
  20762200.453   -17881568.367 6 -13826796.315 1        13.750           0.750
  19188848.727    -5370283.429 7  -4132339.033 2        20.750           1.844
  21603595.039   -11805302.703 5  -4433330.551 1         8.500           0.344
 96  4  3 20 28 59.9920000  0  7 02 07 15 19 26 27 04
  19039039.156   -11830617.353 7  -9159478.170 3        25.250           2.781
  18058608.641   -20289309.475 7 -15695377.605 3        24.500           2.750
  21577697.149   -12460805.893 5  -9623923.103 1         9.500           0.469
  21936479.688     2403632.905 4   1879916.209 1         7.250           0.188
  20750997.930   -17940432.985 6 -13872664.853 1        14.000           0.813
  19190519.711    -5361503.336 7  -4125497.416 2        20.750           1.719
  21570771.875   -11977767.331 5  -4567718.479 1         8.500           0.313
 96  4  3 20 29 29.9920000  0  7 02 07 15 19 26 27 04
  19028505.516   -11885984.741 7  -9202621.593 3        25.500           2.719
  18044051.195   -20365795.281 7 -15754976.922 3        24.250           2.625
  21573244.719   -12484189.764 5  -9642144.298 1         9.750           0.406
  21942811.750     2436899.071 5   1905837.823 1         7.500           0.188
  20739894.102   -17998793.423 6 -13918140.525 1        14.000           0.813
  19192270.617    -5352299.776 7  -4118325.834 2        20.500           1.750
  21537955.344   -12150220.414 5  -4702097.436 1         8.500           0.375
 96  4  3 20 29 59.9920000  0  7 02 07 15 19 26 27 04
  19017991.063   -11941222.195 7  -9245663.775 3        25.500           2.719
  18029585.492   -20441833.516 7 -15814227.482 3        24.250           2.594
  21568896.031   -12507057.009 5  -9659962.952 1         9.500           0.531
  21949164.500     2470287.534 5   1931854.728 1         7.500           0.281
  20728881.508   -18056673.283 6 -13963241.708 1        13.750           0.719
  19194096.516    -5342705.230 7  -4110849.583 2        20.500           1.781
  21505137.758   -12322681.305 5  -4836482.479 1         8.750           0.250
 96  4  3 20 30 29.9920000  0  7 02 07 15 19 26 27 04
  19007512.992   -11996307.825 7  -9288587.638 3        25.250           2.625
  18015197.914   -20517419.287 7 -15873125.476 3        24.250           2.594
  21564644.711   -12529394.171 5  -9677368.521 1         9.750           0.469
  21955541.766     2503809.752 5   1957975.862 1         7.500           0.188
  20717954.508   -18114062.466 6 -14007960.554 1        13.500           0.844
  19195998.703    -5332710.723 7  -4103061.682 2        20.250           1.750
  21472326.969   -12495108.898 5  -4970841.558 1         9.000           0.344
 96  4  3 20 30 59.9920000  0  7 02 07 15 19 26 27 04
  18997057.836   -12051243.208 7  -9331394.434 3        25.500           2.688
  18000897.094   -20592570.207 7 -15931684.623 3        24.500           2.625
  21560493.570   -12551209.240 5  -9694367.270 1         9.750           0.406
  21961944.211     2537460.285 5   1984196.954 1         7.750           0.219
  20707128.641   -18170981.537 6 -14052313.092 1        13.750           0.781
  19197975.570    -5322325.457 7  -4094969.295 2        20.250           1.688
  21439521.602   -12667505.409 5  -5105176.448 1         9.250           0.375
 96  4  3 20 31 29.9920000  0  7 02 07 15 19 26 27 04
  18986632.398   -12106024.271 7  -9374080.981 3        25.250           2.719
  17986679.523   -20667289.389 7 -15989907.351 3        24.750           2.781
  21556442.852   -12572506.836 5  -9710962.802 1         9.750           0.531
  21968376.813     2571251.611 5   2010527.785 1         7.500           0.344
  20696387.695   -18227436.598 6 -14096304.045 1        13.250           0.719
  19200024.149    -5311556.745 7  -4086578.116 2        20.250           1.813
  21406720.500   -12839876.311 5  -5239491.348 1         9.000           0.438
 96  4  3 20 31 59.9920000  0  7 02 07 15 19 26 27 04
  18976236.555   -12160649.338 7  -9416645.969 3        25.250           2.625
  17972545.008   -20741572.501 7 -16047790.279 3        24.750           2.500
  21552487.688   -12593284.326 5  -9727153.041 1         9.250           0.406
  21974837.789     2605194.068 4   2036976.360 1         7.250           0.219
  20685732.797   -18283415.548 6 -14139924.014 1        13.750           0.688
  19202145.156    -5300410.769 7  -4077892.964 2        20.250           1.656
  21373927.156   -13012201.341 5  -5373770.501 1         8.750           0.344
 96  4  3 20 32 29.9920000  0  7 02 07 15 19 26 27 04
  18965870.438   -12215126.309 7  -9459095.561 3        25.500           2.688
  17958489.109   -20815442.362 7 -16105351.198 3        24.750           2.594
  21548633.094   -12613544.890 5  -9742940.492 1         9.750           0.406
  21981323.602     2639292.835 4   2063546.743 1         7.250           0.313
  20675170.133   -18338914.395 6 -14183169.872 1        13.750           0.781
  19204339.023    -5288880.867 7  -4068908.644 2        20.000           1.750
  21341143.352   -13184476.681 5  -5508010.935 1         9.000           0.313
 96  4  3 20 32 59.9920000  0  7 02 07 15 19 26 27 04
  18955531.875   -12269453.911 7  -9501428.760 3        25.250           2.625
  17944506.563   -20888910.610 7 -16162599.172 3        24.750           2.625
  21544872.227   -12633290.787 5  -9758326.905 1         9.750           0.406
  21987841.172     2673548.814 4   2090239.628 1         6.250           0.250
  20664707.008   -18393926.212 6 -14226036.229 1        14.000           0.719
  19206607.750    -5276962.161 7  -4059621.377 2        20.250           1.625
  21308372.391   -13356704.022 5  -5642213.968 1         9.500           0.344
 96  4  3 20 33 29.9920000  0  7 02 07 15 19 26 27 04
  18945223.672   -12323630.639 7                        25.750
  17930603.109   -20961968.756 7 -16219527.585 2        25.000           2.438
  21541215.906   -12652523.027 5  -9773313.069 1         9.250           0.500
  21994394.961     2707965.585 4   2117057.773 1         6.750           0.188
  20654331.555   -18448444.575 6                        13.750
  19208953.406    -5264633.987 7  -4050015.040 2        20.250           1.625
  21275612.953   -13528851.769 5  -5776354.967 1         9.500           0.406
 96  4  3 20 33 59.9920000  0  7 02 07 15 09 26 27 04
  18934943.578   -12377653.482 7                        25.500
  17916778.570   -21034617.597 7 -16276137.062 3        24.750           2.563
  21537655.734   -12671239.590 5  -9787897.416 1         9.750           0.500
  21997465.039          -0.13914                         6.500
  20644048.555   -18502478.414 6                        13.750
  19211380.227    -5251874.459 6  -4040072.571 2        19.750           1.656
  21242872.383   -13700903.256 5  -5910420.965 1         9.500           0.406
 96  4  3 20 34 29.9920000  0  7 02 07 15 09 26 27 04
  18924692.977   -12431519.542 7  -9627713.678 3        25.500           2.656
  17903033.031   -21106849.653 7 -16332421.768 3        24.750           2.625
  21534189.641   -12689443.494 5  -9802082.285 1         9.250           0.563
  21965468.266     -168156.454 4                         6.750
  20633853.125   -18556045.563 6 -14352363.019 1        13.750           0.719
  19213891.727    -5238680.426 6  -4029791.534 2        19.500           1.813
  21210149.305   -13872864.472 5  -6044416.623 1         9.750           0.469
 96  4  3 20 34 59.9920000  0  7 02 07 15 09 26 27 04
  18914474.711   -12485213.047 7  -9669552.777 3        25.750           2.656
  17889374.156   -21178637.450 7 -16388360.302 2        24.750           2.406
  21530821.227   -12707128.370 5  -9815862.699 1         9.250           0.531
  21933481.164     -336240.430 4        -0.29411         7.000           0.219
  20623744.938   -18609151.736 6 -14393744.459 1        13.750           0.875
  19216487.172    -5225048.166 6  -4019169.033 2        19.250           1.688
  21177442.899   -14044732.367 5  -6178339.566 1        10.000           0.375
 96  4  3 20 35 29.9920000  0  7 02 07 15 09 26 27 04
  18904287.727   -12538742.392 7  -9711263.960 3        26.000           2.563
  17875799.359   -21249982.132 7 -16443953.549 3        24.750           2.500
  21527555.938   -12724303.089 5  -9829245.621 1         9.000           0.375
  21901502.844     -504286.601 5   -130945.283 1         7.500           0.250
  20613727.297   -18661806.464 6 -14434774.123 1        13.750           0.750
  19219159.484    -5210998.470 6  -4008221.239 2        19.250           1.625
  21144753.164   -14216524.286 5  -6312203.326 1        10.250           0.500
 96  4  3 20 35 59.9920000  0  7 02 07 15 09 26 27 04
  18894131.156   -12592116.328 7  -9752854.037 3        25.750           2.688
  17862304.117   -21320894.504 7 -16499209.929 2        24.500           2.438
  21524384.125   -12740973.618 5  -9842235.646 1         9.000           0.531
  21869530.828     -672291.884 5   -261858.421 1         8.000           0.313
  20603793.070   -18713999.433 6 -14475443.966 1        13.500           0.813
  19221905.797    -5196564.645 6  -3996974.131 2        19.250           1.781
  21112072.844   -14388264.792 5  -6446026.992 1        10.500           0.500
 96  4  3 20 36 29.9920000  0  7 02 07 15 09 26 27 04
  18884005.531   -12645333.434 7  -9794321.917 3        25.750           2.625
  17848887.648   -21391378.765 7 -16554132.719 3        24.750           2.563
  21521304.414   -12757146.106 5  -9854837.585 1         9.000           0.469
  21837570.383     -840253.501 5   -392737.550 1         8.500           0.281
  20593952.734   -18765722.811 6 -14515747.908 1        13.500           0.813
  19224721.414    -5181778.707 6  -3985452.646 2        19.250           1.688
  21079398.633   -14559962.746 5  -6579817.520 1        10.750           0.531
 96  4  3 20 36 59.9920000  0  7 02 07 15 09 26 27 04
  18873912.117   -12698377.394 7  -9835654.876 3        25.750           2.688
  17835554.867   -21461446.320 7 -16608730.805 2        24.750           2.469
  21518324.336   -12772808.204 5  -9867041.819 1         8.750           0.469
  21805618.500    -1008156.919 5   -523571.335 1         9.000           0.281
  20584206.195   -18816949.224 6 -14555664.605 1        13.750           0.781
  19227602.836    -5166629.108 6  -3973647.791 2        19.250           1.594
  21046737.688   -14731597.209 5  -6713558.588 1        10.750           0.469
 96  4  3 20 37 29.9920000  0  7 02 07 15 09 26 27 04
  18863848.195   -12751263.465 7  -9876864.804 3        25.750           2.688
  17822298.531   -21531113.672 7 -16663017.045 3        24.500           2.500
  21515441.922   -12787970.874 5  -9878856.903 1         8.500           0.438
  21773680.672    -1175990.963 5   -654351.053 1         9.000           0.406
  20574549.445   -18867677.783 6 -14595193.350 1        14.000           0.750
  19230551.242    -5151133.414 6  -3961573.254 2        18.750           1.656
  21014086.000   -14903170.651 5  -6847252.087 1        11.000           0.375
 96  4  3 20 37 59.9910000  0  7 02 07 15 09 26 27 04
  18853812.769   -12803983.091 7  -9917945.030 3        26.000           2.688
  17809121.878   -21600372.753 7 -16716985.140 3        24.500           2.625
  21512650.120   -12802633.843 5  -9890282.588 1         8.500           0.469
  21741765.573    -1343720.792 5   -785049.544 1         9.250           0.281
  20564993.042   -18917915.176 6 -14634339.387 1        13.750           0.781
  19233567.440    -5135286.477 6  -3949225.031 2        18.250           1.531
  20981453.237   -15074659.580 5  -6980879.739 1        10.250           0.406
 96  4  3 20 38 29.9910000  0  7 02 07 15 09 26 27 04
  18843816.323   -12856524.082 7  -9958886.065 3        25.750           2.750
  17796019.339   -21669219.593 7 -16770632.019 2        24.750           2.438
  21509957.401   -12816783.217 5  -9901308.088 1         8.000           0.406
  21709865.870    -1511335.594 5   -915658.417 1         9.000           0.375
  20555523.644   -18967665.912 6 -14673106.195 1        13.750           0.719
  19236655.214    -5119055.486 6  -3936577.529 2        18.500           1.594
  20948840.628   -15246039.771 5  -7114422.674 1        10.500           0.406
 96  4  3 20 38 59.9910000  0  7 02 07 15 09 26 27 04
  18833844.878   -12908918.225 7  -9999712.667 3        25.750           2.656
  17782996.784   -21737664.101 7 -16823965.390 3        24.750           2.500
  21507360.628   -12830435.098 5  -9911945.919 1         8.000           0.375
  21677991.980    -1678842.504 5  -1046183.196 1         9.250           0.281
  20546145.933   -19016939.774 6 -14711501.421 1        13.750           0.813
  19239817.776    -5102436.227 6  -3923627.483 2        18.750           1.625
  20916250.175   -15417317.210 5  -7247885.529 1        10.750           0.469
 96  4  3 20 39 29.9910000  0  7 02 07 15 09 26 27 04
  18823904.136   -12961167.735 7 -10040426.568 3        25.750           2.719
  17770050.128   -21805675.378 7 -16876961.182 3        24.750           2.531
  21504857.722   -12843588.970 5  -9922195.690 1         7.750           0.500
  21646138.487    -1846237.066 5  -1176620.441 1         9.000           0.281
  20536864.237   -19065737.927 6 -14749525.958 1        13.750           0.844
  19243055.042    -5085423.036 6  -3910370.476 1        18.500           1.469
  20883676.441   -15588490.460 5  -7381267.196 1        10.750           0.500
 96  4  3 20 39 59.9910000  0  7 02 07 15 09 26 27 04
  18813989.808   -13013274.945 7 -10081029.586 3        25.750           2.625
  17757187.292   -21873273.654 7 -16929635.149 2        24.500           2.469
  21502449.644   -12856259.716 5  -9932069.022 1         8.000           0.438
  21614301.659    -2013542.310 5  -1306988.113 1         9.000           0.281
  20527657.362   -19114086.813 6 -14787200.428 1        13.750           0.750
  19246366.105    -5068024.247 6  -3896813.002 2        18.250           1.531
  20851119.003   -15759571.482 5  -7514577.016 1        10.750           0.344
 96  4  3 20 40 29.9910000  0  7 02 07 15 09 26 27 04
  18804099.214   -13065234.503 7 -10121517.553 3        25.750           2.781
  17744402.136   -21940460.148 7 -16981988.251 3        24.500           2.531
  21500128.058   -12868438.947 5  -9941559.324 1         8.750           0.500
  21582481.464    -2180750.839 5  -1437280.405 1         8.750           0.281
  20518553.776   -19161971.029 6 -14824512.806 1        13.750           0.781
  19249751.886    -5050241.055 6  -3882955.995 2        18.000           1.531
  20818580.276   -15930564.773 5  -7647818.466 1        11.250           0.469
 96  4  3 20 40 59.9910000  0  7 02 07 15 09 26 27 04
  18794242.050   -13117026.643 7 -10161875.063 3        26.000           2.563
  17731702.433   -22007222.374 7 -17034010.757 2        24.750           2.469
  21497901.128   -12880127.953 5  -9950667.639 1         8.000           0.406
  21550682.026    -2347856.621 5  -1567492.633 1         9.000           0.250
  20509525.441   -19209394.568 6 -14861466.219 1        13.250           0.719
  19253205.581    -5032085.498 6  -3868808.842 1        17.750           1.406
  20786054.675   -16101480.515 5  -7780999.496 1        11.250           0.375
 96  4  3 20 41 29.9910000  0  7 02 07 15 09 26 27 04
  18784425.839   -13168629.882 7 -10202085.375 3        26.000           2.625
  17719072.308   -22073573.003 7 -17085712.530 2        24.750           2.438
  21495773.198   -12891328.620 5  -9959395.449 1         8.500           0.344
  21518902.464    -2514852.650 5  -1697619.380 1         9.000           0.281
  20500585.894   -19256376.855 6 -14898075.800 1        13.250           0.750
  19256728.472    -5013570.576 6  -3854381.656 1        17.750           1.438
  20753549.972   -16272305.146 5  -7914109.523 1        11.000           0.500
 96  4  3 20 41 59.9910000  0  7 02 07 15 09 26 27 04
  18774638.940   -13220042.277 7 -10242146.980 3        26.250           2.719
  17706523.245   -22139528.316 7 -17137106.271 3        24.500           2.531
  21493735.026   -12902043.652 5  -9967744.818 1         8.000           0.406
  21487147.792    -2681734.086 5  -1827656.802 1         9.250           0.219
  20491729.972   -19302922.788 6 -14934345.372 1        13.750           0.750
  19260317.487    -4994705.973 6  -3839681.999 1        17.500           1.469
  20721060.151   -16443032.628 5  -8047143.861 1        11.000           0.469
 96  4  3 20 42 29.9910000  0  7 02 07 15 09 26 27 04
  18764894.737   -13271268.063 7 -10282063.172 3        26.250           2.688
  17694050.261   -22205069.261 7 -17188177.127 2        24.500           2.406
  21491791.144   -12912267.732 5  -9975711.645 1         8.250           0.375
  21455415.034    -2848490.117 5  -1957596.543 1         9.250           0.188
  20482954.308   -19349004.880 6 -14970253.498 1        14.000           0.813
  19263975.612    -4975481.980 6  -3824702.282 1        17.500           1.406
  20688594.714   -16613644.280 5  -8180087.932 1        11.000           0.469
 96  4  3 20 42 59.9910000  0  7 02 07 15 09 26 27 04
  18755181.105   -13322311.029 7 -10321836.910 3        26.250           2.625
  17681654.995   -22270200.748 7 -17238928.922 3        24.500           2.500
  21489934.737   -12922007.079 5  -9983300.740 1         7.750           0.344
  21423704.933    -3015132.756 5  -2087447.902 1         9.250           0.188
  20474280.214   -19394626.353 6 -15005802.705 1        13.500           0.813
  19267705.253    -4955887.900 6  -3809434.194 1        17.500           1.344
  20656152.940   -16784129.106 5  -8312933.177 1        11.500           0.469
 96  4  3 20 43 29.9910000  0  7 02 07 15 09 26 27 04
  18745500.831   -13373188.153 7 -10361481.416 3        26.250           2.688
  17669337.378   -22334925.633 7 -17289363.889 2        24.500           2.469
  21488175.550   -12931265.641 5  -9990515.212 1         8.250           0.406
  21392011.136    -3181678.338 5  -2217223.617 1         9.000           0.250
  20465683.573   -19439775.360 6 -15040983.762 1        13.250           0.781
  19271504.870    -4935925.595 6  -3793879.176 1        17.750           1.438
  20623731.995   -16954494.987 5  -8445685.741 1        11.250           0.594
 96  4  3 20 43 59.9910000  0  7 02 07 15 09 26 27 04
  18735846.628   -13423913.085 7 -10401007.335 3        26.250           2.656
  17657101.519   -22399233.613 7 -17339473.991 3        24.500           2.594
  21486499.503   -12940050.505 5  -9997360.555 1         8.000           0.313
  21360335.980    -3348132.614 5  -2346928.184 1         8.750           0.313
  20457181.339   -19484451.176 6 -15075796.094 1        13.250           0.750
  19275371.894    -4915602.555 6  -3778043.072 1        17.500           1.375
  20591334.011   -17124754.396 5  -8578355.337 1        11.250           0.500
 96  4  3 20 44 29.9910000  0  7 02 07 15 09 26 27 04
  18726224.073   -13474469.822 7 -10440402.195 3        26.250           2.656
  17644947.026   -22463124.925 7 -17389259.416 3        24.750           2.625
  21484921.347   -12948350.877 5 -10003828.387 1         8.500           0.375
  21328679.362    -3514482.653 5  -2476551.526 1         8.250           0.281
  20448770.550   -19528656.024 6 -15110241.454 1        13.250           0.813
  19279309.776    -4894905.353 6  -3761915.405 1        17.250           1.375
  20558956.237   -17294896.693 5  -8710933.667 1        11.500           0.531
 96  4  3 20 44 59.9910000  0  7 02 07 15 09 26 27 04
  18716637.097   -13524860.657 7 -10479667.779 3        26.250           2.625
  17632861.026   -22526614.402 7 -17438731.724 3        24.500           2.625
  21483433.425   -12956175.747 5 -10009925.693 1         8.500           0.375
  21297045.112    -3680731.996 5  -2606096.412 1         8.500           0.250
  20440443.409   -19572431.519 6 -15144352.241 1        13.250           0.719
  19283318.026    -4873848.416 6  -3745507.425 1        17.250           1.344
  20526598.886   -17464935.301 5  -8843431.202 1        11.250           0.500
 96  4  3 20 45 29.9910000  0  7 02 07 15 09 26 27 04
  18707078.612   -13575085.161 7 -10518803.758 3        26.500           2.656
  17620858.097   -22589700.289 7 -17487889.545 3        24.750           2.625
  21482033.167   -12963527.358 5 -10015654.235 1         8.000           0.375
  21265432.105    -3846865.826 5  -2735551.283 1         8.750           0.281
  20432189.440   -19615787.411 6 -15178136.063 1        13.250           0.781
  19287391.300    -4852442.315 6  -3728827.370 1        17.500           1.281
  20494261.355   -17634867.494 5  -8975845.823 1        11.500           0.344
 96  4  3 20 45 59.9910000  0  7 02 07 15 09 26 27 04
  18697552.112   -13625137.267 7 -10557805.400 3        26.750           2.563
  17608928.683   -22652400.548 7 -17536746.877 3        24.500           2.688
  21480722.730   -12970404.510 5 -10021013.058 1         7.500           0.313
  21233840.612    -4012868.611 5  -2864904.038 1         8.750           0.375
  20424019.519   -19658735.410 6 -15211602.043 1        12.750           0.719
  19291533.019    -4830679.110 6  -3711869.059 1        17.250           1.281
  20461950.448   -17804668.286 5  -9108158.065 1        11.750           0.563
 96  4  3 20 46 29.9910000  0  7 02 07 15 09 26 27 04
  18688062.636   -13675006.309 7 -10596664.390 3        26.500           2.656
  17597067.026   -22714732.111 7 -17585316.915 3        24.500           2.531
  21479505.855   -12976807.377 5 -10026002.306 1         7.500           0.281
  21202275.644    -4178737.017 5  -2994152.093 1         8.750           0.344
  20415924.081   -19701268.532 6 -15244744.744 1        12.500           0.719
  19295741.433    -4808559.423 6  -3694632.975 1        17.000           1.281
  20429665.050   -17974324.326 5  -9240357.508 1        11.500           0.500
 96  4  3 20 46 59.9910000  0  7 02 07 15 09 26 27 04
  18678605.948   -13724702.789 7 -10635388.921 3        26.250           2.719
  17585277.440   -22776693.134 7 -17633598.223 3        24.750           2.688
  21478378.847   -12982742.619 5 -10030627.175 1         8.000           0.219
  21170741.909    -4344469.359 5  -3123294.117 1         9.000           0.250
  20407910.730   -19743370.796 6 -15277551.728 1        13.000           0.813
  19300017.073    -4786088.966 6  -3677123.559 1        16.750           1.344
  20397408.956   -18143830.153 5  -9372439.893 1        11.750           0.625
 96  4  3 20 47 29.9910000  0  7 02 07 15 09 26 27 04
  18669181.737   -13774224.213 7 -10673977.047 3        26.250           2.656
  17573556.409   -22838286.507 7 -17681593.045 3        24.750           2.594
  21477337.065   -12988210.039 5 -10034887.521 1         8.000           0.469
  21139227.839    -4510066.213 5  -3252330.581 1         8.750           0.344
  20399986.831   -19785019.185 6 -15310005.029 1        13.000           0.781
  19304359.620    -4763269.963 6  -3659342.547 1        16.750           1.219
  20365184.448   -18313174.565 6  -9504396.512 1        12.000           0.563
 96  4  3 20 47 59.9910000  0  7 02 07 15 09 26 27 04
  18659795.753   -13823569.895 7 -10712428.228 3        26.250           2.688
  17561902.511   -22899514.725 7 -17729303.337 3        24.750           2.625
  21476385.925   -12993213.644 5 -10038786.447 1         8.250           0.469
  21107741.261    -4675533.211 5  -3381265.847 1         9.000           0.375
  20392145.894   -19826220.794 6 -15342110.195 1        12.750           0.688
  19308767.815    -4740105.976 6  -3641292.725 1        16.500           1.219
  20332992.511   -18482345.876 6  -9636218.244 1        12.250           0.625
 96  4  3 20 48 29.9910000  0  7 02 07 15 09 26 27 04
  18650436.730   -13872741.868 7 -10750744.052 3        26.000           2.656
  17550324.612   -22960354.284 7 -17776710.777 3        24.750           2.719
  21475520.690   -12997754.339 5 -10042324.671 1         8.500           0.375
  21076278.206    -4840870.767 5  -3510100.241 1         9.250           0.250
  20384387.394   -19866977.592 6 -15373868.757 1        13.000           0.781
  19313240.628    -4716604.845 6  -3622980.189 1        16.500           1.125
  20300834.230   -18651343.926 6  -9767904.965 1        12.250           0.688
 96  4  3 20 48 59.9910000  0  7 02 07 15 09 26 27 04
  18641112.026   -13921751.083 7 -10788933.051 3        26.000           2.750
  17538823.394   -23020786.417 7 -17823800.743 3        24.750           2.688
  21474744.745   -13001833.870 5 -10045503.553 1         9.000           0.281
  21044840.784    -5006075.312 5  -3638831.004 1         9.250           0.375
  20376717.675   -19907296.225 6 -15405285.890 1        13.000           0.750
  19317776.628    -4692765.732 6  -3604404.291 1        16.250           1.125
  20268705.956   -18820171.593 6  -9899458.931 1        12.750           0.625
 96  4  3 20 49 29.9900000  0  7 02 07 15 09 26 27 04
  18631819.022   -13970572.524 7 -10826975.731 3        26.000           2.625
  17527408.631   -23080790.930 7 -17870557.498 3        24.500           2.594
  21474057.592   -13005440.619 5 -10048314.007 1         9.250           0.406
  21013430.811    -5171128.947 5  -3767444.154 1        10.000           0.344
  20369131.529   -19947175.584 6 -15436360.723 1        13.000           0.750
  19322376.740    -4668586.610 6  -3585563.458 1        16.000           1.125
  20236614.858   -18988811.676 6 -10030866.727 1        13.000           0.750
 96  4  3 20 49 59.9900000  0  7 02 07 15 09 26 27 04
  18622561.748   -14019220.225 7 -10864883.031 3        26.250           2.531
  17516069.100   -23140379.195 7 -17916989.905 3        24.500           2.719
  21473458.334   -13008589.018 5 -10050767.324 1         9.000           0.375
  20982048.100    -5336051.146 5  -3895954.910 1        10.500           0.406
  20361623.311   -19986627.382 6 -15467102.405 1        12.750           0.781
  19327041.029    -4644076.159 6  -3566464.447 1        16.000           1.094
  20204554.990   -19157286.452 6 -10162145.706 1        12.750           0.656
 96  4  3 20 50 29.9900000  0  7 02 07 15 09 26 27 04
  18613337.818   -14067688.364 7 -10902650.411 3        26.000           2.688
  17504809.889   -23199548.250 7 -17963095.659 3        24.500           2.750
  21472947.662   -13011278.080 5 -10052862.721 1         9.000           0.375
  20950692.248    -5500826.266 5  -4024351.065 1        10.500           0.375
  20354201.779   -20025633.786 6 -15497497.011 1        13.000           0.688
  19331768.232    -4619239.258 6  -3547111.060 1        16.250           1.156
  20172524.670   -19325610.091 6 -10293306.927 1        13.500           0.719
 96  4  3 20 50 59.9900000  0  7 02 07 15 09 26 27 04
  18604148.873   -14115987.415 7 -10940286.040 3        25.750           2.594
  17493622.326   -23258331.768 7 -18008900.990 3        24.750           2.625
  21472518.209   -13013526.909 5 -10054615.075 1         9.000           0.438
  20919363.256    -5665459.087 5  -4152636.349 1        10.250           0.406
  20346859.459   -20064208.052 6 -15527554.901 1        12.750           0.688
  19336553.170    -4594091.862 6  -3527515.730 1        16.250           1.188
  20140518.068   -19493812.456 6 -10424373.640 1        13.250           0.813
 96  4  3 20 51 29.9900000  0  7 02 07 15 09 26 27 04
  18594997.061   -14164089.044 7 -10977767.829 3        25.500           2.656
  17482507.131   -23316729.230 7 -18054405.499 3        24.750           2.656
  21472181.029   -13015317.195 5 -10056010.127 1         9.000           0.438
  20888064.404    -5829932.029 5  -4280797.023 1        10.250           0.219
  20339608.459   -20102326.212 6 -15557257.387 1        12.750           0.719
  19341402.795    -4568609.070 6  -3507659.057 1        16.000           1.063
  20108533.818   -19661870.744 6 -10555328.083 1        13.000           0.656
 96  4  3 20 51 59.9900000  0  7 02 07 15 09 26 27 04
  18585875.943   -14212002.221 7 -11015102.771 3        25.750           2.625
  17471469.639   -23374753.190 7 -18099618.962 3        24.750           2.688
  21471925.428   -13016658.401 5 -10057055.228 1         8.750           0.344
  20856797.092    -5994245.436 5  -4408833.395 1        10.500           0.344
  20332436.928   -20139987.053 6 -15586603.516 1        13.000           0.719
  19346317.748    -4542788.266 6  -3487538.998 1        15.750           1.031
  20076580.670   -19829795.703 6 -10686178.659 1        12.750           0.656
 96  4  3 20 52 29.9900000  0  7 02 07 15 09 26 27 04
  18576799.022   -14259726.118 7 -11052290.220 3        25.750           2.594
  17460494.209   -23432405.119 7 -18144542.538 3        24.500           2.688
  21471753.858   -13017551.095 5 -10057750.859 1         8.750           0.344
  20825561.740    -6158390.967 5  -4536738.964 1        11.000           0.469
  20325353.654   -20177203.476 6 -15615603.350 1        12.500           0.719
  19351294.029    -4516632.856 6  -3467158.202 1        15.750           1.063
  20044651.670   -19997584.840 6 -10816923.384 1        13.000           0.594
 96  4  3 20 52 59.9900000  0  7 02 07 15 09 26 27 04
  18567749.787   -14307266.432 7 -11089334.621 3        26.000           2.625
  17449596.834   -23489686.659 7 -18189177.499 3        25.000           2.750
  21471668.264   -13017994.420 5                         7.750
  20794356.482    -6322373.991 5  -4664517.893 1        11.000           0.438
  20318356.522   -20213977.820 6 -15644258.697 1        12.500           0.750
  19356338.389    -4490123.878 6  -3446501.898 1        15.500           1.063
  20012753.951   -20165204.144 6 -10947535.769 1        13.000           0.750
 96  4  3 20 53 29.9900000  0  7 02 07 15 09 26 27 04
  18558735.381   -14354632.024 7 -11126242.879 3        26.000           2.563
  17438769.850   -23546595.358 7 -18233521.929 3        24.500           2.719
  21471669.568   -13018000.547 5                         7.750
  20763179.397    -6486210.005 5  -4792182.260 1        11.250           0.406
  20311440.061   -20250327.200 6 -15672582.912 1        12.500           0.719
  19361447.818    -4463273.878 6  -3425579.866 1        15.500           1.000
  19980891.951   -20332641.617 6 -11078006.476 1        13.500           0.688
 96  4  3 20 53 59.9900000  0  7 02 07 15 09 26 27 04
  18549751.154   -14401840.157 7 -11163028.440 3        26.250           2.563
  17428012.576   -23603123.729 7 -18277569.998 3        24.500           2.750
  21471747.975   -13017581.289 5                         7.500
  20732028.514    -6649902.731 5  -4919734.984 1        11.000           0.375
  20304601.889   -20286279.782 6 -15700597.919 1        12.750           0.781
  19366617.068    -4436108.862 6  -3404412.373 1        15.000           1.000
  19949063.608   -20499900.659 6 -11208338.144 1        14.250           0.719
 96  4  3 20 54 29.9900000  0  7 02 07 15 09 26 27 04
  18540799.990   -14448875.777 7 -11199679.573 3        26.000           2.625
  17417332.326   -23659244.299 7 -18321300.302 3        24.500           2.875
  21471913.404   -13016715.274 5 -10057099.648 1         7.500           0.219
  20700908.865    -6813432.984 5  -5047161.099 1        11.250           0.438
  20297834.514   -20321838.342 6 -15728305.913 1        12.750           0.656
  19371847.756    -4408622.711 6  -3382994.639 1        14.750           1.031
  19917280.170   -20666937.268 6 -11338496.491 1        14.250           0.688
 96  4  3 20 54 59.9900000  0  7 02 07 15 09 26 27 04
  18531883.475   -14495749.450 7 -11236204.518 3        25.750           2.531
  17406725.123   -23714973.433 7 -18364725.593 3        24.750           2.813
  21472158.873   -13015422.731 4 -10056092.503 1         7.250           0.281
  20669821.490    -6976818.485 5  -5174474.422 1        11.500           0.469
  20291136.904   -20357032.416 6 -15755729.875 1        12.750           0.750
  19377134.561    -4380843.795 6  -3361348.785 1        14.500           1.094
  19885530.881   -20833760.384 6 -11468488.481 1        14.000           0.875
 96  4  3 20 55 29.9900000  0  7 02 07 15 09 26 27 04
  18522996.998   -14542446.963 7 -11272592.194 3        25.750           2.500
  17396193.615   -23770311.338 7 -18407846.030 3        24.250           2.781
  21472488.342   -13013700.335 4 -10054750.376 1         7.000           0.281
  20638761.115    -7140039.416 6  -5301659.514 1        12.000           0.469
  20284507.483   -20391862.806 6 -15782870.457 1        12.750           0.656
  19382470.795    -4352798.674 6  -3339495.494 1        14.500           0.938
  19853826.975   -21000380.238 6 -11598322.084 1        14.250           0.813
 96  4  3 20 55 59.9900000  0  7 02 07 15 09 26 27 04
  18514146.998   -14588953.058 7 -11308830.714 3        26.000           2.500
  17385737.842   -23825267.884 7 -18450669.301 3        24.500           2.813
  21472899.928   -13011537.622 4 -10053065.170 1         6.750           0.188
  20607735.037    -7303077.609 5  -5428702.209 1        11.250           0.469
  20277952.740   -20426310.107 6 -15809712.530 1        13.000           0.688
  19387858.397    -4324484.209 6  -3317432.323 1        14.000           1.094
  19822160.983   -21166786.012 6 -11727988.873 1        14.500           0.813
 96  4  3 20 56 29.9900000  0  7 02 07 15 09 26 27 04
  18505330.654   -14635277.175 7 -11344927.436 3        25.750           2.563
  17375344.670   -23879887.604 7 -18493230.111 3        24.250           2.875
  21473385.928   -13008961.072 4 -10051057.491 1         7.250           0.313
  20576740.326    -7465951.689 5  -5555617.031 1        11.250           0.500
  20271466.225   -20460383.990 6 -15836263.615 1        13.000           0.688
  19393296.272    -4295908.841 6  -3295165.846 1        14.000           0.906
  19790530.943   -21332996.593 6 -11857503.575 1        14.500           0.813
 96  4  3 20 56 59.9900000  0  7 02 07 15 09 26 27 04
  18496559.522   -14681386.130 7 -11380856.495 3        25.750           2.594
  17365012.482   -23934162.093 7 -18535521.910 3        24.250           2.969
  21473962.264   -13005950.675 4 -10048711.729 1         7.000           0.219
  20545785.068    -7628630.476 5  -5682379.668 1        11.750           0.406
  20265063.365   -20494035.915 6 -15862485.918 1        12.750           0.719
  19398791.709    -4267028.145 6  -3272661.463 1        14.000           0.875
  19758940.842   -21499000.821 6 -11986857.471 1        14.500           0.750
 96  4  3 20 57 29.9900000  0  7 02 07 15 09 26 27 04
  18487824.147   -14727282.471 7 -11416619.891 2        25.750           2.469
  17354753.264   -23988084.060 7 -18577539.018 3        24.500           2.969
  21474619.365   -13002504.506 4 -10046026.440 1         6.750           0.281
  20514864.107    -7791109.894 5  -5808986.968 1        11.750           0.469
  20258747.639   -20527242.679 6 -15888361.337 1        12.250           0.625
  19404350.733    -4237816.467 6  -3249899.163 1        14.000           0.938
  19727390.147   -21664800.104 6 -12116051.679 1        14.500           0.844
 96  4  3 20 57 59.9900000  0  7 02 07 15 09 26 27 04
  18479126.803   -14772984.190 7 -11452231.625 3        26.000           2.531
  17344560.240   -24041658.760 7 -18619285.528 3        24.500           3.000
  21475351.787   -12998641.908 4 -10043016.622 1         6.500           0.313
  20483977.834    -7953424.941 5  -5935466.185 1        11.750           0.500
  20252507.670   -20560033.266 6 -15913912.460 1        12.000           0.625
  19409974.420    -4208261.396 6  -3226869.285 1        14.000           0.875
  19695877.584   -21830399.158 6 -12245089.860 1        15.000           0.938
 96  4  3 20 58 29.9900000  0  7 02 07 15 09 26 27 04
  18470462.795   -14818508.916 7 -11487705.443 3        25.750           2.500
  17334433.662   -24094871.144 7 -18660749.713 3        24.500           2.938
  21476167.967   -12994364.758 4 -10039683.789 1         6.750           0.281
  20453121.561    -8115577.241 5  -6061818.572 1        11.750           0.531
  20246344.857   -20592415.919 6 -15939145.712 1        12.250           0.656
  19415665.904    -4178351.470 6  -3203562.889 1        13.750           0.938
  19664403.279   -21995802.894 6 -12373975.859 1        14.750           0.938
 96  4  3 20 58 59.9900000  0  7 02 07 15 09 26 27 04
  18461831.834   -14863873.087 7 -11523054.160 2        25.750           2.438
  17324377.170   -24147711.159 7 -18701923.749 3        24.250           2.969
  21477053.201   -12989673.564 4 -10036028.331 1         6.500           0.219
  20422296.061    -8277562.501 6  -6188040.799 1        12.000           0.500
  20240258.115   -20624396.526 6 -15964065.685 1        12.750           0.625
  19421425.373    -4148094.771 6  -3179986.279 1        13.500           0.844
  19632965.475   -22161012.115 6 -12502710.284 1        15.500           0.813
 96  4  3 20 59 29.9900000  0  7 02 07 15 09 26 27 04
  18453229.904   -14909075.631 7 -11558276.930 2        25.250           2.406
  17314394.170   -24200165.980 7 -18742797.626 3        24.250           2.906
  21478031.412   -12984567.255 4 -10032049.399 1         6.500           0.250
  20391502.647    -8439386.326 6  -6314137.247 1        12.500           0.563
  20234248.389   -20655985.372 6 -15988680.388 1        12.500           0.656
  19427244.701    -4117508.247 6  -3156152.675 1        13.750           0.938
  19601566.857   -22326013.423 6 -12631282.698 1        15.250           0.875
 96  4  3 20 59 59.9900000  0  7 02 07 15 09 26 27 04
  18444659.029   -14954106.705 7 -11593366.088 2        25.250           2.469
  17304486.772   -24252247.026 7 -18783380.251 3        24.250           2.875
  21479078.037   -12979040.828 4 -10027743.125 1         6.750           0.313
  20360743.529    -8601033.241 6  -6440095.826 1        12.500           0.563
  20228311.998   -20687183.014 6 -16012990.251 1        12.500           0.688
  19433125.889    -4086608.414 6  -3132074.930 1        13.750           0.875
  19570209.357   -22490790.167 6 -12759680.115 1        15.500           0.844
 96  4  3 21  0 29.9890000  0  7 02 07 15 09 26 27 04
  18436124.267   -14998977.933 7 -11628330.687 2        25.250           2.406
  17294641.150   -24303976.355 7 -18823688.813 3        24.000           2.969
  21480211.142   -12973112.254 4 -10023123.485 1         7.000           0.281
  20330017.962    -8762488.509 6  -6565905.087 1        12.500           0.469
  20222446.782   -20717992.211 6 -16036997.457 1        12.250           0.719
  19439057.306    -4055430.886 6  -3107780.801 1        13.250           0.969
  19538894.634   -22655354.326 6 -12887911.894 1        15.500           0.969
 96  4  3 21  0 59.9890000  0  7 02 07 15 09 26 27 04
  18427620.821   -15043649.118 7 -11663139.415 2        25.500           2.344
  17284866.556   -24355347.211 7 -18863718.049 3        24.250           3.031
  21481413.642   -12966768.432 4 -10018180.263 1         6.750           0.281
  20299329.181    -8923749.480 6  -6691562.930 1        12.000           0.500
  20216660.642   -20748400.603 6 -16060692.321 1        12.500           0.688
  19445042.282    -4023977.403 6  -3083271.636 1        13.750           0.844
  19507620.915   -22819696.210 6 -13015970.467 1        15.500           0.969
 96  4  3 21  1 29.9890000  0  7 02 07 15 09 26 27 04
  18419161.767   -15088090.873 7 -11697769.358 2        25.500           2.344
  17275159.899   -24406365.028 7 -18903472.185 3        24.000           2.906
  21482702.993   -12960006.793 4 -10012911.454 1         6.250           0.375
  20268680.493    -9084812.782 6  -6817066.754 1        12.500           0.563
  20210953.548   -20778404.398 6 -16084071.920 1        12.250           0.719
  19451079.821    -3992259.283 6  -3058556.270 1        14.000           0.875
  19476392.665   -22983802.443 6 -13143845.400 1        16.000           0.969
 96  4  3 21  1 59.9890000  0  7 02 07 15 09 26 27 04
  18410751.024   -15132300.979 7 -11732218.804 2        25.250           2.344
  17265514.978   -24457042.603 7 -18942961.199 3        24.250           3.063
  21484070.431   -12952836.165 4 -10007323.993 1         6.250           0.281
  20238072.267    -9245667.818 6  -6942408.302 1        12.750           0.563
  20205315.642   -20808016.809 6 -16107146.544 1        12.500           0.656
  19457166.095    -3960280.791 6  -3033638.012 1        13.500           0.781
  19445207.892   -23147680.460 6 -13271542.524 1        16.000           0.906
 96  4  3 21  2 29.9890000  0  7 02 07 15 09 26 27 04
  18402381.782   -15176285.502 7 -11766492.457 2        25.250           2.375
  17255934.009   -24507377.461 7 -18982183.164 3        24.000           3.063
  21485511.564   -12945262.825 3 -10001422.727 1         6.000           0.281
  20207502.165    -9406314.267 6  -7067587.315 1        13.000           0.531
  20199757.204   -20837251.752 6 -16129927.047 1        12.250           0.594
  19463297.298    -3928039.854 6  -3008515.243 1        13.750           0.906
  19414064.923   -23311339.961 6 -13399069.367 1        16.500           0.969
 96  4  3 21  2 59.9890000  0  7 02 07 15 09 26 27 04
  18394055.142   -15220043.716 7 -11800589.774 2        25.250           2.250
  17246420.962   -24557369.742 7 -19021138.181 3        24.250           3.000
  21487027.517   -12937284.331 3  -9995205.728 1         5.250           0.313
  20176972.243    -9566756.045 6  -7192606.845 1        12.750           0.500
  20194263.954   -20866102.531 6 -16152408.192 1        12.750           0.531
  19469487.376    -3895529.009 6  -2983182.167 1        13.250           0.750
  19382963.267   -23474771.158 6 -13526418.316 1        16.750           1.031
 96  4  3 21  3 29.9890000  0  7 02 07 15 09 26 27 04
  18385765.251   -15263608.457 7 -11834536.327 2        25.000           2.281
  17236972.845   -24607024.015 7 -19059829.822 3        24.000           2.969
  21488621.923   -12928911.761 3  -9988681.693 1         5.250           0.281
  20146482.446    -9726981.603 6  -7317457.886 1        13.250           0.594
  20188842.259   -20894580.637 5 -16174598.949 1        11.750           0.594
  19475725.798    -3862739.694 6  -2957632.091 1        12.750           0.781
  19351909.157   -23637966.873 6 -13653583.758 1        16.500           1.031
 96  4  3 21  3 59.9890000  0  7 02 07 15 09 26 27 04
  18377507.900   -15306987.875 7 -11868338.474 2        24.750           2.313
  17227592.212   -24656327.621 7 -19098248.210 3        23.750           2.969
  21490288.517   -12920142.336 3  -9981848.383 1         5.250           0.375
  20116036.056    -9886970.975 6  -7442124.882 1        13.500           0.563
  20183494.118   -20922688.174 5 -16196500.956 1        11.500           0.656
  19482022.798    -3829650.663 6  -2931848.489 1        12.750           0.781
  19320899.173   -23800921.924 6 -13780561.674 1        16.500           0.969
 96  4  3 21  4 29.9890000  0  7 02 07 15 09 26 27 04
  18369285.915   -15350195.797 7 -11902006.992 2        25.000           2.156
  17218277.454   -24705284.496 7 -19136396.420 3        24.000           3.094
  21492033.564   -12910981.619 3  -9974710.218 1         5.750           0.219
  20085633.728   -10046735.918 6  -7566617.012 1        13.500           0.531
  20178217.360   -20950422.016 5 -16218111.768 1        11.750           0.563
  19488377.642    -3796268.947 6  -2905836.816 1        12.500           0.750
  19289937.056   -23963633.826 6 -13907350.134 1        16.750           0.969
 96  4  3 21  4 59.9890000  0  7 02 07 15 09 26 27 04
  18361102.329   -15393216.827 7 -11935529.875 2        25.000           2.250
  17209025.650   -24753878.467 7 -19174261.846 3        24.250           3.000
  21493849.314   -12901423.213 3  -9967262.147 1         5.250           0.313
  20055274.360   -10206274.050 6  -7690932.396 1        13.500           0.531
  20173013.759   -20977773.213 5 -16239424.413 1        11.750           0.469
  19494784.017    -3762588.090 6  -2879592.041 1        12.500           0.750
  19259024.899   -24126076.158 6 -14033928.508 1        16.500           0.969
 96  4  3 21  5 29.9890000  0  7 02 07 15 09 26 27 04
  18352946.954   -15436053.992 7 -11968909.487 2        24.750           2.313
  17199850.837   -24802120.332 7 -19211852.904 3        23.750           2.969
  21495745.626   -12891482.478 3  -9959516.118 1         6.000           0.313
  20024956.290   -10365595.535 6  -7815078.965 1        13.500           0.500
  20167876.353   -21004773.198 5 -16260463.385 1        11.750           0.625
  19501246.110    -3728633.732 6  -2853134.158 1        12.750           0.719
  19228162.493   -24288261.649 6 -14160306.759 1        16.750           1.031
 96  4  3 21  5 59.9890000  0  7 02 07 15 09 26 27 04
  18344833.360   -15478708.942 7 -12002147.119 2        24.500           2.281
  17190728.884   -24850030.672 7 -19249185.635 3        24.000           3.031
  21497709.548   -12881171.359 4  -9951481.499 1         6.500           0.344
  19994672.314   -10524733.229 6  -7939082.328 1        13.500           0.469
  20162800.915   -21031430.919 5 -16281235.660 1        11.500           0.563
  19507754.126    -3694438.780 6  -2826488.795 1        12.750           0.781
  19197345.689   -24450205.939 6 -14286497.065 1        16.750           1.063
 96  4  3 21  6 29.9890000  0  7 02 07 15 09 26 27 04
  18336753.720   -15521162.110 7 -12035227.515 2        24.750           2.219
  17181682.806   -24897585.058 7 -19286240.995 3        24.000           3.125
  21499744.696   -12870467.955 4  -9943141.225 1         7.000           0.219
  19964428.173   -10683674.111 6  -8062932.333 1        13.500           0.563
  20157800.454   -21057715.305 5 -16301717.022 1        11.750           0.563
  19514310.892    -3659985.132 6  -2799641.848 1        12.750           0.750
  19166582.454   -24611866.963 6 -14412466.641 1        16.750           1.063
 96  4  3 21  6 59.9890000  0  6 02 07 09 26 27 04
  18328711.556   -15563413.488 7 -12068150.662 2        24.750           2.219
  17172700.751   -24944790.043 7 -19323024.097 3        24.000           3.125
  19934220.454   -10842413.600 6  -8186625.403 1        14.000           0.563
  20152869.439   -21083642.330 5 -16321919.926 1        11.750           0.625
  19520913.939    -3625278.719 6  -2772597.948 1        12.500           0.688
  19135872.618   -24773244.460 6 -14538215.292 1        17.000           1.031
 96  4  3 21  7 29.9890000  0  7 02 07 24 09 26 27 04
  18320710.235   -15605463.318 7 -12100916.761 2        24.500           2.219
  17163781.267   -24991655.640 7 -19359542.741 3        23.750           3.094
  21594221.001          -0.79514                         6.250
  19904052.657   -11000940.502 6  -8310152.821 1        14.500           0.500
  20148005.993   -21109204.401 6 -16341838.450 1        12.000           0.563
  19527563.173    -3590329.329 6  -2745364.709 1        12.500           0.750
  19105217.790   -24934335.848 6 -14663740.995 1        17.250           1.000
 96  4  3 21  7 59.9890000  0  7 02 07 24 09 26 27 04
  18312746.212   -15647314.817 7 -12133528.324 2        24.750           2.250
  17154926.298   -25038186.507 7 -19395800.555 3        23.500           3.094
  21560340.399     -178032.835 3                         5.750
  19873931.032   -11159235.115 6  -8433499.242 1        14.250           0.625
  20143212.017   -21134390.943 5 -16361464.345 1        11.750           0.500
  19534263.212    -3555122.673 6  -2717931.015 1        12.250           0.719
  19074619.337   -25095132.695 6 -14789037.202 1        17.000           0.969
 96  4  3 21  8 29.9890000  0  7 02 07 24 09 26 27 04
  18304820.868   -15688957.021 7 -12165976.803 2        24.250           2.313
  17146138.767   -25084373.592 7 -19431790.487 3        23.750           3.094
  21526450.821     -356111.765 3        -0.25911         5.750           0.125
  19843858.071   -11317270.066 6  -8556643.319 1        14.000           0.688
  20138487.665   -21159211.452 5 -16380805.029 1        11.500           0.531
  19541014.134    -3519644.217 6  -2690285.517 1        12.250           0.719
  19044077.149   -25255634.241 6 -14914103.298 1        17.000           1.094
 96  4  3 21  8 59.9890000  0  7 02 07 24 09 26 27 04
  18296936.603   -15730391.796 7 -12198263.647 2        24.500           2.250
  17137414.509   -25130222.307 7 -19467516.754 3        23.750           3.188
  21492558.275     -534228.470 4   -138792.282 1         6.250           0.125
  19813834.993   -11475040.797 6  -8679581.514 1        14.250           0.688
  20133831.954   -21183677.941 5 -16399869.858 1        11.500           0.531
  19547816.728    -3483908.081 6  -2662439.241 1        12.250           0.625
  19013587.720   -25415857.424 6 -15038952.486 1        17.000           1.188
 96  4  3 21  9 29.9890000  0  7 02 07 24 09 26 27 04
  18289092.900   -15771616.860 7 -12230387.081 2        24.500           2.188
  17128752.267   -25175734.661 7 -19502980.924 3        23.750           3.000
  21458659.321     -712381.429 4   -277612.566 1         6.250           0.188
  19783864.353   -11632546.839 6  -8802313.451 1        14.250           0.719
  20129244.642   -21207782.675 5 -16418652.802 1        11.500           0.375
  19554664.603    -3447916.867 6  -2634394.192 1        12.250           0.688
  18983148.532   -25575812.648 6 -15163592.871 1        17.500           1.188
 96  4  3 21  9 59.9890000  0  7 02 07 24 09 26 27 04
  18281290.376   -15812631.090 7 -12262346.227 2        24.500           2.156
  17120156.720   -25220893.604 7 -19538169.710 3        23.500           3.094
  21424750.493     -890565.718 4   -416457.315 1         6.750           0.188
  19753940.243   -11789786.027 6  -8924837.460 1        14.000           0.625
  20124723.548   -21231532.035 5 -16437158.816 1        11.000           0.500
  19561568.064    -3411644.184 6  -2606129.819 1        12.000           0.656
  18952761.978   -25735500.263 6 -15288024.732 1        17.250           1.156
 96  4  3 21 10 29.9890000  0  7 02 07 24 09 26 27 04
  18273520.392   -15853449.622 7 -12294152.884 2        24.500           2.219
  17111632.282   -25265709.338 7 -19573091.057 3        23.250           3.063
  21390833.454    -1068794.241 4   -555336.537 1         6.750           0.156
  19724063.196   -11946796.833 6  -9047183.510 1        14.500           0.781
  20120267.970   -21254945.740 5 -16455403.286 1        11.000           0.469
  19568519.634    -3375111.122 6  -2577662.555 1        12.250           0.688
  18922422.642   -25894931.528 6 -15412256.848 1        17.500           1.219
 96  4  3 21 10 59.9890000  0  7 02 07 24 09 26 27 04
  18265792.251   -15894075.074 7 -12325809.094 2        24.750           2.094
  17103164.517   -25310187.206 7 -19607749.134 3        23.750           3.094
  21356905.275    -1247071.331 4   -694253.591 1         6.750           0.125
  19694227.485   -12103582.007 6  -9169353.738 1        14.250           0.688
  20115884.048   -21278006.140 5 -16473372.447 1        11.000           0.500
  19575516.204    -3338330.941 5  -2549002.730 1        11.750           0.719
  18892136.610   -26054090.801 6 -15536277.028 1        17.750           1.156
 96  4  3 21 11 29.9890000  0  7 02 07 24 09 26 27 04
  18258097.728   -15934493.983 7 -12357304.354 2        24.500           2.156
  17094767.814   -25354328.848 7 -19642145.220 3        23.750           3.125
  21322970.423    -1425399.549 4   -833210.469 1         7.000           0.125
  19664435.157   -12260144.618 6  -9291350.542 1        14.500           0.719
  20111560.056   -21300716.501 5 -16491068.864 1        10.750           0.469
  19582563.235    -3301303.031 6  -2520149.873 1        12.000           0.719
  18861904.103   -26212961.837 6 -15660072.609 1        18.000           1.125
 96  4  3 21 11 59.9880000  0  7 02 07 24 09 26 27 04
  18250447.168   -15974706.775 7 -12388639.005 2        24.500           2.219
  17086428.598   -25398136.376 7 -19676280.946 3        23.750           3.156
  21289033.973    -1603757.419 4   -972190.472 1         7.250           0.219
  19634683.942   -12416487.387 6  -9413176.042 1        14.500           0.781
  20107304.715   -21323091.530 5 -16508503.973 1        10.500           0.500
  19589659.410    -3264027.259 5  -2491103.876 1        11.750           0.750
  18831728.762   -26371529.323 6 -15783631.663 1        17.750           1.094
 96  4  3 21 12 29.9880000  0  7 02 07 24 09 26 27 04
  18242839.871   -16014693.429 7 -12419797.446 2        24.500           2.250
  17078155.692   -25441609.188 7 -19710155.858 3        23.500           3.063
  21255089.207    -1782129.914 4  -1111181.882 1         6.750           0.156
  19604978.871   -12572596.953 6  -9534819.824 1        15.000           0.750
  20103110.746   -21345121.548 5 -16525670.240 1        10.750           0.469
  19596796.238    -3226510.900 5  -2461870.413 1        11.500           0.656
  18801613.817   -26529782.063 6 -15906945.457 1        18.000           1.188
 96  4  3 21 12 59.9880000  0  7 02 07 24 09 26 27 04
  18235271.496   -16054452.898 7 -12450778.863 2        24.500           2.063
  17069947.066   -25484761.467 7 -19743781.004 3        23.500           3.031
  21221143.566    -1960511.261 4  -1250180.166 1         6.250           0.188
  19575318.848   -12728449.161 6  -9656263.071 1        14.750           0.719
  20098980.981   -21366817.327 5 -16542576.063 1        10.750           0.406
  19603980.129    -3188771.837 5  -2432463.409 1        11.750           0.594
  18771559.324   -26687728.310 6 -16030020.420 1        18.000           1.156
 96  4  3 21 13 29.9880000  0  7 02 07 24 09 26 27 04
  18227748.488   -16093980.228 7 -12481579.384 2        24.500           2.094
  17061796.332   -25527597.182 7 -19777159.477 3        23.500           3.156
  21187203.317    -2138897.052 4  -1389181.941 1         6.250           0.094
  19545711.574   -12884040.489 6  -9777503.035 1        14.750           0.750
  20094913.942   -21388203.240 5 -16559240.439 1        10.750           0.563
  19611205.910    -3150799.132 5  -2402874.354 1        11.000           0.656
  18741557.856   -26845382.439 6 -16152867.761 1        18.000           1.125
 96  4  3 21 13 59.9880000  0  7 02 07 24 09 26 27 04
  18220269.981   -16133279.332 7 -12512202.072 2        24.500           2.156
  17053704.551   -25570117.359 7 -19810292.082 3        23.250           3.125
  21153256.481    -2317274.798 3  -1528177.450 1         6.000           0.188
  19516157.996   -13039350.920 6  -9898524.117 1        14.750           0.781
  20090903.863   -21409273.777 5 -16575659.057 1        10.750           0.531
  19618475.824    -3112589.643 5  -2373100.794 1        11.000           0.625
  18711613.926   -27002741.492 6 -16275485.173 1        18.250           1.063
 96  4  3 21 14 29.9880000  0  7 02 07 24 09 26 27 04
  18212832.988   -16172355.928 7 -12542651.381 2        24.250           2.188
  17045671.418   -25612335.318 7 -19843189.184 3        23.250           3.094
  21119305.481    -2495668.925 3  -1667185.704 1         6.000           0.188
  19486657.051   -13194367.500 6 -10019316.212 1        15.500           0.781
  20086954.238   -21430026.230 5 -16591829.841 1        10.750           0.438
  19625788.379    -3074161.293 5  -2343156.692 1        10.750           0.625
  18681726.590   -27159803.192 6 -16397870.881 1        18.500           1.156
 96  4  3 21 14 59.9880000  0  7 02 07 24 09 26 27 04
  18205440.207   -16211205.640 7 -12572923.892 2        24.500           2.219
  17037696.527   -25654247.304 7 -19875847.879 3        23.500           3.156
  21085350.004    -2674088.438 3  -1806213.766 1         5.500           0.125
  19457213.340   -13349099.141 6 -10139886.289 1        15.500           0.750
  20083067.332   -21450444.927 5 -16607740.534 1        10.500           0.500
  19633144.996    -3035506.765 5  -2313036.347 1        10.500           0.625
  18651896.691   -27316555.155 6 -16520015.239 1        18.500           1.250
 96  4  3 21 15 29.9880000  0  7 02 07 24 09 26 27 04
  18198090.590   -16249833.777 7 -12603023.755 2        24.500           2.094
  17029780.996   -25695842.479 7 -19908259.699 3        23.750           3.094
  21051401.137    -2852528.223 4  -1945257.623 1         6.250           0.156
  19427821.082   -13503563.675 6 -10260248.236 1        15.500           0.688
  20079244.223   -21470535.045 5 -16623395.204 1        10.750           0.500
  19640544.192    -2996623.795 5  -2282738.001 1        10.250           0.656
  18622128.574   -27472983.638 6 -16641907.527 1        18.500           1.250
 96  4  3 21 15 59.9880000  0  7 02 07 24 09 26 27 04
  18190781.035   -16288247.747 7 -12632956.729 2        24.500           2.156
  17021925.215   -25737120.410 7 -19940424.318 3        23.750           3.125
  21017442.527    -3030982.629 4  -2084312.896 1         7.000           0.188
  19398476.699   -13657765.287 6 -10380405.299 1        15.500           0.813
  20075486.262   -21490290.997 5 -16638789.490 1        10.500           0.500
  19647984.301    -2957518.142 5  -2252266.118 1         9.750           0.625
  18592426.574   -27629079.681 6 -16763540.761 1        18.500           1.375
 96  4  3 21 16 29.9880000  0  7 02 07 24 09 26 27 04
  18183514.317   -16326447.285 7 -12662722.616 2        24.500           2.219
  17014125.707   -25778090.082 7 -19972348.729 3        23.500           3.156
  20983476.684    -3209468.042 5  -2223392.311 1         8.000           0.250
  19369177.621   -13811720.052 6 -10500370.018 1        15.750           0.844
  20071787.113   -21509725.688 5 -16653933.428 1        10.250           0.438
  19655466.816    -2918206.432 5  -2221633.710 1        10.000           0.656
  18562783.840   -27784851.834 6 -16884921.617 1        18.500           1.375
 96  4  3 21 16 59.9880000  0  7 02 07 24 09 26 27 04
  18176286.301   -16364427.959 7 -12692317.960 2        24.250           2.094
  17006390.801   -25818742.167 7 -20004025.678 3        23.500           3.094
  20949512.856    -3387953.010 5  -2362471.423 1         8.250           0.219
  19339929.285   -13965433.275 6 -10620146.527 1        16.250           0.750
  20068147.504   -21528841.567 5 -16668828.939 1        10.250           0.500
  19662985.738    -2878684.513 5  -2190837.461 1        10.250           0.531
  18533204.848   -27940292.501 6 -17006044.158 1        19.000           1.438
 96  4  3 21 17 29.9880000  0  7 02 07 24 09 26 27 04
  18169095.699   -16402201.233 7 -12721751.692 2        24.000           2.125
  16998716.074   -25859089.621 7 -20035465.257 3        23.250           3.125
  20915544.551    -3566433.922 5  -2501547.375 1         7.750           0.219
  19310726.402   -14118889.747 6 -10739722.961 1        16.250           0.906
  20064568.129   -21547658.671 5 -16683491.651 1        10.250           0.469
  19670548.910    -2838946.777 5  -2159873.056 1        10.250           0.531
  18503685.887   -28095408.001 6 -17126913.336 1        19.000           1.344
 96  4  3 21 17 59.9880000  0  7 02 07 24 09 26 27 04
  18161949.543   -16439771.508 7 -12751027.242 2        24.250           2.063
  16991088.981   -25899151.739 7 -20066682.482 3        23.500           3.250
  20881581.668    -3744921.652 5  -2640628.642 1         7.750           0.156
  19281577.231   -14272074.213 6 -10859087.450 1        16.250           0.813
  20061044.504   -21566170.537 5 -16697916.516 1        10.500           0.500
  19678151.567    -2798993.130 5  -2128740.416 1         9.750           0.594
  18474231.613   -28250193.063 6 -17247525.015 1        19.250           1.375
 96  4  3 21 18 29.9880000  0  7 02 07 24 09 26 27 04
  18154836.871   -16477140.715 7 -12780146.113 2        24.000           2.156
  16983520.192   -25938933.878 7 -20097681.547 3        23.250           3.219
  20847613.473    -3923415.740 4  -2779714.824 1         7.250           0.156
  19252476.285   -14424989.935 6 -10978242.525 1        16.500           0.813
  20057579.824   -21584369.737 5 -16712097.748 1        10.500           0.469
  19685791.176    -2758836.126 5  -2097449.310 1         9.250           0.531
  18444841.293   -28404636.425 6 -17367870.440 1        19.250           1.469
 96  4  3 21 18 59.9880000  0  7 02 07 24 09 26 27 04
  18147761.582   -16514326.053 7 -12809121.710 2        24.000           1.938
  16976002.465   -25978435.115 7 -20128461.730 3        23.750           3.125
  20813651.684    -4101897.341 4  -2918791.353 1         6.750           0.156
  19223430.270   -14577632.228 6 -11097184.537 1        16.000           0.906
  20054176.887   -21602268.854 5 -16726045.139 1        10.250           0.563
  19693475.168    -2718465.703 5  -2065991.921 1         9.500           0.531
  18415518.731   -28558734.062 6 -17487946.469 1        19.000           1.375
 96  4  3 21 19 29.9880000  0  7 02 07 24 09 26 27 04
  18140718.973   -16551326.379 7 -12837953.149 2        24.000           2.094
  16968542.496   -26017638.804 7 -20159010.054 3        23.750           3.156
  20779686.332    -4280379.288 4  -3057868.072 1         6.250           0.250
  19194439.973   -14729986.518 6 -11215902.126 1        16.250           0.875
  20050825.277   -21619878.337 5 -16739766.861 1        10.000           0.531
  19701200.777    -2677866.909 5  -2034356.565 1         9.000           0.531
  18386260.535   -28712485.959 6 -17607753.107 1        19.750           1.406
 96  4  3 21 19 59.9880000  0  7 02 07 24 09 26 27 04
  18133720.785   -16588118.184 7 -12866622.099 2        23.750           2.094
  16961142.598   -26056521.154 7 -20189307.983 3        24.000           3.188
  20745726.598    -4458833.974 3  -3196923.565 1         6.000           0.219
  19165502.941   -14882046.265 6 -11334390.212 1        16.250           0.813
  20047530.856   -21637174.188 5 -16753244.171 1        10.250           0.531
  19708971.457    -2637040.690 5  -2002544.016 1         9.000           0.531
  18357071.988   -28865873.997 6 -17727276.202 1        19.750           1.469
 96  4  3 21 20 29.9880000  0  7 02 07 24 09 26 27 04
  18126757.199   -16624700.180 7 -12895127.558 2        23.500           2.000
  16953808.668   -26095066.764 7 -20219343.522 3        23.750           3.156
  20711777.840    -4637249.741 3  -3335948.751 1         6.000           0.313
  19136624.074   -15033809.044 6 -11452646.901 1        16.250           0.781
  20044302.137   -21654171.217 5 -16766488.649 1        10.000           0.531
  19716782.449    -2595985.745 5  -1970553.219 1         8.750           0.531
  18327949.481   -29018909.605 7 -17846524.683 2        20.000           1.500
 96  4  3 21 20 59.9880000  0  7 02 07 24 09 26 27 04
  18119834.770   -16661067.517 7 -12923465.757 2        23.500           2.125
  16946540.254   -26133272.296 7 -20249114.065 3        23.750           3.094
  20677832.098    -4815635.250 4  -3474950.354 1         6.250           0.219
  19107806.324   -15185256.530 6 -11570657.899 1        17.000           0.875
  20041120.152   -21670884.612 5 -16779512.108 1        10.250           0.500
  19724640.137    -2554690.743 5  -1938375.374 1         9.000           0.531
  18298892.949   -29171599.639 7 -17965503.892 1        20.000           1.438
 96  4  3 21 21 29.9880000  0  7 02 07 24 09 26 27 04
  18112957.567   -16697208.059 7 -12951627.228 2        23.000           2.000
  16939332.340   -26171153.350 7 -20278631.766 3        23.750           3.188
  20643888.824    -4994000.835 4  -3613936.405 1         6.500           0.250
  19079046.020   -15336390.776 6 -11688424.817 1        17.000           0.875
  20037993.410   -21687301.848 5 -16792304.797 1        10.500           0.406
  19732539.043    -2513177.084 5  -1906027.140 1         8.750           0.438
  18269899.957   -29323956.456 6 -18084223.453 2        19.750           1.500
 96  4  3 21 21 59.9880000  0  7 02 07 24 09 26 27 04
  18106125.504   -16733119.061 7 -12979609.842 2        23.250           2.094
  16932176.449   -26208746.328 7 -20307924.990 3        23.500           3.188
  20609949.699    -5172340.512 4  -3752902.279 1         7.250           0.250
  19050341.277   -15487220.838 6 -11805954.707 1        16.750           0.875
  20034926.582   -21703413.992 5 -16804859.756 1        10.500           0.594
  19740477.723    -2471480.505 5  -1873536.385 1         9.500           0.406
  18240971.293   -29475982.492 6 -18202685.262 2        19.750           1.563
 96  4  3 21 22 29.9880000  0  7 02 07 24 09 26 27 04
  18099334.652   -16768807.593 7 -13007419.099 2        22.750           1.969
  16925073.926   -26246063.045 7 -20337002.950 3        23.500           3.250
  20576019.168    -5350668.876 5  -3891859.330 1         7.750           0.281
  19021697.910   -15637750.445 6 -11923250.475 1        17.000           0.906
  20031915.699   -21719246.685 5 -16817196.954 1        10.250           0.438
  19748442.488    -2429615.514 5  -1840914.382 1         9.250           0.406
  18212105.910   -29627679.446 7 -18320890.644 2        20.500           1.563
 96  4  3 21 22 59.9870000  0  7 02 07 24 09 26 27 04
  18092590.444   -16804248.383 7 -13035035.318 2        23.000           2.094
  16918025.226   -26283104.148 7 -20365866.148 3        23.750           3.188
  20542091.265    -5528958.222 5  -4030785.974 1         8.000           0.313
  18993112.898   -15787966.958 6 -12040302.279 1        17.000           0.938
  20028959.273   -21734781.501 5 -16829302.042 1        10.250           0.500
  19756441.937    -2387587.902 5  -1808165.666 1         9.500           0.406
  18183304.929   -29779016.120 7 -18438815.301 2        20.500           1.594
 96  4  3 21 23 29.9870000  0  7 02 07 24 09 26 27 04
  18085894.093   -16839442.617 7 -13062459.415 2        23.000           1.969
  16911028.733   -26319872.100 7 -20394516.494 3        24.000           3.188
  20508173.038    -5707201.527 5  -4169676.755 1         7.750           0.469
  18964583.273   -15937886.769 6 -12157122.886 1        16.750           0.969
  20026061.530   -21750009.222 5 -16841167.834 1        10.250           0.469
  19764466.273    -2345410.260 5  -1775300.053 1         9.250           0.438
  18154575.007   -29929995.126 7 -18556461.249 2        20.750           1.531
 96  4  3 21 23 59.9870000  0  7 02 07 24 09 26 27 04
  18079240.726   -16874405.218 7 -13089703.020 2        23.000           1.938
  16904084.030   -26356363.541 7 -20422951.384 3        23.750           3.219
  20474260.804    -5885406.261 5  -4308537.467 1         8.000           0.406
  18936110.898   -16087515.706 6 -12273716.836 1        17.000           0.844
  20023218.241   -21764958.946 5 -16852817.012 1         9.750           0.438
  19772518.663    -2303090.472 5  -1742323.658 1         8.750           0.344
  18125916.593   -30080598.614 7 -18673814.590 2        20.500           1.656
 96  4  3 21 24 29.9870000  0  7 02 07 24 09 26 27 04
  18072631.866   -16909133.292 7 -13116763.875 2        22.500           1.938
  16897198.280   -26392557.613 7 -20451154.556 3        23.750           3.344
  20440358.398    -6063567.968 5  -4447364.654 1         7.750           0.438
  18907696.054   -16236842.586 6 -12390075.418 1        17.000           1.000
  20020423.952   -21779641.288 5 -16864257.836 1        10.250           0.469
  19780602.812    -2260608.979 5  -1709221.282 1         8.750           0.344
  18097329.523   -30230816.745 7 -18790867.655 2        20.500           1.656
 96  4  3 21 24 59.9870000  0  7 02 07 24 09 26 27 04
  18066063.194   -16943651.587 7 -13143661.263 2        22.250           1.969
  16890361.351   -26428485.165 7 -20479150.052 3        23.500           3.250
  20406461.866    -6241700.457 5  -4586169.077 1         8.000           0.313
  18879329.038   -16385889.851 6 -12506216.117 1        17.000           1.063
  20017676.218   -21794077.021 5 -16875506.481 1        10.000           0.406
  19788713.366    -2217985.071 5  -1676007.910 1         8.500           0.344
  18068813.663   -30380681.317 7 -18907645.215 2        20.750           1.531
 96  4  3 21 25 29.9870000  0  7 02 07 24 09 26 27 04
  18059536.194   -16977942.093 7 -13170381.164 2        22.500           1.938
  16883582.359   -26464113.853 7 -20506912.674 3        23.250           3.375
  20372570.702    -6419789.455 5  -4724939.625 1         8.250           0.344
  18851030.444   -16534624.535 6 -12622113.244 1        17.250           1.031
  20014979.937   -21808251.739 5 -16886551.766 1         9.500           0.531
  19796860.968    -2175184.944 5  -1642657.248 1         8.750           0.500
  18040365.202   -30530164.060 7 -19024125.247 2        20.500           1.688
 96  4  3 21 25 59.9870000  0  7 02 07 24 09 26 27 04
  18053051.812   -17012020.573 7 -13196935.846 2        22.500           1.938
  16876852.694   -26499477.889 7 -20534469.063 3        23.750           3.313
  20338681.468    -6597859.028 5  -4863695.053 1         8.250           0.313
  18822781.335   -16683058.353 6 -12737775.936 1        17.500           1.031
  20012326.366   -21822208.398 5 -16897427.126 1         9.500           0.563
  19805035.921    -2132217.450 5  -1609176.165 1         8.750           0.313
  18011991.796   -30679282.694 7 -19140321.560 2        21.000           1.656
 96  4  3 21 26 29.9870000  0  7 02 07 24 09 26 27 04
  18046610.921   -17045877.790 7 -13223318.114 2        22.000           1.938
  16870171.710   -26534580.899 7 -20561822.062 3        23.750           3.250
  20304809.726    -6775881.682 5  -5002413.903 1         8.750           0.375
  18794597.741   -16831169.174 6 -12853186.947 1        17.500           1.031
  20009713.148   -21835926.921 5 -16908116.922 1         9.250           0.500
  19813246.640    -2089064.474 5  -1575550.551 1         9.000           0.469
  17983681.734   -30828041.452 7 -19256237.446 2        21.500           1.719
 96  4  3 21 26 59.9870000  0  7 02 07 24 09 26 27 04
  18040212.015   -17079510.503 7 -13249525.440 2        22.250           1.813
  16863538.835   -26569425.234 7 -20588973.493 3        23.750           3.250
  20270941.851    -6953850.521 5  -5141090.863 1         9.000           0.188
  18766477.280   -16978943.041 6 -12968335.396 1        17.750           1.031
  20007154.452   -21849382.862 5 -16918602.109 1         9.500           0.406
  19821497.140    -2045711.299 5  -1541768.942 1         8.750           0.469
  17955444.749   -30976432.738 7 -19371866.991 2        21.000           1.688
 96  4  3 21 27 29.9870000  0  7 02 07 24 09 26 27 04
  18033850.218   -17112925.908 7 -13275563.441 2        22.250           1.938
  16856958.710   -26604020.866 7 -20615931.128 3        23.500           3.281
  20237079.710    -7131791.506 5  -5279746.100 1         8.750           0.219
  18738420.405   -17126382.899 6 -13083223.568 1        17.750           1.125
  20004640.710   -21862580.798 5 -16928886.263 1         9.500           0.438
  19829783.655    -2002172.114 5  -1507842.387 1         9.000           0.344
  17927278.069   -31124450.660 7 -19487205.593 2        21.250           1.781
 96  4  3 21 27 59.9870000  0  7 02 07 24 09 26 27 04
  18027534.155   -17146112.530 7 -13301423.165 2        21.750           1.719
  16850423.866   -26638367.201 7 -20642694.507 3        23.500           3.281
  20203226.741    -7309686.954 5  -5418365.866 1         9.000           0.250
  18710430.468   -17273476.766 6 -13197842.144 1        18.000           1.063
  20002182.827   -21875501.700 5 -16938954.534 1         9.500           0.344
  19838102.179    -1958447.284 5  -1473771.160 1         8.500           0.344
  17899183.858   -31272082.440 7 -19602243.322 2        21.500           1.719
 96  4  3 21 28 29.9870000  0  7 02 07 24 09 26 27 04
  18021264.421   -17179071.161 7 -13327105.236 2        22.000           1.750
  16843938.343   -26672441.210 7 -20669245.682 3        23.500           3.188
  20169388.319    -7487529.410 5  -5556944.309 1         8.500           0.250
  18682502.241   -17420236.531 6 -13312200.379 1        18.250           1.000
  19999782.241   -21888126.714 5 -16948792.243 1         9.500           0.469
  19846457.319    -1914543.164 5  -1439560.257 1         8.500           0.344
  17871166.726   -31419316.082 7 -19716970.797 2        21.250           1.719
 96  4  3 21 28 59.9870000  0  7 02 07 24 09 26 27 04
  18015039.655   -17211790.549 7 -13352600.888 2        21.750           1.813
  16837508.108   -26706224.237 7 -20695570.125 3        23.500           3.344
  20135553.413    -7665316.411 5  -5695479.568 1         8.500           0.281
  18654635.944   -17566667.987 6 -13426302.794 1        18.250           1.031
  19997429.273   -21900464.794 5 -16958406.365 1         9.250           0.438
  19854846.726    -1870465.186 5  -1405213.842 1         8.500           0.313
  17843230.749   -31566126.478 7 -19831368.472 2        21.750           1.750
 96  4  3 21 29 29.9870000  0  7 02 07 24 09 26 27 04
  18008855.765   -17244266.145 7 -13377906.567 2        21.750           1.688
  16831140.273   -26739703.880 7 -20721658.158 3        23.750           3.375
  20101734.288    -7843034.624 5  -5833961.221 1         8.750           0.219
  18626833.866   -17712774.461 6 -13540151.971 1        18.250           0.969
  19995135.726   -21912535.047 5 -16967811.805 1         9.000           0.375
  19863267.468    -1826222.030 5  -1370738.760 1         8.250           0.250
  17815375.694   -31712501.960 7 -19945427.247 2        21.750           1.813
 96  4  3 21 29 59.9870000  0  7 02 07 24 09 26 27 04
  18002722.741   -17276513.419 7 -13403034.337 2        21.500           1.688
  16824820.437   -26772901.947 7 -20747526.784 3        24.000           3.281
  20067928.929    -8020677.705 5  -5972384.312 1         8.750           0.344
  18599090.062   -17858575.237 6                        18.250
  19992882.843   -21924376.016 5 -16977038.568 1         9.000           0.375
  19871713.452    -1781830.669 5  -1336148.164 1         8.000           0.156
  17787597.726   -31858467.772 7                        21.750
 96  4  3 21 30 29.9870000  0  7 02 07 24 09 26 27 04
  17996630.421   -17308522.555 7 -13427976.547 2        21.250           1.656
  16818556.507   -26805817.079 7 -20773174.938 3        23.750           3.344
  20034142.249    -8198233.390 5  -6110739.325 1         8.500           0.281
  18571402.882   -18004072.202 6                        18.250
  19990672.460   -21935996.741 5 -16986093.717 1         9.500           0.406
  19880190.210    -1737286.604 5  -1301438.600 1         7.750           0.313
  17759896.679   -32004035.365 7                        21.750
 96  4  3 21 30 59.9870000  0  7 02 07 24 09 26 27 04
  17990583.382   -17340296.128 7 -13452735.190 2        21.500           1.688
  16812345.101   -26838465.053 7 -20798614.921 3        24.000           3.344
  20000370.960    -8375709.921 5  -6249032.637 1         8.750           0.188
  18543778.726   -18149239.169 6                        18.250
  19988502.444   -21947403.144 5 -16994981.871 1         9.000           0.469
  19888695.671    -1692591.145 5  -1266611.066 1         7.750           0.281
  17732272.023   -32149206.013 7                        21.750
 96  4  3 21 31 29.9870000  0  7 02 07 24 09 26 27 04
  17984585.015   -17371831.285 7 -13477308.064 2        21.250           1.719
  16806178.358   -26870867.776 7 -20823863.796 3        24.250           3.250
  19966614.101    -8553111.506 5  -6387267.584 1         8.500           0.281
  18516219.882   -18294061.332 6                        18.500
  19986370.241   -21958594.131 5 -17003702.168 1         9.000           0.438
  19897227.741    -1647756.444 4  -1231675.028 1         7.250           0.281
  17704720.249   -32293992.663 7                        21.750
 96  4  3 21 31 59.9870000  0  7 02 07 24 09 26 27 04
  17978624.999   -17403137.436 7 -13501702.484 2        21.250           1.750
  16800056.491   -26903048.542 7 -20848939.714 3        24.250           3.344
  19932865.999    -8730448.783 5  -6525452.392 1         8.250           0.281
  18488725.523   -18438538.113 6                        18.000
  19984279.569   -21969577.222 5 -17012260.453 1         9.000           0.344
  19905783.671    -1602801.778 5  -1196645.531 1         8.000           0.281
  17677238.280   -32438410.911 7                        21.750
 96  4  3 21 32 29.9870000  0  7 02 07 24 09 26 27 04
  17972713.296   -17434218.038 7 -13525921.156 2        21.000           1.594
  16793976.890   -26934984.029 7 -20873824.511 3        24.500           3.219
  19899132.319    -8907716.965 5  -6663583.395 1         8.500           0.406
  18461301.476   -18582652.640 6                        18.250
  19982237.577   -21980329.655 5 -17020639.013 1         9.000           0.344
  19914361.976    -1557720.764 5  -1161517.560 1         7.750           0.219
  17649831.429   -32582437.104 7                        22.250
 96  4  3 21 32 59.9870000  0  7 02 07 24 09 26 27 04
  17966836.398   -17465082.763 7 -13549971.614 2        21.000           1.656
  16787948.640   -26966676.560 7 -20898519.984 3        24.250           3.281
  19865410.585    -9084924.368 5  -6801667.006 1         8.250           0.375
  18433947.265   -18726400.177 6                        18.250
  19980234.983   -21990856.987 5 -17028842.176 1         8.750           0.406
  19922960.843    -1512523.085 5  -1126298.684 1         8.000           0.313
  17622501.202   -32726062.664 7                        22.000
 96  4  3 21 33 29.9870000  0  7 02 07 24 09 26 27 04
  17961009.991   -17495716.322 7 -13573841.937 2        21.000           1.656
  16781960.562   -26998126.137 7 -20923026.147 3        24.250           3.156
  19831705.101    -9262048.018 5  -6939685.346 1         8.250           0.344
  18406660.023   -18869787.889 6                        18.250
  19978269.773   -22001161.709 5 -17036871.867 1         8.750           0.344
  19931580.585    -1467214.839 5  -1090993.638 1         7.750           0.281
  17595246.413   -32869290.749 7                        22.000
 96  4  3 21 33 59.9870000  0  7 02 07 24 09 26 27 04
  17955222.319   -17526123.706 7 -13597536.022 1        21.000           1.469
  16776028.491   -27029313.832 7 -20947328.243 3        24.000           3.281
  19798019.124    -9439073.645 5  -7077627.324 1         9.000           0.375
  18379439.624   -19012825.880 6 -14553178.827 1        17.750           1.188
  19976349.265   -22011240.401 5 -17044725.453 1         8.750           0.438
  19940229.530    -1421788.577 5  -1055596.664 1         7.750           0.219
  17568067.968   -33012113.283 7 -20958111.060 2        22.250           1.844
 96  4  3 21 34 29.9860000  0  7 02 07 24 09 26 27 04
  17949479.072   -17556313.999 7 -13621060.941 2        20.750           1.563
  16770141.604   -27060239.737 7 -20971426.349 3        24.250           3.188
  19764349.775    -9615999.658 5  -7215491.681 1         9.250           0.313
  18352289.494   -19155516.713 6 -14664366.465 1        18.500           1.031
  19974478.861   -22021096.245 5 -17052405.363 1         8.750           0.344
  19948892.830    -1376246.992 5  -1020109.790 1         8.250           0.344
  17540967.619   -33154523.878 7 -21069080.313 2        22.250           2.000
 96  4  3 21 34 59.9860000  0  7 02 07 24 09 26 27 04
  17943777.650   -17586261.060 7 -13644396.332 2        20.250           1.594
  16764305.541   -27090915.173 7 -20995329.284 3        24.250           3.219
  19730704.088    -9792820.016 5  -7353273.697 1         9.500           0.250
  18325202.932   -19297862.679 6 -14775285.382 1        18.250           1.063
  19972650.510   -22030725.568 5 -17059908.788 1         8.750           0.313
  19957583.940    -1330573.823 5   -984520.417 1         8.000           0.344
  17513944.369   -33296522.828 7 -21179728.813 2        22.500           1.813
 96  4  3 21 35 29.9860000  0  7 02 07 24 09 26 27 04
  17938128.361   -17615963.168 7 -13667540.850 2        20.250           1.531
  16758514.369   -27121337.824 7 -21019035.249 3        24.250           3.156
  19697078.572    -9969521.056 5  -7490962.752 1         9.500           0.406
  18298181.541   -19439850.292 6 -14885925.057 1        18.250           1.188
  19970856.315   -22040127.952 5 -17067235.365 1         8.500           0.375
  19966303.150    -1284760.706 5   -948821.986 1         8.000           0.219
  17487007.900   -33438083.776 7 -21290036.014 2        22.500           1.906
 96  4  3 21 35 59.9860000  0  7 02 07 24 09 26 27 04
  17932514.744   -17645442.048 7 -13690511.429 2        20.500           1.500
  16752776.885   -27151502.667 7 -21042540.320 3        24.250           3.188
  19663471.322   -10146116.998 5  -7628569.906 1         9.250           0.344
  18271228.471   -19581484.617 6 -14996289.445 1        18.250           1.219
  19969109.361   -22049313.135 5 -17074392.715 1         8.500           0.313
  19975049.775    -1238804.088 5   -913011.740 1         7.500           0.281
  17460154.182   -33579203.841 7 -21399999.666 2        22.250           1.969
 96  4  3 21 36 29.9860000  0  7 02 07 24 09 26 27 04
  17926952.440   -17674690.533 7 -13713302.478 1        20.000           1.406
  16747079.424   -27181427.283 7 -21065858.199 3        24.250           3.188
  19629887.815   -10322617.085 5  -7766102.348 1         9.750           0.406
  18244349.283   -19722748.826 6 -15106365.425 1        18.750           1.313
  19967400.299   -22058284.087 5 -17081383.091 1         8.500           0.406
  19983819.315    -1192710.222 5   -877094.558 1         7.750           0.313
  17433382.877   -33719880.870 7 -21509618.099 2        22.750           1.938
 96  4  3 21 36 59.9860000  0  7 02 07 24 09 26 27 04
  17921434.088   -17703682.652 7 -13735893.749 2        20.250           1.500
  16741435.205   -27211103.775 7 -21088982.737 3        24.000           3.219
  19596317.932   -10499014.238 5  -7903554.603 1        10.000           0.344
  18217540.158   -19863624.846 6 -15216138.933 1        18.500           1.219
  19965734.666   -22067032.833 5 -17088200.353 1         8.750           0.344
  19992617.979    -1146473.928 4   -841066.371 1         7.250           0.313
  17406702.283   -33860099.927 7 -21618879.670 2        22.500           2.000
 96  4  3 21 37 29.9860000  0  7 02 07 24 09 26 27 04
  17915965.783   -17732419.362 7 -13758286.004 2        20.250           1.531
  16735834.674   -27240519.765 7 -21111904.289 3        24.000           3.156
  19562771.143   -10675304.622 5  -8040923.682 1        10.250           0.469
  18190808.955   -20004101.775 6 -15325601.451 1        18.500           1.188
  19964115.971   -22075554.524 5 -17094840.667 1         8.250           0.344
  20001443.838    -1100101.922 5   -804932.447 1         7.500           0.219
  17380106.010   -33999856.339 7 -21727780.738 2        22.750           2.094
 96  4  3 21 37 59.9860000  0  7 02 07 24 09 26 27 04
  17910546.854   -17760902.774 7 -13780480.886 1        20.250           1.406
  16730285.377   -27269694.073 7 -21134637.513 3        24.250           3.125
  19529243.307   -10851503.935 5  -8178221.766 1        10.000           0.469
  18164147.838   -20144199.534 6 -15434768.514 1        18.750           1.281
  19962534.268   -22083862.108 5 -17101314.168 1         8.250           0.219
  20010287.533    -1053618.946 4   -768712.046 1         7.250           0.313
  17353594.854   -34139175.489 7 -21836341.081 2        22.750           2.094
 96  4  3 21 38 29.9860000  0  7 02 07 24 09 26 27 04
  17905172.736   -17789137.190 7 -13802481.741 2        20.250           1.531
  16724773.244   -27298656.221 7 -21157205.420 3        24.250           3.188
  19495726.815   -11027626.451 5  -8315460.020 1         9.750           0.531
  18137558.666   -20283937.157 6 -15543654.954 1        19.250           1.313
  19960993.275   -22091977.134 5 -17107637.615 1         8.250           0.313
  20019150.752    -1007051.243 4   -732425.644 1         6.750           0.313
  17327164.049   -34278064.466 7 -21944566.221 2        22.750           1.969
 96  4  3 21 38 59.9860000  0  7 02 07 24 09 26 27 04
  17899848.213   -17817122.103 7 -13824288.190 2        20.250           1.563
  16719302.268   -27327402.114 7 -21179604.820 3        24.250           3.156
  19462228.869   -11203651.624 5  -8452622.406 1         9.750           0.625
  18111031.658   -20423321.226 6 -15652265.899 1        19.250           1.250
  19959481.549   -22099908.206 5 -17113817.723 1         8.000           0.344
  20028027.510     -960395.124 4   -696070.330 1         6.750           0.156
  17300819.900   -34416511.556 7 -22052447.033 2        23.000           2.125
 96  4  3 21 39 29.9860000  0  7 02 07 24 09 26 27 04
  17894566.799   -17844870.334 7 -13845910.200 2        20.000           1.625
  16713874.166   -27355932.167 7 -21201836.028 3        24.250           3.125
  19428755.315   -11379563.431 5  -8589696.453 1        10.250           0.594
  18084577.510   -20562348.421 6 -15760598.761 1        19.250           1.281
  19958004.736   -22107665.709 5 -17119862.576 1         7.750           0.250
  20036925.354     -913657.941 4   -659651.838 1         7.000           0.250
  17274555.338   -34554519.713 7 -22159985.823 2        22.750           2.125
 96  4  3 21 39 59.9860000  0  7 02 07 24 09 26 27 04
  17889333.033   -17872380.185 7 -13867346.466 2        20.000           1.594
  16708488.221   -27384240.358 7 -21223894.364 3        24.250           3.125
  19395303.377   -11555354.975 5  -8726676.804 1        10.500           0.438
  18058193.674   -20701007.727 6 -15868644.955 1        19.000           1.344
  19956562.940   -22115245.978 5 -17125769.340 1         8.000           0.250
  20045835.127     -866820.064 4   -623154.923 1         6.750           0.313
  17248378.002   -34692088.257 7 -22267182.063 2        23.000           2.156
 96  4  3 21 40 29.9860000  0  7 02 07 24 09 26 27 04
  17884142.143   -17899657.001 7 -13888601.141 1        20.000           1.469
  16703143.557   -27412322.359 7 -21245776.440 3        24.250           3.188
  19361876.065   -11731012.238 5  -8863552.521 1        10.750           0.469
  18031878.299   -20839282.712 6 -15976391.676 1        19.000           1.344
  19955154.111   -22122650.737 5 -17131539.322 1         8.000           0.281
  20054766.650     -819876.587 4   -586575.685 1         6.750           0.219
  17222285.596   -34829211.174 7 -22374031.049 2        23.250           2.219
 96  4  3 21 40 59.9860000  0  7 02 07 24 09 26 27 04
  17878991.229   -17926721.424 6 -13909690.311 2        19.750           1.563
  16697840.104   -27440186.406 7 -21267488.691 3        24.250           3.188
  19328475.940   -11906535.997 5  -9000324.209 1        10.250           0.531
  18005639.205   -20977169.550 6 -16083835.941 1        19.250           1.344
  19953775.783   -22129888.901 5 -17137179.511 1         7.750           0.250
  20063721.994     -772838.222 4   -549922.555 1         6.750           0.281
  17196272.283   -34965914.571 7 -22480553.148 2        23.000           2.188
 96  4  3 21 41 29.9860000  0  7 02 07 24 09 26 27 04
  17873882.197   -17953577.107 6 -13930616.836 2        19.500           1.563
  16692582.604   -27467819.353 7 -21289020.851 3        24.000           3.125
  19295099.025   -12081929.916 5  -9136994.724 1         9.750           0.500
  17979477.354   -21114660.372 6 -16190971.626 1        19.500           1.375
  19952429.791   -22136953.558 5 -17142684.471 1         8.000           0.281
  20072691.838     -725692.509 4   -513185.750 1         6.500           0.313
  17170335.549   -35102199.420 7 -22586749.101 2        23.500           2.250
 96  4  3 21 41 59.9860000  0  7 02 07 24 09 26 27 04
  17868813.346   -17980211.821 6 -13951371.185 2        19.750           1.656
  16687369.900   -27495216.711 7 -21310369.449 3        24.250           3.063
  19261748.244   -12257188.133 5  -9273559.498 1        10.000           0.563
  17953389.221   -21251762.162 6 -16297804.178 1        19.500           1.375
  19951120.861   -22143848.134 5 -17148056.929 1         8.250           0.250
  20081684.666     -678429.864 4   -476357.826 1         6.250           0.406
  17144486.049   -35238040.688 7 -22692599.410 2        23.500           2.125
 96  4  3 21 42 29.9860000  0  7 02 07 24 09 26 27 04
  17863789.268   -18006608.846 6 -13971940.307 2        19.500           1.563
  16682199.315   -27522380.689 7 -21331536.192 3        24.000           3.094
  19228428.908   -12432293.939 5  -9410005.491 1        10.250           0.563
  17927373.713   -21388463.165 6 -16404324.420 1        19.750           1.406
  19949841.111   -22150577.953 5 -17153300.998 1         8.250           0.250
  20090700.588     -631059.763 3   -439446.192 1         6.000           0.219
  17118726.783   -35373407.021 7 -22798079.634 2        23.500           2.188
 96  4  3 21 42 59.9860000  0  7 02 07 24 09 26 27 04
  17858811.830   -18032766.284 6 -13992322.739 2        19.500           1.594
  16677075.697   -27549308.398 7 -21352518.827 3        24.000           3.094
  19195134.861   -12607245.777 5  -9546331.526 1        10.500           0.469
  17901436.908   -21524761.288 6 -16510530.730 2        19.500           1.531
  19948589.307   -22157149.725 5 -17158421.914 1         8.250           0.313
  20099731.900     -583591.213 3   -402457.814 1         5.750           0.219
  17093058.752   -35508298.028 7 -22903189.477 2        23.750           2.281
 96  4  3 21 43 29.9860000  0  7 02 07 24 09 26 27 04
  17853883.260   -18058665.148 6 -14012503.693 2        19.750           1.500
  16671994.979   -27576004.901 7 -21373321.299 3        24.000           3.063
  19161869.908   -12782055.201 5  -9682546.595 1        10.500           0.563
  17875577.486   -21660658.796 6 -16616424.875 1        19.750           1.406
  19947364.408   -22163575.776 5 -17163429.272 1         8.250           0.344
  20108782.877     -536034.296 3   -365400.613 1         5.250           0.281
  17067483.010   -35642699.307 7 -23007917.714 2        23.750           2.313
 96  4  3 21 43 59.9860000  0  7 02 07 24 09 26 27 04
  17849011.174   -18084272.612 6 -14032457.579 2        19.750           1.625
  16666960.697   -27602467.664 7 -21393941.640 3        24.000           3.000
  19128633.854   -12956709.995 5  -9818641.161 1        10.000           0.438
  17849795.674   -21796135.906 6 -16721991.436 2        19.750           1.500
  19946174.346   -22169838.667 5 -17168309.518 1         8.250           0.344
  20117847.479     -488394.865 3   -328279.101 1         5.000           0.281
  17042004.104   -35776595.747 7 -23112252.577 2        24.000           2.313
 96  4  3 21 44 29.9860000  0  7 02 07 24 09 26 27 04
  17844191.924   -18109605.519 6 -14052197.529 2        19.500           1.531
  16661963.643   -27628720.242 7 -21414398.201 3        24.000           3.000
  19095421.986   -13131234.907 5  -9954634.539 1         9.750           0.563
  17824094.799   -21931197.462 7 -16827234.193 1        20.250           1.406
  19945013.815   -22175941.619 5 -17173065.104 1         8.250           0.281
  20126921.182     -440697.049 2   -291112.110 1         4.500           0.250
  17016610.440   -35910037.237 7 -23216232.928 2        23.750           2.281
 96  4  3 21 44 59.9860000  0  7 02 07 24 09 26 27 04
  17839421.455   -18134655.956 6 -14071717.365 2        19.250           1.500
  16657010.494   -27654758.163 7 -21434687.494 3        23.750           3.063
  19062236.846   -13305623.032 5 -10090521.303 1         9.750           0.563
  17798472.572   -22065850.184 7 -16932158.375 2        20.500           1.500
  19943882.815   -22181872.113 5 -17177686.339 1         8.000           0.156
  20136010.596     -392934.443 2   -253894.636 1         4.250           0.188
  16991303.854   -36043023.495 7 -23319858.551 2        24.000           2.313
 96  4  3 21 45 29.9850000  0  7 02 07 24 09 26 27 04
  17834710.638   -18159423.124 6 -14091016.482 2        19.500           1.500
  16652092.583   -27680593.712 7 -21454819.095 3        23.750           2.938
  19029078.989   -13479872.580 5 -10226300.085 1        10.500           0.594
  17772924.286   -22200108.290 7 -17036775.064 2        20.500           1.531
  19942789.239   -22187624.624 5 -17182168.889 1         8.000           0.219
  20145112.989     -345107.704 2   -216627.193 1         4.500           0.219
  16966085.966   -36175539.590 7 -23423117.816 2        23.750           2.375
 96  4  3 21 45 59.9850000  0  7 02 07 24 09 26 27 04
  17830047.411   -18183940.922 6 -14110121.283 2        19.000           1.563
  16647212.310   -27706234.864 7 -21474799.222 3        23.750           3.000
  18995946.239   -13653985.985 5 -10361972.811 1        10.750           0.563
  17747446.232   -22333985.543 7 -17141094.985 1        20.500           1.469
  19941728.591   -22193202.398 5 -17186515.259 1         7.750           0.313
  20154227.466     -297218.364 2   -179310.954 1         4.750           0.219
  16940956.138   -36307599.283 7 -23526021.439 2        23.750           2.281
 96  4  3 21 46 29.9850000  0  7 02 07 24 09 26 27 04
  17825420.857   -18208235.200 6 -14129051.909 2        18.750           1.500
  16642370.466   -27731685.793 7 -21494631.119 3        23.750           2.906
  18962838.763   -13827961.599 5 -10497538.168 1        11.000           0.563
  17722040.817   -22467479.541 7 -17245116.269 2        21.000           1.531
  19940695.044   -22198621.953 5 -17190738.359 1         8.000           0.313
  20163351.294     -249274.082 3   -141951.907 1         5.000           0.063
  16915915.692   -36439196.183 7 -23628564.446 2        23.500           2.406
 96  4  3 21 46 59.9850000  0  7 02 07 24 09 26 27 04
  17820841.341   -18232293.786 6 -14147798.883 1        19.000           1.438
  16637569.310   -27756921.795 7 -21514295.537 3        23.750           2.906
  18929764.599   -14001769.914 5 -10632973.141 1        10.250           0.469
  17696717.903   -22600563.609 7 -17348818.127 2        21.000           1.625
  19939699.724   -22203871.558 5 -17194828.996 1         8.000           0.281
  20172488.497     -201251.359 3   -104531.716 1         5.250           0.031
  16890971.442   -36570275.687 7 -23730704.288 2        23.750           2.375
 96  4  3 21 47 29.9850000  0  7 02 07 24 09 26 27 04
  17816307.325   -18256129.834 6 -14166372.455 2        19.000           1.531
  16632809.841   -27781929.207 7 -21533781.838 3        24.000           3.031
  18896722.466   -14175407.831 5 -10768275.346 1        10.250           0.531
  17671478.130   -22733207.812 7 -17452177.227 2        21.000           1.531
  19938729.974   -22208954.975 5 -17198790.156 1         8.000           0.375
  20181646.021     -153142.992 3                         5.000
  16866122.911   -36700843.995 7 -23832445.791 2        23.500           2.375
 96  4  3 21 47 59.9850000  0  7 02 07 24 09 26 27 04
  17811813.607   -18279756.301 6 -14184782.713 1        18.500           1.406
  16628091.958   -27806716.386 7 -21553096.524 3        23.750           2.844
  18863713.263   -14348875.399 5 -10903444.819 1        10.250           0.469
  17646317.067   -22865410.035 7 -17555191.936 2        21.000           1.563
  19937790.974   -22213894.766 5 -17202639.403 1         8.250           0.344
  20190808.286     -104961.056 3                         5.250
  16841372.802   -36830921.014 7 -23933804.475 2        23.500           2.406
 96  4  3 21 48 29.9850000  0  7 02 07 24 09 26 27 04
  17807358.294   -18303157.976 6 -14203017.808 1        18.500           1.375
  16623417.458   -27831284.095 7 -21572240.199 3        23.750           2.875
  18830737.833   -14522168.566 5 -11038478.384 1        11.000           0.406
  17621247.278   -22997174.653 7 -17657865.643 2        21.000           1.563
  19936876.208   -22218692.809 5 -17206378.199 1         8.250           0.313
  20199993.739      -56706.321 3                         5.250
  16816711.317   -36960504.910 7 -24034778.902 2        24.000           2.313
 96  4  3 21 48 59.9850000  0  7 02 07 24 09 26 27 04
  17802949.130   -18326322.166 6 -14221067.851 1        18.250           1.469
  16618785.989   -27855630.195 7 -21591211.193 3        23.500           2.813
  18797796.341   -14695265.262 5 -11173358.859 1        11.000           0.594
  17596251.513   -23128507.776 7 -17760203.127 2        20.750           1.656
  19935990.786   -22223351.761 5 -17210008.620 1         8.250           0.406
  20209193.317       -8371.866 3                         5.750
  16792149.169   -37089592.475 7 -24135366.590 2        23.750           2.375
 96  4  3 21 49 29.9850000  0  7 02 07 24 09 26 27 04
  17798587.872   -18349246.359 6 -14238930.882 1        18.500           1.438
  16614190.278   -27879772.690 7 -21610023.524 3        24.000           3.031
  18764894.677   -14868173.311 5 -11308092.326 1        11.000           0.531
  17571339.552   -23259432.614 7 -17862222.460 2        21.000           1.719
  19935130.083   -22227881.286 5 -17213538.191 1         7.750           0.406
  20218402.755       40025.016 3                         5.250
  16767672.849   -37218205.687 7 -24235584.645 3        23.750           2.500
 96  4  3 21 49 59.9850000  0  7 02 07 24 09 26 27 04
  17794277.146   -18371905.158 6 -14256587.111 1        18.500           1.344
  16609634.271   -27903714.343 7 -21628679.367 3        23.750           2.875
  18732026.653   -15040890.836 5 -11442677.350 1        11.500           0.563
  17546498.294   -23389969.160 7 -17963939.236 2        21.250           1.594
  19934289.505   -22232286.647 5 -17216971.006 1         8.000           0.375
  20227622.732       88475.827 3                         6.000
  16743293.872   -37346325.813 7 -24335418.475 2        23.500           2.469
 96  4  3 21 50 29.9850000  0  7 02 07 24 09 26 27 04
  17790017.482   -18394295.562 6 -14274034.204 2        18.500           1.500
  16605115.396   -27927458.527 7 -21647181.335 3        23.500           2.938
  18699194.567   -15213424.763 5 -11577119.294 1        11.750           0.594
  17521736.521   -23520108.902 7 -18065346.817 2        21.250           1.719
  19933475.075   -22236581.329 5 -17220317.581 1         7.500           0.313
  20236854.325      136969.981 3        -0.00111         6.000           0.125
  16719006.161   -37473946.701 7 -24434863.291 3        23.500           2.500
 96  4  3 21 50 59.9850000  0  7 02 07 24 09 26 27 04
  17785810.911   -18416399.913 6 -14291258.402 1        18.250           1.375
  16600635.114   -27951002.726 7 -21665527.462 3        23.750           2.875
  18666397.794   -15385771.974 6 -11711415.774 1        12.250           0.594
  17497048.607   -23649836.714 7 -18166433.405 2        21.500           1.750
  19932679.060   -22240766.534 5 -17223578.849 1         7.750           0.281
  20246086.927      185511.188 3     37824.209 1         5.750           0.063
  16694818.372   -37601062.563 7 -24533914.580 3        23.500           2.500
 96  4  3 21 51 29.9850000  0  7 02 07 24 09 26 27 04
  17781660.794   -18438210.944 6 -14308254.036 1        18.250           1.375
  16596192.341   -27974347.365 7 -21683718.107 3        23.750           3.000
  18633635.552   -15557942.241 6 -11845574.359 1        12.250           0.563
  17472442.966   -23779128.083 7 -18267179.917 2        21.500           1.688
  19931900.130   -22244846.230 5 -17226757.913 1         7.500           0.344
  20255334.505      234102.975 3     75687.796 1         5.750           0.156
  16670728.271   -37727664.989 7 -24632565.790 3        23.500           2.531
 96  4  3 21 51 59.9850000  0  7 02 07 24 09 26 27 04
  17777566.732   -18459726.601 6 -14325019.508 1        18.250           1.250
  16591788.021   -27997492.573 7 -21701753.334 3        23.500           2.875
  18600906.942   -15729927.104 6 -11979588.477 1        12.000           0.531
  17447929.833   -23907952.321 7 -18367562.427 2        21.750           1.688
  19931143.122   -22248828.154 4 -17229860.776 1         7.250           0.313
  20264590.794      282744.654 3    113590.262 1         6.000           0.031
  16646733.747   -37853748.965 7 -24730813.016 3        23.500           2.500
 96  4  3 21 52 29.9850000  0  7 02 07 24 09 26 27 04
  17773522.942   -18480970.160 6 -14341572.965 1        18.500           1.219
  16587419.857   -28020452.093 7 -21719643.873 3        23.500           2.906
  18568213.028   -15901729.660 6 -12113460.533 1        12.000           0.594
  17423507.599   -24036299.332 7 -18467573.071 2        21.500           1.719
  19930409.622   -22252705.784 4 -17232882.365 1         7.250           0.250
  20273858.083      331432.989 3    151529.070 1         6.000           0.063
  16622834.513   -37979333.872 7 -24828671.353 2        23.500           2.469
 96  4  3 21 52 59.9850000  0  7 02 07 24 09 26 27 04
  17769529.786   -18501950.421 6 -14357921.240 1        18.250           1.281
  16583086.888   -28043230.950 7 -21737393.639 3        23.750           2.875
  18535555.466   -16073357.088 6 -12247196.122 1        12.000           0.656
  17399174.364   -24164178.451 7 -18567219.126 2        21.750           1.719
  19929689.247   -22256469.459 4 -17235815.192 1         7.250           0.250
  20283132.247      380169.002 3                         5.500
  16599030.442   -38104428.875 7 -24926147.950 2        23.750           2.438
 96  4  3 21 53 29.9850000  0  7 02 07 24 09 26 05 04
  17765582.450   -18522689.897 6 -14374081.890 1        18.000           1.375
  16578785.630   -28065831.279 7 -21755004.286 3        23.500           2.906
  18502929.161   -16244805.376 6 -12380792.133 1        12.500           0.625
  17374924.802   -24291600.627 7 -18666509.121 2        21.750           1.813
  19928996.333   -22260121.340 5 -17238660.849 1         7.500           0.313
  20267932.146          -0.38613                         5.750
  16575317.474   -38229045.046 7 -25023251.428 2        23.750           2.469
 96  4  3 21 53 59.9850000  0  7 02 07 24 09 26 05 04
  17761681.278   -18543186.748 6 -14390053.489 1        17.750           1.344
  16574521.067   -28088241.425 7 -21772466.741 3        23.500           2.938
  18470342.661   -16416056.241 6 -12514234.309 1        12.750           0.531
  17350761.661   -24418567.780 7 -18765444.550 2        21.750           1.750
  19928327.927   -22263634.071 5 -17241398.113 1         7.500           0.281
  20238835.067     -152893.908 4                         6.250
  16551697.091   -38353178.666 7 -25119978.902 3        23.750           2.500
 96  4  3 21 54 29.9850000  0  7 02 07 24 09 26 05 04
  17757826.614   -18563455.867 6 -14405847.636 1        17.500           1.313
  16570292.185   -28110461.093 7 -21789780.772 3        23.500           2.906
  18437791.286   -16587110.341 6 -12647523.157 1        12.500           0.563
  17326682.724   -24545103.068 7 -18864043.461 2        22.000           1.844
  19927685.552   -22267005.858 5 -17244025.552 1         7.500           0.219
  20209735.083     -305832.305 4        -0.31011         6.250           0.063
  16528167.357   -38476823.690 7 -25216325.647 2        23.750           2.469
 96  4  3 21 54 59.9850000  0  7 02 07 24 09 26 05 04
  17754011.677   -18583488.885 6 -14421457.808 1        17.000           1.250
  16566098.396   -28132500.885 7 -21806954.642 3        23.500           2.969
  18405281.349   -16757954.156 6 -12780648.141 1        12.750           0.594
  17302685.864   -24671210.039 7 -18962308.624 2        22.000           1.688
  19927067.661   -22270248.044 4 -17246552.006 1         7.000           0.281
  20180621.974     -458814.561 4   -119207.227 1         6.250           0.156
  16504733.380   -38599966.994 7 -25312281.442 3        23.750           2.500
 96  4  3 21 55 29.9850000  0  7 02 07 24 09 26 05 04
  17750245.419   -18603281.902 6 -14436880.960 1        17.250           1.250
  16561937.489   -28154366.199 7 -21823992.556 3        23.500           2.875
  18372813.755   -16928569.442 6 -12913595.058 1        13.250           0.688
  17278772.567   -24796872.965 7 -19060227.774 2        22.000           1.719
  19926475.130   -22273364.488 4 -17248980.479 1         7.000           0.313
  20151497.278     -611853.542 3   -238458.290 1         6.000           0.094
  16481400.013   -38722585.572 7 -25407828.361 3        24.000           2.594
 96  4  3 21 55 59.9850000  0  7 02 07 24 09 26 05 04
  17746527.177   -18622837.168 6 -14452118.867 1        17.250           1.188
  16557805.669   -28176071.698 7 -21840905.939 3        23.750           2.844
  18340385.630   -17098968.983 6 -13046373.853 1        13.500           0.688
  17254945.888   -24922086.440 7 -19157796.708 2        22.000           1.688
  19925906.567   -22276360.261 4 -17251314.915 1         6.750           0.313
  20122364.872     -764947.165 3   -357751.961 1         5.750           0.094
  16458166.591   -38844676.244 7 -25502963.924 3        24.000           2.625
 96  4  3 21 56 29.9850000  0  7 02 07 24 09 26 05 04
  17742854.028   -18642126.144 6 -14467149.260 1        17.500           1.125
  16553710.552   -28197602.505 7 -21857683.188 3        24.000           2.844
  18308006.739   -17269130.398 6 -13178967.109 1        13.250           0.656
  17231207.466   -25046831.313 7 -19255000.484 2        22.000           1.875
  19925358.505   -22279242.904 4 -17253561.228 1         7.000           0.313
  20093233.450     -918059.130 3                         5.750
  16435039.732   -38966214.254 7 -25597668.839 3        24.000           2.594
 96  4  3 21 56 59.9840000  0  7 02 07 24 09 26 05 04
  17739238.891   -18661136.605 6 -14481962.630 1        17.500           1.219
  16549645.289   -28218953.593 7 -21874320.401 3        23.750           2.906
  18275670.563   -17439051.375 6 -13311372.995 1        12.750           0.750
  17207560.258   -25171100.387 7 -19351833.520 2        22.000           1.875
  19924829.344   -22282029.529 4 -17255732.697 1         6.750           0.344
  20064091.563    -1071192.510 4                         6.250
  16412016.492   -39087201.192 7 -25691944.351 3        24.250           2.500
 96  4  3 21 57 29.9840000  0  7 02 07 24 09 26 05 04
  17735666.695   -18679895.302 6 -14496579.829 1        17.750           1.094
  16545618.156   -28240122.310 7 -21890815.508 3        23.750           2.938
  18243377.555   -17608766.309 6 -13443618.331 1        13.000           0.781
  17183998.070   -25294925.955 7 -19448320.963 2        22.250           1.844
  19924312.703   -22284753.014 4 -17257854.971 1         6.750           0.281
  20034941.000    -1224389.276 3        -0.16511         5.750           0.031
  16389092.984   -39207661.773 7 -25785809.711 3        24.500           2.594
 96  4  3 21 57 59.9840000  0  7 02 07 24 09 26 05 04
  17732150.891   -18698381.058 6 -14510984.338 1        17.500           1.094
  16541628.813   -28261083.158 7 -21907148.639 3        23.500           2.875
  18211122.438   -17778262.840 6 -13575693.483 1        13.250           0.656
  17160520.742   -25418305.414 7 -19544460.793 2        21.750           1.813
  19923803.289   -22287417.944 4 -17259931.623 1         7.250           0.344
  20005778.000    -1377631.448 3   -119409.610 1         5.750           0.125
  16366269.742   -39327590.390 7 -25879260.560 3        24.250           2.563
 96  4  3 21 58 29.9840000  0  7 02 07 24 09 26 05 04
  17728687.469   -18716588.099 6 -14525171.674 1        17.250           1.125
  16537681.453   -28281824.828 7 -21923310.986 3        23.750           2.844
  18178909.367   -17947539.425 6 -13707597.254 1        13.750           0.750
  17137123.625   -25541244.801 7 -19640257.706 2        21.750           1.844
  19923302.156   -22290035.891 4 -17261971.674 1         7.000           0.344
  19976607.500    -1530929.004 3   -238862.247 1         6.000           0.031
  16343551.883   -39446979.854 7 -25972291.286 3        24.000           2.594
 96  4  3 21 58 59.9840000  0  7 02 07 24 09 26 05 04
  17725270.883   -18734522.575 6 -14539146.611 1        17.000           1.125
  16533778.727   -28302345.494 7 -21939301.124 3        24.000           2.750
  18146740.453   -18116591.058 6 -13839325.731 1        13.750           0.750
  17113813.992   -25663734.837 7 -19735704.475 2        22.000           1.906
  19922815.453   -22292584.936 4 -17263958.008 1         7.000           0.125
  19947420.789    -1684293.626 3   -358367.068 1         5.500           0.156
  16320938.758   -39565818.952 7 -26064893.157 3        24.000           2.594
 96  4  3 21 59 29.9840000  0  7 02 07 24 09 26 05 04
  17721910.656   -18752194.612 6 -14552917.072 1        17.000           1.063
  16529912.000   -28322660.160 7 -21955130.742 3        23.750           2.844
  18114613.500   -18285419.752 6 -13970880.498 1        14.250           0.781
  17090596.789   -25785759.333 7 -19830788.493 2        21.750           1.906
  19922347.906   -22295051.165 4 -17265879.828 1         7.000           0.156
  19918223.375    -1837719.234 3   -477919.442 1         5.750           0.188
  16298426.242   -39684106.602 7 -26157065.332 3        24.250           2.625
 96  4  3 21 59 59.9840000  0  7 02 07 24 09 26 05 04
  17718597.149   -18769608.779 6 -14566486.583 1        16.500           1.125
  16526078.625   -28342797.707 7 -21970822.341 3        23.750           2.813
  18082525.328   -18454039.593 6 -14102272.524 1        14.250           0.750
  17067460.688   -25907322.518 7 -19925513.041 2        21.500           1.844
  19921894.336   -22297423.710 4 -17267728.658 1         7.000           0.219
  19889020.266    -1991204.327 3   -597518.195 1         6.000           0.156
  16276020.383   -39801869.706 7 -26248828.762 3        24.250           2.563
 96  4  3 22  0 29.9840000  0  7 02 07 24 09 26 05 04
  17715331.039   -18786769.851 6 -14579858.884 1        16.500           1.063
  16522280.078   -28362762.737 7 -21986379.516 3        24.000           2.844
  18050481.656   -18622431.765 6 -14233487.139 1        14.500           0.719
  17044421.672   -26028416.248 7 -20019871.781 2        21.750           2.000
  19921468.063   -22299688.618 4 -17269493.603 1         6.750           0.281
  19859799.406    -2144739.265 3   -717155.738 1         5.250           0.125
  16253708.086   -39919105.959 7 -26340181.670 3        24.500           2.656
 96  4  3 22  0 59.9840000  0  7 02 07 24 09 26 05 04
  17712110.227   -18803691.540 6 -14593044.649 1        16.500           1.063
  16518509.867   -28382581.031 7 -22001822.348 3        23.750           2.750
  18018483.875   -18790589.687 6 -14364519.223 1        14.250           0.781
  17021465.234   -26149037.628 7 -20113862.455 2        22.000           2.063
  19921053.274   -22301853.136 4 -17271180.331 1         6.250           0.281
  19830570.094    -2298332.417 3   -836838.650 1         5.500           0.188
  16231499.461   -40035824.659 7 -26431131.281 3        24.750           2.719
 96  4  3 22  1 29.9840000  0  7 02 07 24 09 26 05 04
  17708934.399   -18820374.800 6 -14606044.622 1        16.500           1.125
  16514765.399   -28402254.971 7 -22017152.700 3        24.000           2.875
  17986529.234   -18958506.928 6 -14495363.764 1        14.500           0.688
  16998602.524   -26269185.149 7 -20207483.894 2        22.000           1.969
  19920660.477   -22303929.707 3 -17272798.534 1         6.000           0.313
  19801337.719    -2451968.169 3   -956554.734 1         5.000           0.219
  16209381.188   -40152042.583 7 -26521690.681 3        24.500           2.750
 96  4  3 22  1 59.9840000  0  7 02 07 24 09 26 05 04
  17705806.422   -18836816.994 6 -14618856.749 1        16.500           1.063
  16511048.305   -28421794.235 7 -22032378.105 3        24.000           2.750
  17954619.781   -19126183.706 6 -14626020.931 1        14.000           0.750
  16975824.422   -26388885.439 7 -20300756.835 2        22.250           2.000
  19920277.859   -22305946.776 3 -17274370.367 1         5.250           0.219
  19772089.461    -2605652.609 3  -1076308.798 1         5.250           0.219
  16187361.492   -40267766.103 7 -26611864.830 3        24.500           2.688
 96  4  3 22  2 29.9840000  0  7 02 07 24 09 26 05 04
  17702723.906   -18853022.328 6 -14631484.318 1        16.250           1.125
  16507354.484   -28441199.212 7 -22047498.873 3        24.250           2.656
  17922761.875   -19293600.145 6 -14756475.235 1        14.250           0.813
  16953133.570   -26508120.987 7 -20393667.649 2        22.250           2.031
  19919898.000   -22307917.586 3 -17275906.165 1         5.500           0.188
  19742839.524    -2759382.555 3  -1196098.308 1         5.750           0.344
  16165439.586   -40382965.270 7 -26701630.393 3        24.250           2.625
 96  4  3 22  2 59.9840000  0  7 02 07 24 09 26 05 04
  17699688.016   -18868982.533 6 -14643920.873 1        15.750           1.031
  16503684.945   -28460479.975 7 -22062522.850 3        24.250           2.656
  17890952.078   -19460762.745 6 -14886731.749 1        14.500           0.813
  16930537.203   -26626880.725 7 -20486207.698 2        21.750           2.156
  19919533.633   -22309842.381 3 -17277406.092 1         5.750           0.344
  19713576.922    -2913156.182 3  -1315921.854 1         5.250           0.156
  16143617.469   -40497631.359 7 -26790980.570 3        24.250           2.719
 96  4  3 22  3 29.9840000  0  7 02 07 24 09 26 05 04
  17696701.242   -18884675.490 6 -14656149.176 1        15.750           1.000
  16500041.914   -28479624.629 7 -22077440.772 3        24.000           2.625
  17859188.258   -19627680.498 6 -15016797.476 1        14.500           0.875
  16908026.406   -26745164.997 7 -20578377.253 2        22.250           2.156
  19919175.274   -22311735.127 3 -17278881.058 1         6.000           0.219
  19684309.719    -3066960.230 3  -1435769.120 1         5.500           0.125
  16121900.609   -40611767.341 7 -26879917.676 3        24.250           2.625
 96  4  3 22  3 59.9840000  0  7 02 07 24 09 26 05 04
  17693765.367   -18900092.643 6 -14668162.571 1        15.750           1.031
  16496428.063   -28498626.488 7 -22092247.423 3        24.000           2.563
  17827473.109   -19794351.885 6 -15146671.227 1        14.750           0.844
  16885607.781   -26862967.570 7 -20670171.463 2        22.250           2.063
  19918819.797   -22313601.416 3 -17280335.403 1         5.750           0.250
  19655033.867    -3220798.180 3  -1555642.756 1         5.750           0.125
  16100284.516   -40725356.992 7 -26968429.072 3        24.000           2.625
 96  4  3 22  4 29.9840000  0  7 02 07 24 09 26 05 04
  17690888.852   -18915219.381 6 -14679949.674 1        15.500           1.094
  16492840.250   -28517467.485 7 -22106928.730 3        23.750           2.563
  17795806.430   -19960759.312 6 -15276339.297 1        15.000           0.875
  16863291.602   -26980250.558 7 -20761560.801 2        22.000           2.125
  19918473.352   -22315414.718 3 -17281748.481 1         5.250           0.313
  19625754.938    -3374651.617 3  -1675528.505 1         6.000           0.281
  16078776.836   -40838376.991 7 -27056496.576 3        24.500           2.719
 96  4  3 22  4 59.9840000  0  7 02 07 24 09 26 05 04
  17688064.422   -18930045.139 6 -14691502.251 1        15.000           1.063
  16489288.242   -28536143.727 7 -22121481.653 3        24.000           2.594
  17764185.328   -20126926.210 6 -15405819.943 1        15.000           0.813
  16841072.734   -27097017.390 7 -20852547.936 2        22.250           2.156
  19918136.945   -22317187.592 3 -17283130.057 1         5.250           0.250
  19596477.922    -3528515.561 3  -1795422.423 1         5.750           0.125
  16057374.453   -40950839.317 7 -27144129.537 3        24.250           2.750
 96  4  3 22  5 29.9840000  0  7 02 07 24 09 26 05 04
  17685303.039   -18944578.570 6 -14702827.032 1        15.000           0.938
  16485767.820   -28554636.884 7 -22135891.912 3        23.750           2.625
  17732612.539   -20292843.881 6 -15535106.393 1        15.250           0.844
  16818952.930   -27213261.668 7 -20943127.893 2        22.250           2.063
  19917807.445   -22318914.210 3 -17284475.559 1         5.250           0.281
  19567197.391    -3682379.588 4  -1915316.437 1         6.250           0.281
  16036083.000   -41062734.267 7 -27231320.378 3        24.500           2.813
 96  4  3 22  5 59.9840000  0  7 02 07 24 09 26 05 04
  17682579.938   -18958871.407 6 -14713964.349 1        14.750           1.094
  16482278.883   -28572976.462 7 -22150182.507 3        24.000           2.625
  17701084.250   -20458522.800 6 -15664206.791 1        15.500           0.906
  16796924.766   -27329003.900 7 -21033316.637 2        22.250           2.250
  19917491.500   -22320601.906 3 -17285790.760 1         5.250           0.313
  19537910.727    -3836284.682 4  -2035242.373 1         6.500           0.250
  16014895.813   -41174077.718 7 -27318081.480 3        24.250           2.781
 96  4  3 22  6 29.9840000  0  7 02 07 24 09 26 05 04
  17679909.969   -18972909.152 6 -14724902.877 1        14.750           1.000
  16478819.125   -28591165.401 7 -22164355.711 3        24.000           2.625
  17669604.906   -20623947.608 6 -15793109.182 1        16.000           0.906
  16774995.133   -27444241.599 7 -21123112.242 2        22.000           2.188
  19917177.734   -22322239.227 3 -17287066.685 1         5.250           0.188
  19508618.055    -3990222.293 4  -2155193.695 1         6.750           0.125
  15993816.734   -41284856.844 7 -27404402.851 3        24.500           2.688
 96  4  3 22  6 59.9840000  0  7 02 07 24 09 26 05 04
  17677286.969   -18986695.953 6 -14735645.876 1        14.750           1.000
  16475385.180   -28609201.998 7 -22178410.218 3        24.000           2.688
  17638175.883   -20789111.727 6 -15921808.445 1        16.000           0.906
  16753158.524   -27558990.625 7 -21212527.064 2        22.000           2.219
  19916869.930   -22323841.480 3 -17288315.326 1         5.250           0.250
  19479317.070    -4144201.560 4  -2275177.488 1         7.000           0.344
  15972841.836   -41395080.867 7 -27490291.677 3        24.250           2.781
 96  4  3 22  7 29.9840000  0  7 02 07 24 09 26 05 04
  17674710.453   -19000239.192 6 -14746199.087 1        14.750           0.938
  16471981.367   -28627085.642 7 -22192345.527 3        23.750           2.531
  17606801.844   -20953984.738 6 -16050280.873 1        16.000           1.031
  16731410.563   -27673272.475 7 -21301577.845 2        22.000           2.188
  19916574.430   -22325415.300 3 -17289541.781 1         5.250           0.219
  19450004.641    -4298239.720 4  -2395207.157 1         7.000           0.250
  15951970.180   -41504761.671 7 -27575757.209 3        24.250           2.688
 96  4  3 22  7 59.9830000  0  7 02 07 24 09 26 05 04
  17672184.339   -19013509.515 6 -14756539.632 1        14.500           1.031
  16468608.433   -28644817.686 7 -22206162.714 2        23.750           2.469
  17575486.300   -21118546.713 6 -16178510.929 1        15.750           0.969
  16709757.386   -27787072.704 7 -21390253.340 2        22.000           2.281
  19916274.706   -22326969.032 3 -17290752.589 1         5.250           0.219
  19420681.964    -4452328.071 4  -2515275.934 1         7.250           0.188
  15931203.206   -41613895.210 7 -27660796.303 3        24.250           2.813
 96  4  3 22  8 29.9830000  0  7 02 07 24 09 26 05 04
  17669714.339   -19026491.980 6 -14766655.878 1        14.250           0.969
  16465260.620   -28662402.049 7 -22219864.826 3        23.500           2.531
  17544225.823   -21282823.698 6 -16306518.926 1        16.250           0.906
  16688192.237   -27900395.795 7 -21478557.044 2        21.750           2.313
  19915980.534   -22328516.814 3 -17291958.781 1         5.250           0.094
  19391349.339    -4606464.296 4  -2635382.009 1         7.250           0.344
  15910537.097   -41722487.191 7 -27745413.407 3        24.000           2.688
 96  4  3 22  8 59.9830000  0  7 02 07 24 09 26 05 04
  17667300.862   -19039179.000 6 -14776541.916 1        14.250           0.969
  16461947.339   -28679816.886 7 -22233434.838 2        23.500           2.438
  17513020.308   -21446803.735 6 -16434295.530 1        16.000           0.938
  16666722.862   -28013224.524 7 -21566475.530 2        22.250           2.344
  19915692.901   -22330035.812 3 -17293142.536 1         5.750           0.219
  19362013.605    -4760634.519 5  -2755514.595 1         7.500           0.219
  15889976.816   -41830531.368 7 -27829603.648 3        24.500           2.625
 96  4  3 22  9 29.9830000  0  7 02 07 24 09 26 05 04
  17664941.855   -19051577.870 6 -14786203.402 1        14.000           1.094
  16458664.378   -28697066.821 7 -22246876.348 3        23.500           2.500
  17481871.073   -21610492.835 6 -16561845.429 1        15.750           0.938
  16645350.323   -28125545.989 7 -21653998.745 2        22.250           2.313
  19915411.191   -22331516.227 3 -17294296.201 1         5.750           0.156
  19332669.800    -4914840.390 5  -2875674.975 1         7.500           0.125
  15869520.566   -41938024.751 7 -27913364.705 3        24.750           2.688
 96  4  3 22  9 59.9830000  0  7 02 07 24 09 26 05 04
  17662635.980   -19063695.349 6 -14795645.624 1        14.250           1.000
  16455411.026   -28714165.764 7 -22260200.207 2        23.500           2.438
  17450774.151   -21773917.569 6 -16689189.326 1        16.500           0.906
  16624075.441   -28237344.062 7 -21741114.127 2        22.000           2.313
  19915135.948   -22332945.954 4 -17295410.360 1         6.500           0.063
  19303316.003    -5069080.291 5  -2995861.834 1         7.500           0.219
  15849172.409   -42044950.905 7 -27996683.763 3        24.500           2.656
 96  4  3 22 10 29.9830000  0  7 02 07 24 09 26 05 04
  17660372.323   -19075564.231 6 -14804894.145 1        13.750           0.938
  16452185.620   -28731125.097 7 -22273415.278 2        23.500           2.438
  17419722.441   -21937088.779 6 -16816335.683 1        16.750           1.000
  16602892.941   -28348650.266 7 -21827846.228 2        22.250           2.438
  19914875.159   -22334329.785 4                         6.750
  19273959.323    -5223361.716 5  -3116081.069 1         7.750           0.250
  15828931.355   -42151317.955 7 -28079567.159 3        24.500           2.625
 96  4  3 22 10 59.9830000  0  7 02 07 24 09 26 05 04
  17658162.816   -19087196.464 6 -14813958.255 1        13.500           0.906
  16448983.542   -28747941.004 7 -22286518.589 2        23.750           2.438
  17388722.980   -22099987.053 6 -16943269.361 1        16.250           0.969
  16581803.855   -28459464.960 7 -21914195.338 2        22.500           2.469
  19914618.964   -22335678.306 4                         7.000
  19244591.417    -5377681.973 5  -3236330.566 1         7.500           0.156
  15808799.737   -42257121.642 7 -28162011.572 3        24.250           2.875
 96  4  3 22 11 29.9830000  0  7 02 07 24 09 26 05 04
  17655995.425   -19098584.523 6 -14822832.110 1        13.500           0.938
  16445810.722   -28764617.203 7 -22299513.036 2        23.500           2.375
  17357782.058   -22262592.952 6 -17069975.208 1        16.500           1.094
  16560815.558   -28569769.355 7 -22000146.807 2        22.000           2.313
  19914363.550   -22337011.639 4                         7.000
  19215223.417    -5532026.095 5  -3356598.646 1         7.750           0.219
  15788776.050   -42362342.935 7 -28244002.172 3        24.500           2.719
 96  4  3 22 11 59.9830000  0  7 02 07 24 09 26 05 04
  17653872.847   -19109732.556 6 -14831518.921 1        13.500           0.969
  16442659.722   -28781167.629 7 -22312409.480 2        23.500           2.250
  17326893.198   -22424907.419 6 -17196453.959 1        16.750           1.063
  16539920.261   -28679578.873 7 -22085712.667 2        22.000           2.406
  19914107.425   -22338356.194 4        -0.03711         7.250           0.094
  19185846.659    -5686383.284 5  -3476876.939 1         8.000           0.219
  15768862.191   -42466983.936 7 -28325540.597 3        24.250           2.750
 96  4  3 22 12 29.9830000  0  7 02 07 24 09 26 05 04
  17651797.245   -19120629.966 6 -14840010.460 1        13.250           0.906
  16439538.175   -28797580.307 7 -22325198.587 2        23.000           2.156
  17296067.409   -22586903.776 6 -17322684.843 1        16.750           1.063
  16519119.167   -28788880.248 7 -22170882.570 2        22.250           2.438
  19913850.003   -22339716.238 4                         7.250
  19156476.495    -5840737.187 5  -3597152.645 1         7.750           0.219
  15749063.605   -42571040.971 7 -28406623.986 3        24.500           2.781
 96  4  3 22 12 59.9830000  0  7 02 07 24 09 26 05 04
  17649777.151   -19131261.472 6 -14848294.796 1        13.500           0.969
  16436439.495   -28813860.812 7 -22337884.706 2        23.000           2.281
  17265300.401   -22748581.087 6 -17448667.119 1        17.000           1.094
  16498423.128   -28897651.188 7 -22255639.147 2        22.000           2.406
  19913587.683   -22341101.856 4                         6.750
  19127103.855    -5995099.084 5  -3717434.592 1         7.750           0.219
  15729369.605   -42674519.393 7 -28487256.515 3        24.500           2.719
 96  4  3 22 13 29.9830000  0  7 02 07 24 09 26 05 04
  17647803.737   -19141631.311 6 -14856375.223 1        13.250           0.875
  16433361.941   -28830030.931 7 -22350484.803 2        23.000           2.313
  17234593.581   -22909948.861 6 -17574408.203 1        17.000           1.031
  16477818.683   -29005915.611 7 -22340001.031 2        22.000           2.469
  19913317.589   -22342520.967 4        -0.16511         7.000           0.156
  19097720.487    -6149497.188 5  -3837744.752 1         7.750           0.188
  15709787.808   -42777438.802 7 -28567453.425 3        24.750           2.719
 96  4  3 22 13 59.9830000  0  7 02 07 24 09 26 05 04
  17645882.089   -19151731.873 6 -14864245.830 1        13.250           0.906
  16430307.550   -28846082.023 7 -22362992.154 2        23.000           2.125
  17203943.448   -23071010.208 6 -17699910.511 1        16.750           1.156
  16457314.948   -29113678.258 7 -22423971.921 2        22.250           2.406
  19913046.761   -22343954.789 5     -1117.521 1         7.500           0.063
  19068332.691    -6303927.008 5  -3958079.637 1         7.500           0.219
  15690306.761   -42879796.570 7 -28647212.718 3        24.750           2.719
 96  4  3 22 14 29.9830000  0  7 02 07 24 09 26 05 04
  17644015.823   -19161540.311 6 -14871888.813 1        13.000           0.969
  16427277.651   -28862006.212 7 -22375400.624 2        22.750           2.156
  17173355.441   -23231753.868 6 -17825165.270 1        16.750           1.188
  16436903.378   -29220923.494 7 -22507539.634 2        22.250           2.438
  19912770.769   -22345391.230 4     -2236.926 1         7.000           0.156
  19038938.855    -6458396.815 5  -4078445.671 1         7.500           0.219
  15670938.058   -42981589.331 7 -28726531.734 3        24.750           2.844
 96  4  3 22 14 59.9830000  0  7 02 07 24 09 26 05 04
  17642205.253   -19171048.490 6 -14879297.813 1        12.750           0.875
  16424272.308   -28877797.052 7 -22387705.187 2        23.000           2.094
  17142829.425   -23392175.058 6 -17950168.750 1        17.000           1.156
  16416596.792   -29327654.800 7 -22590706.885 3        22.250           2.500
  19912497.151   -22346831.164 4     -3359.095 1         6.750           0.188
  19009537.519    -6612903.960 5  -4198840.795 1         7.500           0.250
  15651673.948   -43082807.997 7 -28805403.401 3        24.500           2.844
 96  4  3 22 15 29.9830000  0  7 02 07 24 09 26 05 04
  17640449.409   -19180283.702 6 -14886494.131 1        12.500           0.781
  16421289.487   -28893467.616 7 -22399916.041 2        23.000           2.188
  17112359.316   -23552292.083 6 -18074935.225 1        17.000           1.125
  16396376.964   -29433895.547 7 -22673491.882 3        22.500           2.531
  19912224.995   -22348288.736 4     -4494.950 1         6.500           0.156
  18980127.534    -6767449.454 5  -4319265.823 1         7.500           0.219
  15632522.401   -43183462.624 7 -28883835.560 3        24.750           2.781
 96  4  3 22 15 59.9830000  0  7 02 07 24 09 26 05 04
  17638744.667   -19189243.493 6 -14893475.821 1        12.500           0.875
  16418335.823   -28909001.757 7 -22412020.563 2        23.750           2.188
  17081948.737   -23712102.411 6 -18199462.708 1        17.500           1.156
  16376257.972   -29539610.107 7 -22755866.860 2        22.500           2.375
  19911942.487   -22349753.915 3     -5636.812 1         5.750           0.125
  18950717.058    -6922004.814 5  -4439698.516 1         7.750           0.219
  15613476.589   -43283548.420 7 -28961824.472 3        24.500           2.750
 96  4  3 22 16 29.9830000  0  7 02 07 24 09 26 05 04
  17637089.753   -19197925.607 6 -14900241.149 1        12.750           0.875
  16415406.534   -28924394.598 7 -22424014.994 2        23.250           2.125
  17051598.425   -23871587.956 6 -18323737.123 1        17.000           1.281
  16356248.987   -29644784.241 7 -22837820.728 2        22.500           2.438
  19911661.323   -22351217.640 3     -6777.505 1         5.500           0.188
  18921302.847    -7076571.883 5  -4560140.308 1         7.750           0.219
  15594538.136   -43383057.611 7 -29039364.086 3        24.750           2.906
 96  4  3 22 16 59.9830000  0  7 02 07 24 09 26 05 04
  17635485.487   -19206360.274 6 -14906813.643 1        12.500           0.813
  16412499.011   -28939665.966 7 -22435914.766 2        23.250           2.156
  17021308.800   -24030765.509 6 -18447771.536 1        17.500           1.250
  16336331.105   -29749434.978 7 -22919366.751 2        22.500           2.313
  19911384.441   -22352684.224 3     -7920.454 1         5.500           0.094
  18891885.362    -7231159.919 5  -4680598.482 1         7.500           0.344
  15575710.456   -43482006.198 7 -29116466.858 3        25.000           2.844
 96  4  3 22 17 29.9830000  0  7 02 07 24 09 26 05 04
  17633926.816   -19214544.649 6 -14913191.124 1        12.500           0.813
  16409616.300   -28954819.583 7 -22447722.792 2        23.250           2.125
  16991076.480   -24189642.149 6 -18571571.478 1        17.750           1.094
  16316517.972   -29853549.605 7 -23000495.028 2        22.250           2.469
  19911108.331   -22354143.440 3     -9057.592 1         5.500           0.156
  18862467.261    -7385765.357 5  -4801070.188 1         7.500           0.250
  15556990.151   -43580396.269 7 -29193134.426 3        25.000           2.781
 96  4  3 22 17 59.9830000  0  7 02 07 24 09 26 05 04
  17632421.651   -19222469.624 6 -14919366.470 1        12.500           0.875
  16406753.573   -28969853.975 7 -22459437.914 2        23.500           2.219
  16960900.519   -24348211.336 6 -18695131.848 1        17.500           1.313
  16296811.651   -29957127.468 7 -23081205.053 2        22.250           2.469
  19910831.401   -22355600.243 3    -10192.928 1         5.500           0.156
  18833040.800    -7540395.431 5  -4921561.121 1         7.500           0.281
  15538370.862   -43678224.307 7 -29269364.051 3        25.000           2.750
 96  4  3 22 18 29.9830000  0  7 02 07 24 09 26 05 04
  17630967.042   -19230110.540 6 -14925320.475 1        12.500           0.781
  16403919.495   -28984756.439 7 -22471050.232 2        23.250           2.125
  16930789.136   -24506448.511 6 -18818433.505 1        17.500           1.375
  16277203.901   -30060168.916 7 -23161497.089 3        22.250           2.500
  19910553.667   -22357046.183 3    -11319.768 1         5.000           0.156
  18803612.112    -7695033.129 5  -5042057.954 1         7.500           0.156
  15519867.706   -43775451.273 7 -29345125.303 3        25.000           2.875
 96  4  3 22 18 59.9820000  0  7 02 07 24 09 26 05 04
  17629561.889   -19237485.748 6 -14931067.425 1        12.500           0.906
  16401109.272   -28999530.825 7 -22482562.748 2        23.000           2.125
  16900738.514   -24664362.356 6 -18941483.212 1        17.250           1.375
  16257694.756   -30162684.100 7 -23241379.045 3        22.250           2.500
  19910275.115   -22358519.437 3    -12467.897 1         5.000           0.313
  18774186.834    -7849677.824 5  -5162560.285 1         7.750           0.188
  15501482.318   -43872076.282 7 -29420417.501 3        25.250           2.875
 96  4  3 22 19 29.9820000  0  7 02 07 24 09 26 05 04
  17628209.522   -19244597.279 6 -14936608.919 1        12.500           0.844
  16398322.209   -29014175.500 7 -22493974.195 2        23.000           2.125
  16870751.061   -24821953.405 6 -19064281.392 1        17.750           1.344
  16238284.022   -30264680.214 7 -23320856.537 2        22.500           2.469
  19909988.100   -22360043.046 2    -13655.257 1         4.750           0.125
  18744754.287    -8004336.495 5  -5283073.473 1         7.500           0.281
  15483209.795   -43968099.523 7 -29495240.785 3        25.250           2.750
 96  4  3 22 19 59.9820000  0  7 02 07 24 09 26 05 04
  17626900.818   -19251450.247 6 -14941948.947 1        12.250           0.844
  16395558.084   -29028698.540 7 -22505290.864 2        23.000           2.094
  16840828.740   -24979193.720 6 -19186806.272 1        17.500           1.406
  16218970.678   -30366163.387 7 -23399934.333 2        22.500           2.438
  19909686.748   -22361614.853 2    -14880.203 1         4.250           0.188
  18715325.764    -8159002.790 5  -5403592.625 1         7.750           0.219
  15465056.358   -44063508.373 7 -29569585.328 3        25.500           2.781
 96  4  3 22 20 29.9820000  0  7 02 07 24 09 26 05 04
  17625649.740   -19258058.279 6 -14947098.101 1        12.250           0.844
  16392815.545   -29043107.734 7 -22516518.822 2        23.000           2.156
  16810971.154   -25136090.074 6 -19309063.130 1        17.750           1.406
  16199757.303   -30467133.607 7 -23478612.422 2        22.500           2.375
  19909374.162   -22363238.351 1    -16145.448 1         3.500           0.219
  18685888.545    -8313693.045 5  -5524130.438 1         8.500           0.281
  15447016.506   -44158309.105 7 -29643456.007 3        25.250           2.781
 96  4  3 22 20 59.9820000  0  7 02 07 24 09 26 05 04
  17624438.522   -19264417.440 6 -14952053.334 1        12.250           0.781
  16390093.170   -29057409.225 7 -22527662.851 2        22.750           2.125
  16781181.850   -25292645.151 6 -19431054.062 1        17.750           1.438
  16180642.483   -30567585.086 7 -23556886.311 2        22.750           2.375
  19909056.170   -22364915.471 2    -17452.455 1         3.750           0.313
  18656442.600    -8468414.394 5  -5644692.467 1         8.750           0.188
  15429087.178   -44252521.333 7 -29716868.113 3        25.250           2.750
 96  4  3 22 21 29.9820000  0  7 02 07 24 09 26 05 04
  17623278.865   -19270510.464 6 -14956801.183 1        12.250           0.688
  16387392.904   -29071601.104 7 -22538721.466 2        22.750           2.125
  16751456.561   -25448849.686 6 -19552771.839 1        17.750           1.469
  16161629.209   -30667506.379 7 -23634747.049 2        22.750           2.469
  19908731.881   -22366627.022 1    -18786.305 1         3.500           0.219
  18626999.397    -8623154.403 5  -5765269.064 1         8.500           0.313
  15411269.100   -44346153.111 7 -29789827.924 3        25.500           2.844
 96  4  3 22 21 59.9820000  0  6 02 07 24 09 05 04
  17622171.272   -19276333.428 6 -14961338.616 1        12.000           0.813
  16384715.600   -29085678.701 7 -22549691.039 2        23.250           2.125
  16721795.256   -25604713.823 6 -19674224.378 1        17.500           1.438
  16142717.233   -30766895.182 7 -23712192.869 3        22.750           2.500
  18597544.850    -8777928.438 5  -5885872.166 1         9.000           0.313
  15393559.850   -44439213.582 7 -29862342.558 3        25.500           2.781
 96  4  3 22 22 29.9820000  0  6 02 07 24 09 05 04
  17621115.381   -19281877.636 6 -14965658.804 1        12.250           0.750
  16382060.022   -29099630.195 7 -22560562.338 2        23.250           2.063
  16692200.014   -25760236.265 6 -19795410.655 1        17.750           1.469
  16123910.162   -30865732.051 7 -23789208.616 2        22.250           2.438
  18568090.389    -8932728.841 5  -6006495.802 1         9.000           0.313
  15375957.006   -44531714.342 7 -29934421.057 3        25.250           2.844
 96  4  3 22 22 59.9820000  0  6 02 07 24 09 05 04
  17620111.076   -19287150.088 6 -14969767.254 1        12.000           0.750
  16379427.006   -29113475.358 7 -22571350.792 2        23.250           2.125
  16662670.326   -25915417.499 6 -19916331.064 1        17.750           1.438
  16105205.654   -30964022.103 7 -23865798.266 3        22.500           2.531
  18538631.639    -9087538.242 5  -6127126.462 1         8.750           0.250
  15358455.975   -44623679.546 7 -30006082.235 3        25.250           2.625
 96  4  3 22 23 29.9820000  0  6 02 07 24 09 05 04
  17619162.701   -19292154.908 6 -14973667.166 1        12.000           0.688
  16376812.014   -29127199.624 7 -22582045.037 2        23.250           2.188
  16633207.889   -26070245.267 6                        18.000
  16086607.108   -31061757.778 7 -23941955.938 2        22.500           2.438
  18509172.725    -9242342.949 5                         9.250
  15341060.990   -44715092.001 7 -30077312.706 3        25.000           2.813
 96  4  3 22 23 59.9820000  0  6 02 07 24 09 05 04
  17618260.240   -19296892.618 6 -14977358.939 1        12.000           0.719
  16374223.858   -29140811.962 7 -22592652.062 2        23.250           2.125
  16603811.561   -26224718.302 6 -20157344.594 2        18.000           1.531
  16068112.779   -31158934.237 7 -24017677.855 2        22.500           2.406
  18479714.404    -9397145.582 5  -6368378.831 1         9.250           0.281
  15323772.084   -44805948.527 7 -30148109.982 3        25.000           2.844
 96  4  3 22 24 29.9820000  0  6 02 07 24 09 05 04
  17617404.725   -19301376.014 6 -14980852.540 1        12.000           0.688
  16371653.092   -29154320.661 7 -22603178.341 2        23.250           2.188
  16574485.014   -26378838.746 6 -20277438.408 2        18.000           1.625
  16049724.326   -31255558.139 7 -24092969.210 2        22.000           2.438
  18450254.326    -9551937.185 5  -6488995.623 1         9.250           0.406
  15306590.576   -44896247.682 7 -30218472.947 3        25.250           2.781
 96  4  3 22 24 59.9820000  0  6 02 07 24 09 05 04
  17616597.709   -19305610.501 6 -14984152.193 1        12.250           0.719
  16369101.568   -29167728.991 7 -22613626.401 2        23.500           2.156
  16545221.373   -26532618.315 6 -20397266.610 2        18.000           1.500
  16031439.006   -31351652.691 7 -24167848.081 2        22.000           2.406
  18420803.092    -9706726.715 5  -6609610.798 1         9.250           0.313
  15289516.865   -44985973.116 7 -30288388.854 3        25.500           2.750
 96  4  3 22 25 29.9820000  0  6 02 07 24 09 05 04
  17615842.162   -19309578.597 6 -14987244.254 1        12.000           0.594
  16366572.756   -29181017.574 7 -22623981.159 2        23.250           2.094
  16516024.326   -26686048.825 6 -20516822.811 2        18.000           1.563
  16013255.733   -31447209.934 7 -24242308.274 2        22.250           2.406
  18391345.115    -9861528.192 5  -6730235.291 1         9.250           0.344
  15272556.311   -45075097.069 7 -30357836.077 3        25.250           2.844
 96  4  3 22 25 59.9820000  0  7 02 07 24 09 26 05 04
  17615146.186   -19313260.570 6 -14990113.381 1        12.250           0.594
  16364068.483   -29194181.798 7 -22634239.010 2        23.500           2.125
  16486898.076   -26839106.522 6 -20636088.510 2        18.250           1.625
  15995179.076   -31542214.421 7 -24316337.747 2        22.250           2.469
  19905340.740          -0.00713                         5.000
  18361886.483   -10016331.574 5  -6850861.279 1         9.500           0.344
  15255711.100   -45163608.395 7 -30426805.929 3        25.000           2.719
 96  4  3 22 26 29.9820000  0  7 02 07 24 09 26 05 04
  17614497.037   -19316665.827 5 -14992766.881 1        11.750           0.688
  16361583.662   -29207235.037 7 -22644410.378 2        23.250           2.063
  16457843.600   -26991791.120 6 -20755063.485 2        18.500           1.656
  15977201.029   -31636686.507 7 -24389952.367 2        22.250           2.313
  19904910.498       -2247.959 3        -0.16611         5.500           0.375
  18332425.506   -10171142.443 5  -6971493.068 1         9.500           0.406
  15238984.303   -45251509.582 7 -30495300.326 3        24.500           2.969
 96  4  3 22 26 59.9820000  0  7 02 07 24 09 26 05 04
  17613903.912   -19319774.303 5 -14995189.130 1        11.250           0.656
  16359120.365   -29220175.974 7 -22654494.239 2        23.000           2.125
  16428863.748   -27144083.263 6 -20873732.640 2        19.000           1.688
  15959326.404   -31730604.700 7 -24463135.372 2        22.000           2.344
  19904467.076       -4571.988 3     -1811.294 1         5.750           0.156
  18302968.287   -10325944.394 5  -7092117.917 1         9.500           0.406
  15222377.725   -45338788.072 7 -30563309.545 3        24.750           2.906
 96  4  3 22 27 29.9820000  0  7 02 07 24 09 26 05 04
  17613365.389   -19322620.247 5 -14997406.792 1        11.500           0.563
  16356673.779   -29233039.718 7 -22664517.949 2        22.750           1.938
  16399954.287   -27296000.261 6 -20992109.487 2        18.750           1.688
  15941559.092   -31823985.778 7 -24535899.846 2        22.250           2.406
  19904003.100       -7009.669 3     -3710.971 1         6.000           0.188
  18273509.483   -10480760.634 5  -7212753.909 1        10.000           0.469
  15205877.881   -45425483.020 7 -30630864.035 3        24.750           2.875
 96  4  3 22 27 59.9820000  0  7 02 07 24 09 26 05 04
  17612870.975   -19325198.630 5                        11.500
  16354240.756   -29245819.265 7 -22674476.050 2        22.750           2.031
  16371120.350   -27447524.480 6 -21110180.265 2        19.000           1.688
  15923895.404   -31916805.245 7 -24608226.711 2        22.000           2.406
  19903525.701       -9545.255 4                         6.250
  18244052.764   -10635549.539 5  -7333368.604 1        10.000           0.375
  15189493.537   -45511587.791 7 -30697958.646 3        24.750           2.875
 96  4  3 22 28 29.9820000  0  7 02 07 24 09 26 05 04
  17612432.904   -19327509.535 5 -15001216.734 1        11.500           0.594
  16351828.561   -29258508.732 7 -22684363.963 2        22.750           2.000
  16342360.873   -27598659.984 6 -21227948.159 2        18.750           1.750
  15906337.592   -32009065.574 7 -24680117.881 2        22.000           2.344
  19903022.514      -12165.804 4                         6.750
  18214600.459   -10790301.857 5  -7453954.785 1        10.250           0.313
  15173224.233   -45597093.189 7 -30764586.217 3        24.500           2.938
 96  4  3 22 28 59.9820000  0  7 02 07 24 09 26 05 04
  17612042.529   -19329561.833 5 -15002815.981 1        11.500           0.594
  16349429.037   -29271106.981 7 -22694180.800 2        22.500           2.000
  16313673.092   -27749409.677 6 -21345415.413 2        19.000           1.781
  15888894.139   -32100749.959 7 -24751560.259 2        21.750           2.344
  19902509.943      -14863.508 4                         6.750
  18185161.209   -10945030.478 5  -7574522.507 1        10.250           0.375
  15157065.647   -45681994.973 7 -30830743.429 3        24.750           2.875
 96  4  3 22 29 29.9820000  0  7 02 07 24 09 26 05 04
  17611699.951   -19331367.059 5 -15004222.696 1        11.500           0.625
  16347047.686   -29283624.595 7 -22703934.796 2        22.500           1.969
  16285058.131   -27899786.644 6 -21462592.239 2        19.000           1.719
  15871549.779   -32191873.006 7 -24822565.232 2        22.000           2.406
  19901981.717      -17643.935 3        -0.13311         6.000           0.094
  18155717.483   -11099754.693 5  -7695086.778 1        10.500           0.344
  15141023.248   -45766308.500 7 -30896442.277 3        24.750           2.969
 96  4  3 22 29 59.9820000  0  7 02 07 24 09 26 05 04
  17611409.115   -19332899.769 5 -15005417.072 1        11.750           0.625
  16344683.350   -29296050.479 7 -22713617.322 2        22.500           1.781
  16256515.529   -28049777.578 6 -21579468.254 2        18.750           1.781
  15854322.936   -32282424.674 7 -24893124.981 2        22.000           2.313
  19901440.701      -20482.753 3     -2212.358 1         6.000           0.188
  18126276.334   -11254466.098 5  -7815641.079 1        10.000           0.406
  15125093.022   -45850011.417 7 -30961665.322 3        24.750           2.969
 96  4  3 22 30 29.9810000  0  7 02 07 24 09 26 05 04
  17611162.610   -19334168.331 5 -15006405.609 1        11.500           0.500
  16342336.579   -29308386.785 7 -22723230.037 2        22.500           1.875
  16228047.025   -28199383.404 6 -21696044.189 2        19.000           1.813
  15837191.478   -32372428.188 7 -24963257.590 2        21.500           2.344
  19900889.056      -23399.926 4     -4485.678 1         7.250           0.125
  18096833.196   -11409195.440 5  -7936209.353 1        10.000           0.500
  15109281.868   -45933105.315 7 -31026413.804 3        24.500           2.969
 96  4  3 22 30 59.9810000  0  7 02 07 24 09 26 05 04
  17610973.782   -19335173.629 5 -15007189.011 1        11.750           0.469
  16340002.267   -29320639.406 7 -22732777.548 2        21.750           1.813
  16199646.775   -28348620.525 6 -21812332.822 2        19.000           1.750
  15820169.970   -32461898.048 7 -25032974.371 2        21.750           2.281
  19900315.571      -26406.702 5     -6828.829 1         7.500           0.031
  18067386.126   -11563954.876 5  -8056801.080 1        10.000           0.313
  15093580.056   -46015614.257 7 -31090706.478 3        24.750           2.906
 96  4  3 22 31 29.9810000  0  7 02 07 24 09 26 05 04
  17610834.228   -19335906.460 5 -15007760.114 1        11.000           0.563
  16337689.946   -29332798.913 7 -22742252.506 2        22.000           1.875
  16171316.196   -28497478.684 6 -21928326.158 2        18.750           1.719
  15803245.321   -32550831.794 7 -25102273.400 2        21.750           2.313
  19899723.025      -29507.010 5     -9244.821 1         7.750           0.188
  18037930.712   -11718721.830 5  -8177398.659 1        10.000           0.438
  15077991.501   -46097540.668 7 -31154545.231 3        24.500           2.906
 96  4  3 22 31 59.9810000  0  7 02 07 24 09 26 05 04
  17610749.665   -19336356.480 5 -15008110.840 1        11.250           0.500
  16335399.587   -29344832.913 7 -22751629.662 2        21.750           1.781
  16143070.610   -28645933.316 6 -22044005.062 2        19.000           2.000
  15786428.485   -32639214.585 7 -25171143.111 2        22.000           2.375
  19899121.048      -32689.450 4                         6.750
  18008484.259   -11873465.677 5  -8297978.241 1        10.000           0.438
  15062514.150   -46178857.104 7 -31217908.675 3        24.750           3.000
 96  4  3 22 32 29.9810000  0  7 02 07 24 09 26 05 04
  17610716.142   -19336538.910 5                        11.250
  16333130.782   -29356753.390 7 -22760918.348 2        21.750           1.719
  16114895.610   -28793995.943 6 -22159378.504 2        19.000           2.000
  15769709.673   -32727047.338 7 -25239584.223 2        22.000           2.313
  19898493.400      -35970.826 3                         6.000
  17979041.829   -12028188.653 5  -8418541.554 1        10.250           0.375
  15047155.837   -46259583.923 7 -31280812.689 3        25.000           2.875
 96  4  3 22 32 59.9810000  0  7 02 07 24 09 26 05 04
  17610732.673   -19336456.764 5                        11.250
  16330882.243   -29368576.068 7 -22770130.843 2        21.750           1.813
  16086793.650   -28941674.701 6 -22274452.833 2        19.250           1.938
  15753102.501   -32814324.963 7 -25307592.760 2        22.000           2.406
  19897846.400      -39360.090 4                         6.500
  17949601.165   -12182888.215 5  -8539086.625 1        10.250           0.406
  15031904.150   -46339727.644 7 -31343262.323 3        24.750           2.844
 96  4  3 22 33 29.9810000  0  7 02 07 24 09 26 05 04
  17610804.400   -19336080.897 5                        11.000
  16328654.189   -29380278.535 7 -22779249.662 2        21.750           1.750
  16058770.845   -29088932.202 6 -22389198.912 2        19.500           1.938
  15736606.064   -32901023.385 7 -25375149.985 2        22.500           2.375
  19897185.345      -42839.491 3                         5.500
  17920172.204   -12337543.750 5  -8659597.380 1        10.500           0.531
  15016769.767   -46419246.935 7 -31405225.393 3        24.750           2.906
 96  4  3 22 33 59.9810000  0  6 02 07 24 09 05 04
  17610927.556   -19335422.399 5 -15007383.205 1        10.750           0.469
  16326446.939   -29391874.523 7 -22788285.513 2        21.250           1.719
  16030827.712   -29235776.785 6 -22503623.227 2        19.250           1.875
  15720212.579   -32987158.250 7 -25442268.064 2        22.500           2.469
  17890748.392   -12492174.012 5  -8780088.461 1        10.500           0.438
  15001757.025   -46498156.707 7 -31466713.528 3        24.750           2.969
 96  4  3 22 34 29.9810000  0  6 02 07 24 09 05 04
  17611107.509   -19334481.886 5 -15006650.393 1        10.500           0.594
  16324260.525   -29403370.365 7 -22797243.325 2        21.500           1.688
  16002960.470   -29382211.700 6 -22617728.321 2        19.750           1.906
  15703927.540   -33072737.871 7 -25508953.486 2        22.500           2.438
  17861328.212   -12646792.937 5  -8900570.694 1        10.750           0.406
  14986852.415   -46576475.381 7 -31527741.046 3        24.750           2.969
 96  4  3 22 34 59.9810000  0  6 02 07 24 09 05 04
  17611337.407   -19333275.161 5 -15005710.145 1        10.750           0.563
  16322090.689   -29414772.654 7 -22806128.244 2        21.500           1.781
  15975172.923   -29528244.280 6 -22731519.916 2        19.500           1.938
  15687746.665   -33157783.000 7 -25575222.418 2        22.250           2.406
  17831902.431   -12801411.935 5  -9021053.000 1        10.250           0.438
  14972056.610   -46654218.900 7 -31588320.403 3        24.750           2.875
 96  4  3 22 35 29.9810000  0  6 02 07 24 09 05 04
  17611614.290   -19331812.983 5 -15004570.858 1        10.500           0.625
  16319940.384   -29426072.470 7 -22814933.309 2        21.250           1.750
  15947459.657   -29673875.022 6 -22844998.385 2        19.250           1.906
  15671666.009   -33242287.664 7 -25641070.215 2        22.500           2.313
  17802480.126   -12956016.189 5  -9141523.812 1        10.750           0.406
  14957370.696   -46731400.838 7 -31648462.165 3        25.000           2.844
 96  4  3 22 35 59.9810000  0  6 02 07 24 09 05 04
  17611940.493   -19330107.605 5 -15003242.049 1         9.750           0.469
  16317809.423   -29437269.566 7 -22823658.341 2        21.250           1.719
  15919823.165   -29819107.689 6 -22958166.669 2        19.500           1.938
  15655689.665   -33326233.487 7 -25706482.552 2        22.500           2.375
  17773064.157   -13110600.107 5  -9261978.788 1        10.500           0.500
  14942790.821   -46808027.385 7 -31708171.152 3        24.750           2.781
 96  4  3 22 36 29.9810000  0  6 02 07 24 09 05 04
  17612311.314   -19328162.164 5 -15001726.184 1         9.750           0.594
  16315695.329   -29448386.200 7 -22832320.669 2        21.250           1.656
  15892261.189   -29963946.535 6 -23071028.081 2        19.750           2.000
  15639824.228   -33409607.680 7 -25771449.460 2        22.250           2.375
  17743653.876   -13265154.173 5  -9382410.492 1        11.000           0.375
  14928314.478   -46884098.422 7 -31767447.281 3        24.750           2.906
 96  4  3 22 36 59.9810000  0  6 02 07 24 09 05 04
  17612726.243   -19325976.030 5 -15000022.763 1        10.250           0.594
  16313590.845   -29459438.991 7 -22840933.251 2        21.250           1.719
  15864774.743   -30108384.278 7 -23183576.941 2        20.000           2.031
  15624070.626   -33492405.203 7 -25835967.014 2        22.000           2.406
  17714252.470   -13419665.317 5  -9502808.761 1        11.000           0.531
  14913946.314   -46959593.174 7 -31826274.348 3        25.000           2.781
 96  4  3 22 37 29.9810000  0  6 02 07 24 09 05 04
  17613187.767   -19323544.357 5 -14998128.021 1        10.000           0.469
  16311498.985   -29470432.428 7 -22849499.581 2        20.750           1.688
  15837366.978   -30252416.334 7 -23295809.680 2        20.250           2.063
  15608425.525   -33574618.309 7 -25900029.179 2        22.250           2.344
  17684856.735   -13574142.055 5  -9623180.220 1        11.000           0.500
  14899692.712   -47034494.219 7 -31884638.791 3        25.000           2.938
 96  4  3 22 37 59.9810000  0  6 02 07 24 09 05 04
  17613699.306   -19320851.369 5 -14996029.658 1        10.000           0.500
  16309418.345   -29481372.335 7 -22858024.204 2        21.000           1.531
  15810039.993   -30396020.146 7 -23407708.722 2        20.500           2.063
  15592888.423   -33656252.185 7 -25963639.993 2        22.000           2.406
  17655465.595   -13728597.522 5  -9743535.093 1        11.750           0.438
  14885559.681   -47108776.779 7 -31942521.298 3        25.250           2.844
 96  4  3 22 38 29.9810000  0  6 02 07 24 09 05 04
  17614260.868   -19317894.008 5 -14993725.270 1        10.000           0.406
  16307343.587   -29492265.263 7 -22866512.215 2        21.000           1.500
  15782795.970   -30539191.276 7 -23519270.615 2        20.000           2.094
  15577457.993   -33737339.206 7 -26026824.686 2        22.000           2.375
  17626073.728   -13883043.098 5  -9863882.282 1        11.750           0.469
  14871540.892   -47182444.732 7 -31999924.891 3        25.000           2.969
 96  4  3 22 38 59.9810000  0  6 02 07 24 09 05 04
  17614880.337   -19314660.760 5 -14991205.909 1         9.500           0.500
  16305286.532   -29503076.202 7 -22874936.343 2        20.500           1.594
  15755636.946   -30681909.324 7 -23630479.457 2        20.500           2.188
  15562134.321   -33817873.240 7 -26089578.482 2        21.500           2.438
  17596689.610   -14037473.657 5  -9984217.749 1        11.750           0.531
  14857639.696   -47255487.855 7 -32056841.606 3        24.750           2.906
 96  4  3 22 39 29.9810000  0  6 02 07 24 09 05 04
  17615541.025   -19311168.905 5 -14988485.054 1         9.250           0.438
  16303247.306   -29513799.680 7 -22883292.317 2        20.750           1.563
  15728562.017   -30824188.205 7 -23741346.091 2        20.500           2.125
  15546914.165   -33897860.319 7 -26151906.083 2        21.500           2.406
  17567298.860   -14191911.178 5 -10104558.643 1        11.750           0.563
  14843855.540   -47327924.208 7 -32113285.511 3        25.000           2.781
 96  4  3 22 39 59.9810000  0  6 02 07 24 09 05 04
  17616255.548   -19307433.084 5 -14985574.083 1         9.500           0.344
  16301221.134   -29524443.869 7 -22891586.504 2        20.750           1.563
  15701567.837   -30966040.824 7 -23851880.571 2        20.500           2.188
  15531793.454   -33977321.886 7 -26213824.186 2        22.000           2.469
  17537913.025   -14346344.455 5 -10224896.232 1        11.500           0.531
  14830180.634   -47399779.148 7 -32169276.369 3        25.000           2.781
 96  4  3 22 40 29.9810000  0  6 02 07 24 09 05 04
  17617015.798   -19303436.173 5 -14982459.672 1         9.750           0.406
  16299213.400   -29534990.129 7 -22899804.387 1        20.500           1.438
  15674656.493   -31107465.568 7 -23962081.645 2        20.500           2.188
  15516778.907   -34056227.831 7 -26275309.345 2        22.000           2.469
  17508531.626   -14500729.933 5 -10345196.560 1        11.750           0.594
  14816619.790   -47471045.591 7 -32224808.659 3        25.000           2.781
 96  4  3 22 40 59.9810000  0  6 02 07 24 09 05 04
  17617818.650   -19299203.642 5 -14979161.631 1         8.750           0.375
  16297219.267   -29545460.300 7 -22907962.978 1        20.500           1.469
  15647819.540   -31248493.617 7 -24071973.603 2        20.500           2.313
  15501870.259   -34134576.915 7 -26336360.584 2        22.250           2.469
  17479160.360   -14655076.355 5 -10465466.487 1        11.500           0.594
  14803167.603   -47541739.701 7 -32279894.974 3        25.500           2.781
 96  4  3 22 41 29.9800000  0  6 02 07 24 09 05 04
  17618668.442   -19294731.799 5 -14975677.146 1         9.250           0.531
  16295238.809   -29555877.622 7 -22916080.395 1        20.000           1.438
  15621054.887   -31389139.488 7 -24181567.760 2        20.500           2.250
  15487065.715   -34212370.130 7 -26396978.681 2        22.000           2.438
  17449799.746   -14809378.296 6 -10585701.730 1        12.000           0.594
  14789823.527   -47611858.026 7 -32334532.622 3        25.250           2.813
 96  4  3 22 41 59.9800000  0  6 02 07 24 09 05 04
  17619558.598   -19290055.639 5 -14972033.443 1         8.750           0.438
  16293254.051   -29566303.924 7 -22924204.804 2        20.000           1.500
  15594354.238   -31529455.983 7 -24290905.267 2        21.000           2.188
  15472360.762   -34289650.167 7 -26457196.897 2        21.750           2.438
  17420437.145   -14963679.734 6 -10705936.594 1        12.000           0.563
  14776577.731   -47681468.247 7 -32388774.355 3        25.250           2.750
 96  4  3 22 42 29.9800000  0  6 02 07 24 09 05 04
  17620498.574   -19285122.940 5 -14968189.839 1         8.500           0.375
  16291280.129   -29576686.597 7 -22932295.217 1        20.000           1.438
  15567725.777   -31669386.635 7 -24399942.109 2        21.000           2.344
  15457765.996   -34366347.695 7 -26516961.211 2        22.000           2.438
  17391080.238   -15117940.948 6 -10826140.102 1        12.250           0.531
  14763439.629   -47750508.303 7 -32442571.799 3        25.250           2.781
 96  4  3 22 42 59.9800000  0  6 02 07 24 09 05 04
  17621492.285   -19279909.830 5 -14964127.743 1         9.000           0.344
  16289319.293   -29586989.758 6 -22940323.677 2        19.750           1.563
  15541178.535   -31808897.427 7 -24508651.791 2        21.250           2.313
  15443283.387   -34442452.068 7 -26576263.327 2        21.750           2.438
  17361736.981   -15272155.364 6 -10946307.161 1        12.500           0.594
  14750413.535   -47818959.125 7 -32495910.096 3        25.000           2.781
 96  4  3 22 43 29.9800000  0  6 02 07 24 09 05 04
  17622539.121   -19274416.037 5 -14959846.939 1         9.250           0.406
  16287374.660   -29597208.848 6 -22948286.620 2        19.250           1.500
  15514713.676   -31947973.859 7 -24617023.019 2        21.000           2.281
  15428909.621   -34517980.353 7 -26635116.543 2        22.000           2.344
  17332394.113   -15426337.480 6 -11066449.036 1        12.750           0.594
  14737497.902   -47886833.302 7 -32548799.061 3        25.000           2.781
 96  4  3 22 43 59.9800000  0  6 02 07 24 09 05 04
  17623631.707   -19268676.260 5 -14955374.450 1         9.250           0.313
  16285445.152   -29607346.699 6 -22956186.259 1        19.500           1.438
  15488331.488   -32086609.602 7 -24725050.843 2        21.000           2.344
  15414642.871   -34592955.951 7 -26693539.095 2        22.000           2.438
  17303059.129   -15580501.183 6 -11186576.565 1        12.750           0.406
  14724688.988   -47954150.467 7 -32601253.993 3        25.000           2.750
 96  4  3 22 44 29.9800000  0  6 02 07 24 09 05 04
  17624766.621   -19262685.472 5 -14950706.363 1         8.750           0.344
  16283535.121   -29617387.607 6 -22964010.363 1        19.500           1.375
  15462036.965   -32224784.101 7 -24832719.257 2        20.750           2.438
  15400478.879   -34667389.606 7 -26751539.350 2        21.750           2.406
  17273726.192   -15734641.840 6 -11306686.122 1        12.750           0.594
  14711989.488   -48020884.259 7 -32653254.345 3        25.250           2.844
 96  4  3 22 44 59.9800000  0  6 02 07 24 09 05 04
  17625952.660   -19256461.693 5 -14945856.721 1         8.750           0.281
  16281637.434   -29627360.192 6 -22971781.233 1        19.750           1.344
  15435832.027   -32362496.953 7 -24940027.949 2        21.000           2.313
  15386413.996   -34741301.183 7 -26809132.799 2        21.750           2.438
  17244398.918   -15888766.462 6 -11426783.199 1        12.750           0.531
  14699397.301   -48087052.430 7 -32704813.953 3        25.250           2.750
 96  4  3 22 45 29.9800000  0  6 02 07 24 09 05 04
  17627181.207   -19250003.650 5 -14940824.551 1         8.750           0.344
  16279748.488   -29637280.515 6 -22979511.375 1        19.000           1.344
  15409716.457   -32499732.348 7 -25046964.600 2        20.750           2.375
  15372455.668   -34814657.910 7 -26866293.890 2        22.000           2.469
  17215074.520   -16042854.156 6 -11546851.495 1        13.000           0.625
  14686918.692   -48152631.076 7 -32755914.192 3        25.250           2.688
 96  4  3 22 45 59.9800000  0  6 02 07 24 09 05 04
  17628457.777   -19243311.438 5 -14935609.885 1         9.000           0.344
  16277868.387   -29647162.039 6 -22987211.282 1        19.000           1.469
  15383691.465   -32636499.506 7 -25153536.390 2        21.000           2.344
  15358601.262   -34887455.942 7 -26923019.638 2        21.750           2.375
  17185762.871   -16196892.332 6 -11666881.203 1        13.250           0.656
  14674550.832   -48217621.059 7 -32806555.733 3        25.000           2.938
 96  4  3 22 46 29.9800000  0  6 02 07 24 09 05 04
  17629776.988   -19236369.234 5 -14930200.459 1         9.000           0.344
  16275996.090   -29657008.118 6 -22994883.573 1        19.250           1.406
  15357754.246   -32772807.202 7 -25259750.153 2        21.000           2.313
  15344856.254   -34959686.602 7 -26979303.273 2        21.750           2.375
  17156459.832   -16350878.588 6 -11786870.470 1        13.250           0.656
  14662300.770   -48282005.522 7 -32856725.439 3        25.250           2.875
 96  4  3 22 46 59.9800000  0  6 02 07 24 09 05 04
  17631144.246   -19229186.394 5 -14924603.507 1         9.500           0.438
  16274126.074   -29666822.231 6 -23002530.963 1        19.000           1.344
  15331895.238   -32908681.995 7 -25365626.589 2        21.000           2.406
  15331220.129   -35031339.223 7 -27035136.499 3        21.500           2.531
  17127169.309   -16504811.748 6 -11906818.358 1        13.250           0.656
  14650163.957   -48345788.087 7 -32906426.134 3        25.250           2.844
 96  4  3 22 47 29.9800000  0  6 02 07 24 09 05 04
  17632558.738   -19221766.392 5 -14918821.759 1         9.750           0.375
  16272268.543   -29676588.068 6 -23010140.723 1        19.000           1.281
  15306118.520   -33044141.405 7 -25471179.354 2        21.000           2.344
  15317690.402   -35102426.804 7 -27090529.425 2        21.500           2.375
  17097884.863   -16658697.211 6 -12026729.067 1        13.500           0.656
  14638138.184   -48408979.867 7 -32955666.479 3        25.000           2.813
 96  4  3 22 47 59.9800000  0  6 02 07 24 09 05 04
  17634019.402   -19214082.387 5 -14912834.286 1         9.500           0.406
  16270428.574   -29686257.727 6 -23017675.538 1        19.500           1.313
  15280426.215   -33179159.809 7 -25576388.477 2        21.000           2.406
  15304269.340   -35172951.439 7 -27145483.696 3        21.750           2.531
  17068612.777   -16812517.190 6 -12146588.757 1        13.500           0.688
  14626228.520   -48471573.123 7 -33004440.440 3        25.000           2.844
 96  4  3 22 48 29.9800000  0  6 02 07 24 09 05 04
  17635529.020   -19206160.497 5 -14906661.450 1         9.250           0.406
  16268603.395   -29695843.559 6 -23025145.032 1        19.500           1.344
  15254814.067   -33313753.688 7 -25681266.800 2        20.500           2.281
  15290957.457   -35242919.747 7 -27200004.465 2        21.750           2.438
  17039350.356   -16966295.484 6 -12266415.966 1        13.250           0.719
  14614426.176   -48533592.690 7 -33052767.367 3        25.000           2.875
 96  4  3 22 48 59.9800000  0  6 02 07 24 09 05 04
  17637074.332   -19198016.546 5 -14900315.584 1         9.000           0.344
  16266792.559   -29705364.997 6 -23032564.356 1        19.250           1.281
  15229282.176   -33447925.224 7 -25785816.024 2        20.750           2.438
  15277747.957   -35312342.558 7 -27254100.172 2        21.750           2.469
  17010092.137   -17120046.306 6 -12386221.777 1        13.750           0.781
  14602722.699   -48595084.620 7 -33100683.155 3        25.000           2.781
 96  4  3 22 49 29.9800000  0  6 02 07 24 09 05 04
  17638675.098   -19189615.749 5 -14893769.577 1         8.750           0.375
  16264996.152   -29714809.230 6 -23039923.510 1        19.000           1.188
  15203837.934   -33581635.055 7 -25890005.484 2        21.000           2.281
  15264641.504   -35381221.397 7 -27307772.001 3        21.500           2.594
  16980841.879   -17273761.812 6 -12506000.058 1        14.250           0.625
  14591121.231   -48656047.864 7 -33148186.973 3        25.250           2.875
 96  4  3 22 49 59.9800000  0  6 02 07 24 09 05 04
  17640327.309   -19180938.135 5 -14887007.889 1         8.500           0.438
  16263213.848   -29724173.322 6 -23047220.225 1        19.000           1.281
  15178485.574   -33714860.983 7 -25993817.873 2        20.750           2.344
  15251641.152   -35449533.727 7 -27361002.392 2        21.250           2.438
  16951601.293   -17427426.118 6 -12625738.459 1        14.250           0.719
  14579625.199   -48716459.672 7 -33195261.104 3        25.500           2.813
 96  4  3 22 50 29.9800000  0  6 02 07 24 09 05 04
  17642028.637   -19171993.059 5 -14880037.776 1         8.750           0.438
  16261440.395   -29733487.408 6 -23054477.972 1        19.000           1.313
  15153218.684   -33847636.868 7 -26097279.582 2        20.750           2.344
  15238746.098   -35517293.191 7 -27413801.985 3        21.250           2.563
  16922364.910   -17581053.195 6 -12745447.844 1        14.250           0.719
  14568233.488   -48776327.651 7 -33241911.474 3        25.000           2.844
 96  4  3 22 50 59.9800000  0  6 02 07 24 09 05 04
  17643786.926   -19162766.142 5 -14872848.043 1         9.000           0.344
  16259681.715   -29742744.089 6 -23061690.992 1        19.250           1.313
  15128040.535   -33979953.348 7 -26200383.303 2        21.000           2.375
  15225952.270   -35584510.171 7 -27466178.864 2        21.000           2.469
  16893141.731   -17734630.142 6 -12865118.163 1        14.250           0.813
  14556948.442   -48835637.749 7 -33288127.131 3        25.250           2.938
 96  4  3 22 51 29.9800000  0  6 02 07 24 09 05 04
  17645592.504   -19153271.830 5 -14865449.970 1         8.750           0.281
  16257928.137   -29751944.789 6 -23068860.386 1        18.750           1.344
  15102948.707   -34111809.769 7 -26303128.550 2        20.750           2.406
  15213265.684   -35651180.599 7 -27518129.856 2        21.250           2.375
  16863926.887   -17888158.952 6 -12984750.989 1        14.750           0.781
  14545773.270   -48894368.615 7 -33333891.447 3        25.250           2.875
 96  4  3 22 51 59.9800000  0  6 02 07 24 09 05 04
  17647446.574   -19143527.074 5 -14857856.708 1         8.000           0.313
  16256190.559   -29761084.971 6 -23075982.630 1        18.750           1.375
  15077946.746   -34243197.881 7 -26405508.875 3        21.000           2.500
  15200691.192   -35717268.030 7 -27569626.567 2        21.250           2.469
  16834722.660   -18041610.295 6 -13104323.449 1        14.750           0.719
  14534710.848   -48952497.780 7 -33379186.893 3        25.250           2.844
 96  4  3 22 52 29.9790000  0  6 02 07 24 09 05 04
  17649343.484   -19133554.420 5 -14850085.883 1         8.000           0.375
  16254457.398   -29770182.654 6 -23083071.749 1        18.250           1.281
  15053031.335   -34374124.946 7 -26507529.943 3        21.000           2.531
  15188226.390   -35782776.154 7 -27620671.869 3        21.000           2.500
  16805539.835   -18194977.235 6 -13223830.127 1        15.000           0.750
  14523760.773   -49010038.074 7 -33424023.484 3        25.000           2.875
 96  4  3 22 52 59.9790000  0  6 02 07 24 09 05 04
  17651277.335   -19123396.124 5 -14842170.405 1         7.750           0.281
  16252728.952   -29779268.297 6 -23090151.495 1        18.500           1.281
  15028201.507   -34504605.398 7 -26609203.002 2        21.250           2.438
  15175869.398   -35847722.353 7 -27671279.307 3        21.250           2.500
  16776365.499   -18348295.687 6 -13343299.035 1        15.250           0.688
  14512916.265   -49067018.371 7 -33468423.714 3        25.750           2.938
 96  4  3 22 53 29.9790000  0  6 02 07 24 09 05 04
  17653247.179   -19113041.980 4 -14834102.308 1         7.250           0.375
  16251005.257   -29788320.653 6 -23097205.298 1        18.250           1.344
  15003461.210   -34634615.198 7 -26710509.317 3        21.250           2.531
  15163620.960   -35912080.082 7 -27721428.196 3        21.250           2.531
  16747204.148   -18501540.138 6 -13462710.276 1        15.250           0.813
  14502184.351   -49123416.186 7 -33512370.055 3        25.750           2.844
 96  4  3 22 53 59.9790000  0  6 02 07 24 09 05 04
  17655255.624   -19102488.171 5 -14825878.609 1         7.500           0.313
  16249293.015   -29797333.157 6 -23104228.050 1        18.250           1.281
  14978808.616   -34764171.239 7 -26811462.057 2        21.000           2.469
  15151477.655   -35975873.640 7 -27771137.473 3        21.250           2.500
  16718054.655   -18654712.547 6 -13582065.384 1        15.250           0.781
  14491561.694   -49179242.979 7 -33555871.452 3        25.750           2.938
 96  4  3 22 54 29.9790000  0  6 02 07 24 09 05 04
  17657306.257   -19091715.227 4 -14817484.232 1         7.250           0.250
  16247588.624   -29806286.006 6 -23111204.318 1        18.250           1.219
  14954244.405   -34893259.598 7 -26912050.365 2        21.250           2.438
  15139445.226   -36039113.011 7 -27820414.915 2        21.750           2.438
  16688919.804   -18807819.948 6 -13701369.822 1        14.750           0.875
  14481047.241   -49234502.354 7 -33598930.700 3        26.000           3.000
 96  4  3 22 54 59.9790000  0  6 02 07 24 09 05 04
  17659401.132   -19080700.556 4 -14808901.428 1         7.250           0.250
  16245899.382   -29815161.066 6 -23118119.969 1        18.250           1.156
  14929770.062   -35021864.464 7 -27012261.933 3        21.250           2.563
  15127519.429   -36101792.260 7 -27869255.905 2        21.500           2.469
  16659796.109   -18960864.829 6 -13820625.545 1        15.250           0.813
  14470640.851   -49289187.811 7 -33641542.737 3        25.750           2.969
 96  4  3 22 55 29.9790000  0  6 02 07 24 09 05 04
  17661546.655   -19069425.297 5 -14800115.603 1         7.500           0.313
  16244230.960   -29823948.668 6 -23124967.471 1        18.500           1.281
  14905387.819   -35149989.902 7 -27112099.914 3        21.500           2.594
  15115698.148   -36163924.957 7 -27917671.002 2        21.250           2.469
  16630689.835   -19113833.748 6 -13939822.088 1        15.250           0.813
  14460341.296   -49343298.552 7 -33683706.947 3        25.750           3.000
 96  4  3 22 55 59.9790000  0  6 02 07 24 09 05 04
  17663741.069   -19057894.550 4 -14791130.680 1         7.250           0.375
  16242567.929   -29832674.478 6 -23131766.823 1        17.750           1.219
  14881099.210   -35277638.225 7 -27211566.120 3        21.500           2.500
  15103973.890   -36225524.463 7 -27965670.629 3        21.000           2.500
  16601591.757   -19266734.348 6 -14058965.391 1        15.500           0.813
  14450151.155   -49396852.798 7 -33725437.523 3        25.500           2.906
 96  4  3 22 56 29.9790000  0  6 02 07 24 09 05 04
  17665987.007   -19046092.449 5 -14781934.318 1         7.500           0.344
  16240917.015   -29841344.949 6 -23138523.052 1        17.500           1.281
  14856899.304   -35404802.842 7 -27310655.413 3        21.500           2.531
  15092354.218   -36286572.585 7 -28013240.606 2        21.000           2.438
  16572513.444   -19419548.231 6 -14178041.116 1        16.000           0.750
  14440067.062   -49449850.849 7 -33766734.700 3        25.500           2.969
 96  4  3 22 56 59.9790000  0  6 02 07 24 09 05 04
  17668282.601   -19034037.814 5 -14772541.160 1         7.750           0.313
  16239272.069   -29849991.079 6 -23145260.318 1        17.500           1.250
  14832787.484   -35531519.439 7 -27409395.602 3        21.750           2.531
  15080838.866   -36347093.678 7 -28060399.910 3        21.250           2.500
  16543448.312   -19572279.318 6 -14297052.333 1        16.000           0.813
  14430084.913   -49502313.573 7 -33807614.743 3        25.500           2.969
 96  4  3 22 57 29.9790000  0  6 02 07 24 09 05 04
  17670622.530   -19021733.159 4 -14762953.202 1         7.000           0.188
  16237633.780   -29858598.907 6 -23151967.744 1        17.750           1.250
  14808763.968   -35657762.634 7 -27507766.908 3        21.750           2.594
  15069427.327   -36407076.964 7 -28107140.150 2        21.000           2.438
  16514407.944   -19724894.290 6 -14415973.069 1        16.500           0.844
  14420203.351   -49554229.374 7 -33848068.612 3        25.750           2.906
 96  4  3 22 57 59.9790000  0  6 02 07 24 09 05 04
  17673013.484   -19009177.583 5 -14753169.708 1         8.000           0.250
  16236004.569   -29867159.720 6 -23158638.524 1        17.750           1.094
  14784834.343   -35783516.912 7 -27605757.236 3        21.750           2.531
  15058120.101   -36466496.020 7 -28153440.722 2        21.000           2.469
  16485385.187   -19877397.843 6 -14534806.978 1        16.500           0.844
  14410427.523   -49605600.507 7 -33888098.061 3        25.500           3.000
 96  4  3 22 58 29.9790000  0  6 02 07 24 09 05 04
  17675447.054   -18996379.578 5 -14743197.338 1         8.000           0.250
  16234384.484   -29875667.380 6 -23165267.893 1        17.500           1.219
  14760994.835   -35908786.458 7 -27703369.852 3        21.500           2.563
  15046916.804   -36525354.180 7 -28199304.239 2        21.250           2.438
  16456383.304   -20029808.070 6 -14653568.172 1        16.500           0.938
  14400757.468   -49656427.389 7 -33927703.417 3        25.250           2.969
 96  4  3 22 58 59.9790000  0  6 02 07 24 09 05 04
  17677926.515   -18983367.666 5 -14733058.252 1         7.750           0.156
  16232775.944   -29884125.322 6 -23171858.526 1        17.500           1.156
  14737251.335   -36033558.578 7 -27800594.857 3        21.500           2.656
  15035820.366   -36583664.551 7 -28244740.904 3        21.250           2.500
  16427391.319   -20182155.932 6 -14772280.766 1        16.250           0.906
  14391189.491   -49706710.086 7 -33966884.739 3        25.500           3.000
 96  4  3 22 59 29.9790000  0  6 02 07 24 09 05 04
  17680441.874   -18970136.471 5 -14722748.339 1         8.000           0.281
  16231176.687   -29892529.427 6 -23178407.194 1        17.250           1.188
  14713604.890   -36157816.566 7 -27897419.254 3        21.500           2.563
  15024833.218   -36641411.912 7 -28289738.857 2        21.250           2.469
  16398411.062   -20334452.815 6 -14890953.633 1        16.250           0.875
  14381727.952   -49756422.702 7 -34005621.841 3        25.750           2.969
 96  4  3 22 59 59.9790000  0  6 02 07 24 09 05 04
  17683007.819   -18956665.911 5 -14712251.849 1         8.500           0.219
  16229590.390   -29900877.161 6 -23184911.952 1        17.250           1.094
  14690056.351   -36281576.775 7 -27993855.757 3        21.750           2.688
  15013954.054   -36698592.306 7 -28334295.025 3        21.250           2.500
  16369438.077   -20486702.813 6 -15009589.970 1        16.250           0.875
  14372377.179   -49805553.108 7 -34043905.274 3        25.750           3.031
 96  4  3 23  0 29.9790000  0  6 02 07 24 09 05 04
  17685613.249   -18942960.191 5 -14701572.155 1         7.750           0.250
  16228008.577   -29909174.716 6 -23191377.602 1        17.000           1.125
  14666598.046   -36404849.323 7 -28089912.264 3        21.750           2.625
  15003176.616   -36755216.568 7 -28378417.842 2        21.000           2.375
  16340477.921   -20638888.968 6 -15128176.565 1        16.500           0.781
  14363141.835   -49854094.541 7 -34081729.766 3        25.500           3.000
 96  4  3 23  0 59.9790000  0  6 02 07 24 09 05 04
  17688267.038   -18929026.691 5 -14690714.962 1         7.500           0.188
  16226436.991   -29917438.615 6 -23197817.028 1        17.500           1.156
  14643226.726   -36527662.920 7 -28185611.152 3        21.500           2.625
  14992503.929   -36811290.788 7 -28422112.057 2        21.000           2.406
  16311533.960   -20790996.425 6 -15246701.835 1        16.500           0.938
  14354016.726   -49902055.246 7 -34119101.743 3        25.750           2.906
 96  4  3 23  1 29.9790000  0  6 02 07 24 09 05 04
  17690965.679   -18914852.217 5 -14679670.042 1         8.500           0.219
  16224869.382   -29925676.063 6 -23204235.836 1        17.500           1.063
  14619941.194   -36650028.008 7 -28280960.554 3        21.750           2.531
  14981942.335   -36866808.580 7 -28465372.686 2        21.250           2.438
  16282609.062   -20942996.739 6 -15365143.612 1        16.750           0.969
  14344998.241   -49949437.876 7 -34156023.276 3        25.250           2.969
 96  4  3 23  1 59.9790000  0  6 02 07 24 09 05 04
  17693703.984   -18900449.295 5 -14668447.036 1         7.750           0.250
  16223307.210   -29933885.501 6 -23210632.829 1        17.250           1.156
  14596740.452   -36771947.303 7 -28375962.577 3        21.500           2.563
  14971482.710   -36921779.147 7 -28508206.909 2        20.750           2.344
  16253706.280   -21094887.975 6 -15483500.395 1        17.000           0.875
  14336084.444   -49996275.001 7 -34192519.733 3        25.500           3.000
 96  4  3 23  2 29.9790000  0  6 02 07 24 09 05 04
  17696487.726   -18885817.228 4 -14657045.484 1         6.750           0.344
  16221747.968   -29942072.278 6 -23217012.158 1        17.000           1.094
  14573628.890   -36893401.823 7 -28470602.443 3        22.000           2.625
  14961124.523   -36976197.321 7 -28550610.700 2        20.750           2.469
  16224821.835   -21246669.095 6 -15601771.384 1        17.250           0.938
  14327277.062   -50042568.804 7 -34228592.828 3        25.500           3.000
 96  4  3 23  2 59.9790000  0  6 02 07 24 09 05 04
  17699317.499   -18870947.042 5 -14645458.455 1         7.750           0.313
  16220198.562   -29950223.706 6 -23223363.944 1        17.000           1.188
  14550609.015   -37014368.995 7 -28564862.556 3        21.750           2.531
  14950874.718   -37030060.619 7 -28592582.117 2        21.000           2.469
  16195961.421   -21398335.349 6 -15719952.861 1        17.250           0.938
  14318572.077   -50088310.925 7 -34264236.042 3        25.000           3.094
 96  4  3 23  3 29.9780000  0  6 02 07 24 09 05 04
  17702191.361   -18855847.768 5 -14633692.861 1         7.500           0.344
  16218655.440   -29958325.831 6 -23229677.313 1        16.750           1.063
  14527688.776   -37134820.103 7 -28658720.546 3        21.500           2.625
  14940731.955   -37083372.513 7 -28634123.867 2        21.000           2.375
  16167119.322   -21549898.439 6 -15838053.954 1        17.500           0.938
  14309967.588   -50133519.496 7 -34299463.496 3        25.250           3.063
 96  4  3 23  3 59.9780000  0  6 02 07 24 09 05 04
  17705107.838   -18840526.570 5 -14621754.365 1         8.000           0.313
  16217124.760   -29966375.553 6 -23235949.848 1        17.000           1.063
  14504866.580   -37254756.254 7 -28752177.266 3        21.500           2.656
  14930692.338   -37136133.071 7 -28675236.011 2        20.750           2.406
  16138293.119   -21701378.192 6 -15956090.101 1        17.750           0.969
  14301463.182   -50178207.774 7 -34334285.531 3        25.250           3.031
 96  4  3 23  4 29.9780000  0  6 02 07 24 09 05 04
  17708060.361   -18824987.249 5 -14609645.869 1         7.500           0.250
  16215603.268   -29974376.093 6 -23242184.061 1        16.750           1.063
  14482140.658   -37374168.628 7 -28845225.851 3        22.000           2.563
  14920754.315   -37188340.499 7 -28715917.134 3        20.750           2.531
  16109486.674   -21852760.498 6 -16074050.329 1        17.750           1.031
  14293061.885   -50222369.633 7 -34368697.366 3        25.000           3.094
 96  4  3 23  4 59.9780000  0  7 02 07 24 09 20 05 04
  17711062.932   -18809225.646 5 -14597364.224 1         8.000           0.125
  16214091.455   -29982302.941 6 -23248360.852 1        16.250           1.125
  14459518.408   -37493051.658 7 -28937861.961 3        21.750           2.594
  14910928.729   -37239978.141 7 -28756154.277 2        21.250           2.344
  18138868.674          -0.36513                         5.000
  16080700.736   -22004030.012 6 -16191922.658 1        17.500           1.000
  14284760.213   -50266002.023 7 -34402696.634 3        25.250           3.063
 96  4  3 23  5 29.9780000  0  7 02 07 24 09 20 05 04
  17714103.002   -18793256.286 5 -14584920.660 1         7.500           0.188
  16212597.174   -29990179.495 6 -23254498.447 1        16.500           1.063
  14436992.729   -37611430.687 7 -29030105.334 3        21.750           2.500
  14901208.572   -37291062.578 7 -28795960.349 2        21.000           2.438
  18106758.963     -168720.546 3                         5.250
  16051931.463   -22155214.300 6 -16309728.582 1        17.500           1.063
  14276551.401   -50309132.068 7 -34436304.457 3        25.250           3.031
 96  4  3 23  5 59.9780000  0  7 02 07 24 09 20 05 04
  17717183.643   -18777072.124 4 -14572309.687 1         7.250           0.406
  16211102.807   -29998021.126 6 -23260608.834 1        16.000           1.094
  14414561.088   -37729309.401 7 -29121958.862 3        22.000           2.531
  14891592.713   -37341604.223 7 -28835343.465 2        20.750           2.469
  18674225.229     -337513.088 3                         5.250
  16023182.502   -22306296.316 6 -16427454.808 1        17.750           1.156
  14268442.190   -50351737.595 7 -34469503.573 3        25.500           3.063
 96  4  3 23  6 29.9780000  0  7 02 07 24 09 20 05 04
  17720305.182   -18760652.713 4 -14559515.453 1         6.250           0.188
  16209623.346   -30005810.044 6 -23266678.141 1        16.000           1.031
  14392222.588   -37846697.486 7 -29213430.078 3        22.000           2.563
  14882076.643   -37391610.449 7 -28874309.377 2        20.500           2.438
  18642095.557     -506370.122 3                         5.500
  15994454.393   -22457265.036 6 -16545092.752 1        18.000           1.094
  14260437.666   -50393798.889 7 -34502278.601 3        25.750           3.063
 96  4  3 23  6 59.9780000  0  7 02 07 24 09 20 05 04
  17723474.932   -18743988.412 4 -14546530.376 1         6.500           0.125
  16208151.244   -30013545.604 6 -23272705.877 1        15.500           1.031
  14369976.752   -37963601.032 7 -29304523.729 3        21.750           2.531
  14872659.690   -37441087.856 7 -28912863.208 2        20.750           2.438
  18609946.361     -675302.159 3                         5.500
  15965748.377   -22608118.293 6 -16662640.721 1        18.250           1.094
  14252538.643   -50435310.689 7 -34534625.458 3        25.750           3.094
 96  4  3 23  7 29.9780000  0  7 02 07 24 09 20 05 04
  17726692.236   -18727090.766 4 -14533363.506 1         6.250           0.188
  16206682.510   -30021253.053 6 -23278711.712 1        15.750           0.938
  14347822.440   -38080022.338 7 -29395241.612 3        22.250           2.531
  14863339.330   -37490058.728 7 -28951022.349 2        20.750           2.344
  18577784.674     -844309.684 3                         6.000
  15937062.041   -22758859.066 6 -16780101.044 1        18.250           1.094
  14244743.111   -50476285.642 7 -34566553.991 3        25.500           3.063
 96  4  3 23  7 59.9780000  0  7 02 07 24 09 20 05 04
  17729945.994   -18709994.859 4 -14520042.063 1         6.250           0.250
  16205215.619   -30028961.258 6 -23284718.125 1        15.750           1.000
  14325754.557   -38195994.253 7 -29485609.318 3        22.500           2.594
  14854112.244   -37538545.970 7 -28988804.634 2        20.500           2.344
  18545605.651    -1013414.506 3                         5.750
  15908395.057   -22909501.146 6 -16897484.470 1        18.250           1.125
  14237041.377   -50516759.048 7 -34598091.712 3        25.500           3.188
 96  4  3 23  8 29.9780000  0  7 02 07 24 09 20 05 04
  17733240.979   -18692674.217 3 -14506545.565 1         5.250           0.250
  16203754.018   -30036632.438 6 -23290695.692 1        16.250           0.844
  14303775.057   -38311494.602 7 -29575609.578 3        22.250           2.531
  14844990.682   -37586498.745 7 -29026170.448 2        21.000           2.375
  18513413.783    -1182579.813 3        -0.34411         6.000           0.125
  15879751.822   -23060025.032 6 -17014775.784 1        18.000           1.125
  14229438.088   -50556710.723 7 -34629222.887 3        25.500           3.063
 96  4  3 23  8 59.9780000  0  7 02 07 24 09 20 05 04
  17736578.721   -18675134.897 3 -14492878.654 1         5.250           0.219
  16202302.846   -30044264.152 6 -23296642.508 1        16.250           0.875
  14281894.127   -38426484.868 7 -29665212.360 3        22.250           2.563
  14835972.955   -37633894.534 7 -29063102.248 2        21.000           2.406
  18481216.518    -1351777.711 4                         6.250
  15851132.744   -23210416.132 6 -17131963.634 1        18.000           1.031
  14221935.955   -50596133.360 7 -34659941.825 3        25.500           3.188
 96  4  3 23  9 29.9780000  0  7 02 07 24 09 20 05 04
  17739954.447   -18657397.509 3 -14479057.421 1         6.000           0.219
  16200858.322   -30051862.591 6 -23302563.382 1        16.250           0.906
  14260107.572   -38540970.253 7 -29754421.737 3        22.250           2.500
  14827059.658   -37680729.273 7 -29099596.871 2        21.000           2.469
  18449015.822    -1521002.037 4        -0.42011         6.250           0.125
  15822537.346   -23360690.712 6 -17249060.692 1        18.000           1.125
  14214533.565   -50635031.757 7 -34690252.264 3        25.250           3.219
 96  4  3 23  9 59.9780000  0  7 02 07 24 09 20 05 04
  17743371.510   -18639455.944 3 -14465077.058 1         5.750           0.188
  16199420.018   -30059414.813 6 -23308448.256 1        16.250           0.938
  14238417.963   -38654946.746 7 -29843234.569 3        22.250           2.625
  14818253.033   -37726997.762 7 -29135650.259 2        21.250           2.313
  18416806.557    -1690257.364 4   -131887.616 1         6.500           0.063
  15793963.018   -23510848.445 6 -17366066.690 1        17.750           1.156
  14207235.916   -50673388.340 7 -34720140.509 3        25.250           3.156
 96  4  3 23 10 29.9780000  0  7 02 07 24 09 20 05 04
  17746821.026   -18621325.211 4 -14450949.356 1         6.250           0.188
  16197983.822   -30066940.526 6 -23314312.470 1        16.000           0.875
  14216825.088   -38768413.122 7 -29931649.909 2        22.250           2.438
  14809549.424   -37772733.058 7 -29171288.168 2        21.000           2.375
  18384588.393    -1859560.777 4   -263812.298 1         6.500           0.219
  15765409.791   -23660901.755 6 -17482991.324 1        18.000           1.094
  14200038.979   -50711217.965 7 -34749618.143 3        25.250           3.188
 96  4  3 23 10 59.9780000  0  7 02 07 24 09 20 05 04
  17750305.979   -18602993.309 3 -14436664.820 1         5.750           0.188
  16196563.080   -30074438.105 6 -23320154.763 1        16.000           0.875
  14195336.182   -38881341.290 7 -30019645.873 3        22.000           2.500
  14800945.940   -37817939.027 7 -29206513.620 2        21.000           2.344
  18352363.682    -2028905.007 3   -395768.813 1         6.000           0.094
  15736878.580   -23810824.805 6 -17599814.468 1        18.000           1.250
  14192939.752   -50748521.646 7 -34778685.945 3        25.500           3.313
 96  4  3 23 11 29.9780000  0  7 02 07 24 09 20 05 04
  17753836.893   -18584455.427 3 -14422219.799 1         6.000           0.219
  16195137.354   -30081923.066 6 -23325987.220 1        15.500           0.813
  14173946.010   -38993747.607 7 -30107235.190 3        22.250           2.531
  14792441.674   -37862636.498 7 -29241342.839 2        21.500           2.406
  18320129.010    -2198308.868 3   -527771.765 1         6.000           0.219
  15708376.322   -23960614.337 6 -17716533.559 1        18.500           1.188
  14185935.572   -50785325.111 7 -34807363.959 3        25.000           3.219
 96  4  3 23 11 59.9780000  0  7 02 07 24 09 20 05 04
  17757377.416   -18565834.746 3 -14407710.265 1         6.000           0.094
  16193688.299   -30089534.787 6 -23331918.459 1        15.750           0.813
  14152630.455   -39105762.704 7 -30194519.663 3        22.500           2.594
  14784005.736   -37906969.529 7 -29275888.074 2        21.250           2.469
  18287854.916    -2367906.084 3   -659925.340 1         5.000           0.156
  15679872.557   -24110391.729 6 -17833243.217 1        18.750           1.094
  14178998.651   -50821780.337 7 -34835770.646 3        25.250           3.156
 96  4  3 23 12 29.9780000  0  7 02 07 24 09 20 05 04
  17760958.205   -18547017.409 3 -14393047.491 1         5.750           0.188
  16192238.541   -30097156.533 6 -23337857.510 1        15.250           0.938
  14131412.127   -39217270.704 7 -30281408.998 3        22.500           2.563
  14775664.666   -37950810.141 7 -29310049.610 2        21.250           2.281
  18255571.580    -2537562.689 2   -792125.218 1         4.500           0.250
  15651395.885   -24260039.495 6 -17949851.841 1        18.750           1.250
  14172146.666   -50857774.490 7 -34863818.038 3        25.000           3.281
 96  4  3 23 12 59.9780000  0  7 02 07 24 09 20 05 04
  17764580.947   -18527990.264 3 -14378221.242 1         5.250           0.219
  16190793.682   -30104759.139 6 -23343781.640 1        15.500           0.781
  14110290.721   -39328264.256 7 -30367897.458 3        22.500           2.531
  14767421.026   -37994126.586 7 -29343802.703 2        21.000           2.406
  18223277.846    -2707254.776 2   -924352.716 1         4.750           0.219
  15622944.479   -24409551.985 6 -18066355.066 1        19.000           1.188
  14165390.432   -50893277.168 7 -34891482.466 3        25.000           3.344
 96  4  3 23 13 29.9780000  0  7 02 07 24 09 20 05 04
  17768233.104   -18508785.883 2 -14363256.898 1         4.500           0.063
  16189348.447   -30112355.753 6 -23349701.105 1        15.750           0.781
  14089257.416   -39438791.093 7 -30454022.248 2        22.500           2.469
  14759274.182   -38036947.690 7 -29377169.810 2        21.000           2.406
  18190975.901    -2877010.207 2  -1056629.610 1         4.250           0.250
  15594511.736   -24558976.551 6 -18182789.778 1        19.000           1.219
  14158726.619   -50928294.083 7 -34918768.379 3        25.000           3.281
 96  4  3 23 13 59.9780000  0  7 02 07 24 09 20 05 04
  17771913.744   -18489455.587 3                         5.000
  16187896.088   -30119969.448 6 -23355633.886 1        15.000           0.750
  14068306.963   -39548891.361 7 -30539814.654 3        22.500           2.500
  14751214.369   -38079298.406 7 -29410170.401 2        21.000           2.469
  18158637.572    -3046860.571 2  -1188980.458 1         4.500           0.188
  15566082.705   -24708361.946 6 -18299193.965 1        18.750           1.281
  14152155.002   -50962833.515 7 -34945682.226 3        25.250           3.250
 96  4  3 23 14 29.9780000  0  7 02 07 24 09 20 05 04
  17775608.424   -18470020.817 3        -0.04611         5.000           0.219
  16186441.619   -30127612.090 6 -23361589.217 1        15.000           0.688
  14047431.830   -39658584.442 7 -30625289.769 2        22.750           2.438
  14743239.846   -38121200.003 7 -29442821.020 2        21.250           2.375
  18126316.963    -3216818.903 2  -1321415.464 1         4.750           0.188
  15537662.080   -24857726.065 6 -18415581.580 1        18.750           1.313
  14145673.385   -50996898.038 7 -34972226.023 3        25.500           3.250
 96  4  3 23 14 59.9770000  0  7 02 07 24 09 20 05 04
  17779341.185   -18450423.149 3     15270.770 1         5.500           0.156
  16184994.028   -30135217.814 6 -23367515.779 1        14.750           0.750
  14026644.505   -39767820.317 7 -30710408.610 3        22.250           2.531
  14735360.169   -38162605.780 7 -29475085.278 2        21.250           2.406
  18093959.068    -3386829.751 2  -1453891.391 1         4.500           0.188
  15509255.677   -25006997.129 6 -18531896.676 1        18.750           1.344
  14139290.638   -51030437.914 7 -34998360.990 3        25.250           3.063
 96  4  3 23 15 29.9770000  0  7 02 07 24 09 20 05 04
  17783102.614   -18430649.914 3     30678.419 1         5.500           0.125
  16183557.310   -30142787.553 6 -23373414.306 1        14.500           0.844
  14005946.294   -39876592.328 7 -30795166.006 3        22.500           2.531
  14727574.427   -38203514.002 7 -29506961.837 2        21.250           2.375
  18061593.685    -3556900.679 2  -1586414.104 1         4.500           0.281
  15480869.966   -25156160.310 6 -18648127.712 1        19.000           1.313
  14133005.443   -51063471.568 7 -35024101.504 3        25.000           3.094
 96  4  3 23 15 59.9770000  0  7 02 07 24 09 20 05 04
  17786883.185   -18410799.553 3     46146.118 1         5.750           0.156
  16182101.927   -30150428.962 6 -23379368.681 1        14.500           0.719
  13985318.896   -39984986.309 7 -30879628.836 3        22.500           2.500
  14719866.247   -38244022.996 7 -29538527.310 2        21.250           2.469
  18029203.153    -3727121.364 2  -1719053.546 1         4.750           0.219
  15452493.661   -25305284.135 6 -18764328.084 1        19.250           1.313
  14126792.849   -51096122.377 7 -35049543.703 3        25.250           3.125
 96  4  3 23 16 29.9770000  0  7 02 07 24 09 20 05 04
  17790720.958   -18390629.604 3     61862.872 1         5.750           0.219
  16180677.224   -30157917.187 6 -23385203.680 1        14.250           0.813
  13964811.560   -40092762.749 7 -30963610.455 2        22.750           2.469
  14712276.333   -38283904.312 7 -29569603.678 2        21.500           2.469
  17996825.521    -3897259.199 2  -1851628.388 1         4.750           0.125
  15424168.638   -25454125.837 6 -18880308.608 1        19.250           1.281
  14120693.028   -51128176.996 7 -35074521.327 3        25.250           3.063
